[[{"header":{"parameterUnit":"m.s-1","parameterCategory":1,"la1":30.6,"la2":28.766,"lo1":-90.7593,"lo2":-88.6598,"dy":0.0162,"dx":0.0183,"nx":116,"ny":114,"refTime":"2024-05-15T06:00:00:Z","depth":0,"parameterNumber":2,"parameterNumberName":"U-component_of_WINDS"},"data":[0.0,0.0,0.0,0.0,0.0,0.0,0.0,0.0,0.0,0.0,0.0,0.0,0.0,0.0,0.0,0.0,0.0,0.0,0.0,0.0,0.0,0.0,0.0,0.0,0.0,0.0,0.0,0.0,0.0,0.0,0.0,0.0,0.0,0.0,0.0,0.0,0.0,0.0,0.0,0.0,0.0,0.0,0.0,0.0,0.0,0.0,0.0,0.0,0.0,0.0,0.0,0.0,0.0,0.0,0.0,0.0,0.0,0.0,0.0,0.0,0.0,0.0,0.0,0.0,0.0,0.0,0.0,0.0,0.0,0.0,0.0,0.0,0.0,0.0,0.0,0.0,0.0,0.0,0.0,0.0,0.0,0.0,0.0,0.0,0.0,0.0,0.0,0.0,0.0,0.0,0.0,0.0,0.0,0.0,0.0,0.0,0.0,0.0,0.0,0.0,0.0,0.0,0.0,0.0,0.0,0.0,0.0,0.0,0.0,0.0,0.0,0.0,0.0,0.0,0.0,0.0,0.0,0.0,0.0,0.0,0.0,0.0,0.0,0.0,0.0,0.0,0.0,0.0,0.0,0.0,0.0,0.0,0.0,0.0,0.0,0.0,0.0,0.0,0.0,0.0,0.0,0.0,0.0,0.0,0.0,0.0,0.0,0.0,0.0,0.0,0.0,0.0,0.0,0.0,0.0,0.0,0.0,0.0,0.0,0.0,0.0,0.0,0.0,0.0,0.0,0.0,0.0,0.0,0.0,0.0,0.0,0.0,0.0,0.0,0.0,0.0,0.0,0.0,0.0,0.0,0.0,0.0,0.0,0.0,0.0,0.0,0.0,0.0,0.0,0.0,0.0,0.0,0.0,0.0,0.0,0.0,0.0,0.0,0.0,0.0,0.0,0.0,0.0,0.0,0.0,0.0,0.0,0.0,0.0,0.0,0.0,0.0,0.0,0.0,0.0,0.0,0.0,0.0,0.0,0.0,0.0,0.0,0.0,0.0,0.0,0.0,0.0,0.0,0.0,0.0,0.0,0.0,0.0,0.0,0.0,0.0,0.0,0.0,0.0,0.0,0.0,0.0,0.0,0.0,0.0,0.0,0.0,0.0,0.0,0.0,0.0,0.0,0.0,0.0,0.0,0.0,0.0,0.0,0.0,0.0,0.0,0.0,0.0,0.0,0.0,0.0,0.0,0.0,0.0,0.0,0.0,0.0,0.0,0.0,0.0,0.0,0.0,0.0,0.0,0.0,0.0,0.0,0.0,0.0,0.0,0.0,0.0,0.0,0.0,0.0,0.0,0.0,0.0,0.0,0.0,0.0,0.0,0.0,0.0,0.0,0.0,0.0,0.0,0.0,0.0,0.0,0.0,0.0,0.0,0.0,0.0,0.0,0.0,0.0,0.0,0.0,0.0,0.0,0.0,0.0,0.0,0.0,0.0,0.0,0.0,0.0,0.0,0.0,0.0,0.0,0.0,0.0,0.0,0.0,0.0,0.0,0.0,0.0,0.0,0.0,0.0,0.0,0.0,0.0,0.0,0.0,0.0,0.0,0.0,0.0,0.0,0.0,0.0,0.0,0.0,0.0,0.0,0.0,0.0,0.0,0.0,0.0,0.0,0.0,0.0,0.0,0.0,0.0,0.0,0.0,0.0,0.0,0.0,0.0,0.0,0.0,0.0,0.0,0.0,0.0,0.0,0.0,0.0,0.0,0.0,0.0,0.0,0.0,0.0,0.0,0.0,0.0,0.0,0.0,0.0,0.0,0.0,0.0,0.0,0.0,0.0,0.0,0.0,0.0,0.0,0.0,0.0,0.0,0.0,0.0,0.0,0.0,0.0,0.0,0.0,0.0,0.0,0.0,0.0,0.0,0.0,0.0,0.0,0.0,0.0,0.0,0.0,0.0,0.0,0.0,0.0,0.0,0.0,0.0,0.0,0.0,0.0,0.0,0.0,0.0,0.0,0.0,0.0,0.0,0.0,0.0,0.0,0.0,0.0,0.0,0.0,0.0,0.0,0.0,0.0,0.0,0.0,0.0,0.0,0.0,0.0,0.0,0.0,0.0,0.0,0.0,0.0,0.0,0.0,0.0,0.0,0.0,0.0,0.0,0.0,0.0,0.0,0.0,0.0,0.0,0.0,0.0,0.0,0.0,0.0,0.0,0.0,0.0,0.0,0.0,0.0,0.0,0.0,0.0,0.0,0.0,0.0,0.0,0.0,0.0,0.0,0.0,0.0,0.0,0.0,0.0,0.0,0.0,0.0,0.0,0.0,0.0,0.0,0.0,0.0,0.0,0.0,0.0,0.0,0.0,0.0,0.0,0.0,0.0,0.0,0.0,0.0,0.0,0.0,0.0,0.0,0.0,0.0,0.0,0.0,0.0,0.0,0.0,0.0,0.0,0.0,0.0,0.0,0.0,0.0,0.0,0.0,0.0,0.0,0.0,0.0,0.0,0.0,0.0,0.0,0.0,0.0,0.0,0.0,0.0,0.0,0.0,0.0,0.0,0.0,0.0,0.0,0.0,0.0,0.0,0.0,0.0,0.0,0.0,0.0,0.0,0.0,0.0,0.0,0.0,0.0,0.0,0.0,0.0,0.0,0.0,0.0,0.0,0.0,0.0,0.0,0.0,0.0,0.0,0.0,0.0,0.0,0.0,0.0,0.0,0.0,0.0,0.0,0.0,0.0,0.0,0.0,0.0,0.0,0.0,0.0,0.0,0.0,0.0,0.0,0.0,0.0,0.0,0.0,0.0,0.0,0.0,0.0,0.0,0.0,0.0,0.0,0.0,0.0,0.0,0.0,0.0,0.0,0.0,0.0,0.0,0.0,0.0,0.0,0.0,0.0,0.0,0.0,0.0,0.0,0.0,0.0,0.0,0.0,0.0,0.0,0.0,0.0,0.0,0.0,0.0,0.0,0.0,0.0,0.0,0.0,0.0,0.0,0.0,0.0,0.0,0.0,0.0,0.0,0.0,0.0,0.0,0.0,0.0,0.0,0.0,0.0,0.0,0.0,0.0,0.0,0.0,0.0,0.0,0.0,0.0,0.0,0.0,0.0,0.0,0.0,0.0,0.0,0.0,0.0,0.0,0.0,0.0,0.0,0.0,0.0,0.0,0.0,0.0,0.0,0.0,0.0,0.0,0.0,0.0,0.0,0.0,0.0,0.0,0.0,0.0,0.0,0.0,0.0,0.0,0.0,0.0,0.0,0.0,0.0,0.0,0.0,0.0,0.0,0.0,0.0,0.0,0.0,0.0,0.0,0.0,0.0,0.0,0.0,0.0,0.0,0.0,0.0,0.0,0.0,0.0,0.0,0.0,0.0,0.0,0.0,0.0,0.0,0.0,0.0,0.0,0.0,0.0,0.0,0.0,0.0,0.0,0.0,0.0,0.0,0.0,0.0,0.0,0.0,0.0,0.0,0.0,0.0,0.0,0.0,0.0,0.0,0.0,0.0,0.0,0.0,0.0,0.0,0.0,0.0,0.0,0.0,0.0,0.0,0.0,0.0,0.0,0.0,0.0,0.0,0.0,0.0,0.0,0.0,0.0,0.0,0.0,0.0,0.0,0.0,0.0,0.0,0.0,0.0,0.0,0.0,0.0,0.0,0.0,0.0,0.0,0.0,0.0,0.0,0.0,0.0,0.0,0.0,0.0,0.0,0.0,0.0,0.0,0.0,0.0,0.0,0.0,0.0,0.0,0.0,0.0,0.0,0.0,0.0,0.0,0.0,0.0,0.0,0.0,0.0,0.0,0.0,0.0,0.0,0.0,0.0,0.0,0.0,0.0,0.0,0.0,0.0,0.0,0.0,0.0,0.0,0.0,0.0,0.0,0.0,0.0,0.0,0.0,0.0,0.0,0.0,0.0,0.0,0.0,0.0,0.0,0.0,0.0,0.0,0.0,0.0,0.0,0.0,0.0,0.0,0.0,0.0,0.0,0.0,0.0,0.0,0.0,0.0,0.0,0.0,0.0,0.0,0.0,0.0,0.0,0.0,0.0,0.0,0.0,0.0,0.0,0.0,0.0,0.0,0.0,0.0,0.0,0.0,0.0,0.0,0.0,0.0,0.0,0.0,0.0,0.0,0.0,0.0,0.0,0.0,0.0,0.0,0.0,0.0,0.0,0.0,0.0,0.0,0.0,0.0,0.0,0.0,0.0,0.0,0.0,0.0,0.0,0.0,0.0,0.0,0.0,0.0,0.0,0.0,0.0,0.0,0.0,0.0,0.0,0.0,0.0,0.0,0.0,0.0,0.0,0.0,0.0,0.0,0.0,0.0,0.0,0.0,0.0,0.0,0.0,0.0,0.0,0.0,0.0,0.0,0.0,0.0,0.0,0.0,0.0,0.0,0.0,0.0,0.0,0.0,0.0,0.0,0.0,0.0,0.0,0.0,0.0,0.0,0.0,0.0,0.0,0.0,0.0,0.0,0.0,0.0,0.0,0.0,0.0,0.0,0.0,0.0,0.0,0.0,0.0,0.0,0.0,0.0,0.0,0.0,0.0,0.0,0.0,0.0,0.0,0.0,0.0,0.0,0.0,0.0,0.0,0.0,0.0,0.0,0.0,0.0,0.0,0.0,0.0,0.0,0.0,0.0,0.0,0.0,0.0,0.0,0.0,0.0,0.0,0.0,0.0,0.0,0.0,0.0,0.0,0.0,0.0,0.0,0.0,0.0,0.0,0.0,0.0,0.0,0.0,0.0,0.0,0.0,0.0,0.0,0.0,0.0,0.0,0.0,0.0,0.0,0.0,0.0,0.0,0.0,0.0,0.0,0.0,0.0,0.0,0.0,0.0,0.0,0.0,0.0,0.0,0.0,0.0,0.0,0.0,0.0,0.0,0.0,0.0,0.0,0.0,0.0,0.0,0.0,0.0,0.0,0.0,0.0,0.0,0.0,0.0,0.0,0.0,0.0,0.0,0.0,0.0,0.0,0.0,0.0,0.0,0.0,0.0,0.0,0.0,0.0,0.0,0.0,0.0,0.0,0.0,0.0,0.0,0.0,0.0,0.0,0.0,0.0,0.0,0.0,0.0,0.0,0.0,0.0,0.0,0.0,0.0,0.0,0.0,0.0,0.0,0.0,0.0,0.0,0.0,0.0,0.0,0.0,0.0,0.0,0.0,0.0,0.0,0.0,0.0,0.0,0.0,0.0,0.0,0.0,0.0,0.0,0.0,0.0,0.0,0.0,0.0,0.0,0.0,0.0,0.0,0.0,0.0,0.0,0.0,0.0,0.0,0.0,0.0,0.0,0.0,0.0,0.0,0.0,0.0,0.0,0.0,0.0,0.0,0.0,0.0,0.0,0.0,0.0,0.0,0.0,0.0,0.0,0.0,0.0,0.0,0.0,0.0,0.0,0.0,0.0,0.0,0.0,0.0,0.0,0.0,0.0,0.0,0.0,0.0,0.0,0.0,0.0,0.0,0.0,0.0,0.0,0.0,0.0,0.0,0.0,0.0,0.0,0.0,0.0,0.0,0.0,0.0,0.0,0.0,0.0,0.0,0.0,0.0,0.0,0.0,0.0,0.0,0.0,0.0,0.0,0.0,0.0,0.0,0.0,0.0,0.0,0.0,0.0,0.0,0.0,0.0,0.0,0.0,0.0,0.0,0.0,0.0,0.0,0.0,0.0,0.0,0.0,0.0,0.0,0.0,0.0,0.0,0.0,0.0,0.0,0.0,0.0,0.0,0.0,0.0,0.0,0.0,0.0,0.0,0.0,0.0,0.0,0.0,0.0,0.0,0.0,0.0,0.0,0.0,0.0,0.0,0.0,0.0,0.0,0.0,0.0,0.0,0.0,0.0,0.0,0.0,0.0,0.0,0.0,0.0,0.0,0.0,0.0,0.0,0.0,0.0,0.0,0.0,0.0,0.0,0.0,0.0,0.0,0.0,0.0,0.0,0.0,0.0,0.0,0.0,0.0,0.0,0.0,0.0,0.0,0.0,0.0,0.0,0.0,0.0,0.0,0.0,0.0,0.0,0.0,0.0,0.0,0.0,0.0,0.0,0.0,0.0,0.0,0.0,0.0,0.0,0.0,0.0,0.0,0.0,0.0,0.0,0.0,0.0,0.0,0.0,0.0,0.0,0.0,0.0,0.0,0.0,0.0,0.0,1.9807,0.0,0.0,0.0,0.0,0.0,0.0,0.0,0.0,0.0,0.0,0.0,0.0,0.0,0.0,0.0,0.0,0.0,0.0,0.0,0.0,0.0,0.0,0.0,0.0,2.0605,2.0605,2.0605,2.0605,2.0565,2.0449,0.0,0.0,0.0,0.0,0.0,2.0903,2.0896,2.1289,2.2111,2.2182,2.1784,2.1023,2.3183,2.4392,2.4793,0.0,0.0,0.0,0.0,0.0,0.0,0.0,0.0,0.0,0.0,0.0,0.0,0.0,0.0,0.0,0.0,0.0,0.0,0.0,0.0,0.0,0.0,0.0,0.0,0.0,0.0,0.0,0.0,0.0,0.0,0.0,0.0,0.0,0.0,0.0,0.0,0.0,0.0,0.0,0.0,0.0,0.0,0.0,0.0,0.0,0.0,0.0,0.0,0.0,0.0,0.0,0.0,0.0,0.0,0.0,0.0,0.0,0.0,0.0,0.0,0.0,0.0,0.0,0.0,0.0,0.0,0.0,0.0,0.0,0.0,0.0,1.8691,0.0,0.0,0.0,0.0,0.0,0.0,0.0,0.0,0.0,0.0,0.0,0.0,0.0,0.0,0.0,0.0,0.0,0.0,0.0,0.0,0.0,2.0605,2.0605,2.0605,2.0605,2.0605,2.0605,2.0566,2.0508,2.0443,0.0,0.0,0.0,2.0446,2.0735,2.1243,2.1856,2.2592,2.1502,2.1293,2.1956,2.2537,2.3321,2.4263,2.4762,0.0,0.0,0.0,0.0,0.0,0.0,0.0,0.0,0.0,0.0,0.0,0.0,0.0,0.0,0.0,0.0,0.0,0.0,0.0,0.0,0.0,0.0,0.0,0.0,0.0,0.0,0.0,0.0,0.0,0.0,0.0,0.0,0.0,0.0,0.0,0.0,0.0,0.0,0.0,0.0,0.0,0.0,0.0,0.0,0.0,0.0,0.0,0.0,0.0,0.0,0.0,0.0,0.0,0.0,0.0,0.0,0.0,0.0,0.0,0.0,0.0,0.0,0.0,1.9773,1.8589,1.8589,1.8589,1.8589,1.8566,1.8268,1.8293,1.8751,2.0928,0.0,0.0,0.0,0.0,0.0,0.0,0.0,0.0,0.0,0.0,0.0,0.0,0.0,0.0,0.0,0.0,0.0,0.0,0.0,2.0605,2.0605,2.0605,2.0605,2.0605,2.0605,2.0566,2.0508,2.0447,0.0,0.0,2.0312,2.0985,2.2447,2.1823,2.1585,2.1751,1.9482,1.9939,2.2901,2.232,2.2873,2.4344,2.3639,2.3707,2.437,0.0,0.0,0.0,0.0,0.0,0.0,0.0,0.0,0.0,0.0,0.0,0.0,0.0,0.0,0.0,0.0,0.0,0.0,0.0,0.0,0.0,0.0,0.0,0.0,0.0,0.0,0.0,0.0,0.0,0.0,0.0,0.0,0.0,0.0,0.0,0.0,0.0,0.0,0.0,0.0,0.0,2.3792,2.2694,0.0,0.0,0.0,0.0,0.0,0.0,0.0,0.0,0.0,0.0,0.0,0.0,0.0,1.8403,1.8403,2.0991,2.231,2.231,2.1904,2.1718,2.1718,2.1718,2.1718,2.1619,2.013,0.0,2.1625,2.049,0.0,0.0,0.0,0.0,0.0,0.0,0.0,0.0,0.0,0.0,0.0,0.0,0.0,0.0,0.0,0.0,0.0,0.0,0.0,0.0,0.0,2.0605,2.0391,1.9902,2.0312,2.0371,1.9863,2.0229,2.0632,2.1081,2.0573,2.1081,2.2754,2.1947,2.1305,2.0927,2.0376,2.0642,2.1713,2.2308,2.2968,2.3651,2.3242,2.3517,2.4291,2.3786,0.0,0.0,0.0,0.0,0.0,0.0,0.0,0.0,0.0,0.0,0.0,0.0,0.0,0.0,0.0,0.0,0.0,0.0,0.0,0.0,0.0,0.0,0.0,0.0,0.0,0.0,0.0,0.0,0.0,0.0,0.0,0.0,0.0,0.0,0.0,0.0,0.0,0.0,0.0,2.0698,2.1479,2.1552,2.1837,2.2217,0.0,0.0,0.0,0.0,0.0,0.0,0.0,0.0,0.0,1.9773,2.0145,2.0331,2.0331,2.1651,2.231,2.231,2.231,2.231,2.231,2.231,2.1751,2.0797,2.0015,2.0139,2.0764,2.0015,1.969,1.969,0.0,0.0,0.0,0.0,1.893,1.7787,0.0,0.0,0.0,0.0,0.0,0.0,0.0,0.0,0.0,0.0,0.0,0.0,2.0564,2.0557,2.0288,1.9643,1.9999,2.0156,1.9941,2.0078,2.0628,2.168,2.1018,2.1323,2.2782,2.1985,2.1398,2.1088,2.1371,2.1517,2.1608,2.2847,2.3555,2.3769,2.3535,2.3789,2.4335,2.3489,2.3582,0.0,0.0,0.0,0.0,0.0,0.0,0.0,0.0,0.0,0.0,0.0,0.0,0.0,0.0,0.0,0.0,0.0,0.0,0.0,0.0,0.0,0.0,0.0,0.0,0.0,0.0,0.0,0.0,0.0,0.0,0.0,0.0,0.0,0.0,0.0,0.0,0.0,0.0,1.9181,2.0675,2.0945,2.1675,2.2413,0.0,0.0,0.0,0.0,0.0,0.0,2.2276,1.9737,1.8493,1.8937,2.1143,2.231,2.231,2.231,2.231,2.231,2.231,2.231,2.231,2.231,2.1354,1.969,1.969,1.969,1.969,1.969,1.969,1.969,1.969,1.969,1.969,1.969,1.8341,1.6522,0.0,0.0,0.0,0.0,0.0,0.0,0.0,0.0,0.0,0.0,0.0,2.0515,2.0515,2.0448,2.0398,2.0359,1.9696,1.9941,0.0,2.0156,2.0018,2.1711,2.1636,2.197,2.2868,2.2111,2.2123,2.2969,2.1425,2.1874,2.4218,2.4297,2.4785,2.5527,2.4707,2.4355,2.4355,2.3535,2.3652,2.4394,0.0,0.0,0.0,0.0,0.0,0.0,0.0,0.0,0.0,0.0,0.0,0.0,0.0,0.0,0.0,0.0,0.0,0.0,0.0,0.0,0.0,0.0,0.0,0.0,0.0,0.0,0.0,0.0,0.0,0.0,0.0,0.0,0.0,0.0,0.0,0.0,0.0,0.0,0.0,2.1163,2.2222,0.0,0.0,0.0,0.0,1.8228,1.8031,1.9283,2.2158,2.0605,2.0362,2.2018,2.2226,2.231,2.231,2.231,2.231,2.231,2.231,2.231,2.231,2.231,2.1354,1.969,1.969,1.969,1.969,1.969,1.969,1.969,1.969,1.969,1.969,1.969,1.8341,1.6522,0.0,0.0,0.0,0.0,0.0,2.0605,2.0605,2.0605,2.0605,2.0605,2.0536,2.0719,2.1281,2.1278,2.1017,2.045,2.064,2.0608,2.0099,2.0057,2.0808,2.2493,2.1987,2.2047,2.2876,2.2153,2.2201,2.3108,2.2503,2.2969,2.4414,2.4961,2.5391,2.5684,2.5371,2.5234,2.5137,2.373,2.3301,2.3574,2.3574,2.3887,0.0,0.0,0.0,0.0,0.0,0.0,0.0,0.0,0.0,0.0,0.0,0.0,0.0,0.0,0.0,0.0,0.0,0.0,0.0,0.0,0.0,0.0,0.0,0.0,0.0,0.0,0.0,0.0,0.0,0.0,0.0,0.0,0.0,0.0,0.0,0.0,0.0,2.3494,2.4187,0.0,2.4392,2.3458,2.2271,2.0814,2.0703,2.1177,2.226,2.1721,2.1661,2.2282,2.231,2.3224,2.5118,2.5135,2.5135,2.5118,2.3224,2.231,2.2378,2.4272,2.3144,1.969,1.969,1.969,1.969,1.969,1.969,1.969,1.969,1.969,1.9884,2.1575,2.0692,1.8631,0.0,0.0,0.0,0.0,2.0605,2.0605,2.0605,2.0605,2.0605,2.0605,2.0511,2.0807,2.1665,2.1692,2.1391,2.0831,2.0789,2.0578,1.9987,1.9747,2.0519,2.2518,2.2313,2.2272,2.2525,2.2595,2.2951,2.3533,2.3542,2.3984,2.4844,2.543,2.5703,2.5703,2.5703,2.5703,2.5625,2.4473,2.3809,2.3516,2.3262,2.3633,2.4277,0.0,0.0,0.0,0.0,0.0,0.0,0.0,0.0,0.0,0.0,0.0,0.0,0.0,0.0,0.0,0.0,0.0,0.0,0.0,0.0,0.0,0.0,0.0,0.0,0.0,0.0,0.0,0.0,0.0,0.0,0.0,0.0,0.0,0.0,0.0,2.3487,2.48,2.5231,2.5368,2.517,2.4243,2.3482,2.3067,2.3511,2.3359,2.2361,2.3257,2.3342,2.2344,2.3274,2.4729,2.6674,2.6691,2.6691,2.6674,2.4712,2.3782,2.3849,2.5812,2.4993,2.2035,2.1318,2.1006,2.1006,2.1006,2.1006,2.1006,2.1006,2.1006,2.1216,2.2951,2.1979,1.9798,0.0,0.0,0.0,2.0547,2.0586,2.0605,2.0605,2.0605,2.0605,2.0605,2.0482,2.075,2.1639,2.1603,2.1504,2.1504,2.005,1.9827,2.1402,1.9273,1.9112,2.1738,2.2623,2.27,2.1943,2.3496,2.4355,2.4434,2.4434,2.4863,2.5703,2.5703,2.5703,2.5742,2.5703,2.5723,2.5781,2.5723,2.5234,2.4394,2.3496,2.3633,2.4355,0.0,0.0,0.0,0.0,0.0,0.0,0.0,0.0,0.0,0.0,0.0,0.0,0.0,0.0,0.0,0.0,0.0,0.0,0.0,0.0,0.0,0.0,0.0,0.0,0.0,0.0,0.0,0.0,0.0,0.0,0.0,0.0,0.0,2.1962,2.3043,2.4052,2.4835,2.5297,2.5543,2.5552,2.4971,2.4605,2.4574,2.5879,2.5456,2.2598,2.5152,2.5389,2.2547,2.5139,2.6641,2.6691,2.6657,2.6607,2.6607,2.6657,2.6691,2.6691,2.6793,2.6742,2.6505,2.448,2.3595,2.3595,2.3595,2.3595,2.3595,2.3595,2.3595,2.3595,2.3595,2.2025,1.9901,0.0,0.0,1.9563,1.9589,2.0117,2.0547,2.0586,2.0605,2.0605,2.0605,2.0526,2.1029,2.248,2.1996,2.1554,2.1504,2.0562,1.9896,1.973,1.9173,2.002,2.2636,2.2408,2.2955,2.4524,2.4438,2.4694,2.5332,2.5332,2.5469,2.5703,2.5703,2.6035,2.6602,2.5977,2.6406,2.75,2.623,2.5937,2.6152,2.4648,2.3809,2.3457,0.0,0.0,0.0,0.0,0.0,0.0,0.0,0.0,0.0,0.0,0.0,0.0,0.0,0.0,0.0,0.0,0.0,0.0,0.0,0.0,0.0,0.0,0.0,0.0,0.0,0.0,0.0,0.0,0.0,0.0,0.0,0.0,2.0563,2.1458,2.2401,2.3537,2.4955,2.5868,2.6374,2.6364,2.6723,2.674,2.6148,2.6454,2.6336,2.5524,2.6251,2.6319,2.5524,2.4826,2.5189,2.6691,2.5227,2.4455,2.448,2.5999,2.6691,2.6759,2.8958,2.7976,2.4415,2.3837,2.3595,2.3595,2.3595,2.3595,2.3595,2.3595,2.3595,2.3595,2.3595,2.3172,2.2271,0.0,1.8623,1.8746,1.9133,1.9617,2.0098,2.0527,2.0605,2.0469,2.0098,2.0312,2.0864,2.1804,2.1398,2.1034,2.1004,2.0227,1.9542,1.903,1.9432,2.0234,2.1465,2.2109,2.3287,2.5063,2.5356,2.5918,2.6797,2.6797,2.6602,2.623,2.623,2.6504,2.6973,2.6465,2.7012,2.8203,2.6836,2.6543,2.6875,2.5508,2.4648,2.4141,2.3789,2.3867,2.414,2.373,2.3598,2.3598,2.3695,0.0,0.0,0.0,0.0,0.0,0.0,0.0,0.0,0.0,0.0,0.0,0.0,0.0,0.0,0.0,0.0,0.0,0.0,0.0,0.0,0.0,0.0,0.0,0.0,2.1166,2.0909,2.1661,2.2624,2.3839,2.5425,2.6422,2.7061,2.7365,2.7382,2.7469,2.7639,2.7063,2.6691,2.6691,2.7892,2.7994,2.6725,2.5529,2.5073,2.5416,2.421,2.3595,2.361,2.5942,2.709,2.7138,2.8882,2.8097,2.527,2.527,2.527,2.527,2.527,2.4612,0.0,0.0,0.0,0.0,0.0,2.2588,2.3041,0.0,1.7683,1.7921,1.8751,1.9068,1.9472,2.0312,2.0527,2.0293,1.9414,2.0019,2.0443,2.027,2.0205,2.0139,2.0035,1.94,1.9042,0.0,1.9942,2.0205,1.9746,2.2051,2.3769,2.4668,2.6309,2.7539,2.8301,2.8301,2.7891,2.7148,2.7148,2.7207,2.7285,2.7187,2.7695,2.8535,2.7559,2.7207,2.7207,2.623,2.5723,2.5469,2.4687,2.4824,2.5312,2.4531,2.4199,2.4023,2.3437,0.0,0.0,0.0,0.0,0.0,0.0,0.0,0.0,0.0,0.0,0.0,0.0,0.0,0.0,0.0,0.0,0.0,0.0,0.0,0.0,0.0,0.0,0.0,0.0,2.1719,2.1876,2.2677,2.3618,2.4676,2.5971,2.6864,2.7572,2.8159,2.7452,2.7435,2.8636,2.7469,2.6843,2.7182,0.0,0.0,0.0,0.0,2.6183,2.4088,2.4044,2.3894,2.3625,2.6303,2.7625,2.7625,2.7625,2.7625,2.7625,2.7625,2.7625,2.7625,2.7625,2.6009,2.3554,2.3554,2.4978,2.6505,2.1865,2.143,2.2752,0.0,1.6759,1.6798,1.6984,1.8222,1.9263,1.9433,2.0117,2.0293,1.9414,2.0059,2.03,1.9527,1.9426,1.9107,1.8348,1.8712,1.9314,0.0,0.0,2.1051,2.2304,2.3516,2.4902,2.6465,2.7519,2.8125,2.8301,2.8301,2.8203,2.8047,2.8047,2.8418,2.9062,2.8359,2.8926,3.0293,2.8711,2.8457,2.8965,2.7383,2.5918,2.4629,2.4453,2.4102,2.3652,2.3496,2.2988,2.2559,2.375,2.3203,2.2265,2.3428,0.0,0.0,0.0,0.0,0.0,0.0,0.0,0.0,0.0,0.0,0.0,0.0,0.0,0.0,0.0,0.0,0.0,0.0,0.0,0.0,2.3632,2.288,2.3011,2.549,2.552,2.5414,2.5671,2.6876,2.7521,2.708,2.7962,2.8146,2.7215,2.686,2.7757,3.0192,2.8569,2.8416,3.026,3.0328,2.9172,2.6846,2.6846,2.5719,2.3625,0.0,0.0,2.7625,2.7625,2.7625,2.7625,2.7625,2.7625,2.7625,2.7625,2.5834,2.3197,2.3197,2.3514,2.3865,2.2812,2.2702,2.2752,1.7164,1.6458,1.599,1.6418,1.7286,1.8197,1.9061,1.9629,1.9785,1.9355,2.0059,2.0406,1.9909,1.9453,1.9174,1.9107,1.9092,0.0,0.0,2.0901,2.1554,2.2461,2.4141,2.5879,2.7617,2.8496,2.916,2.9609,2.9609,2.9375,2.8945,2.8945,2.918,2.957,2.9141,2.9687,3.0801,2.9512,2.9199,2.9492,2.8184,2.6875,2.5644,2.5215,2.4805,2.4336,2.3496,2.2891,2.25,2.25,2.1914,2.1269,2.168,2.1457,2.1289,0.0,0.0,0.0,0.0,0.0,0.0,0.0,0.0,0.0,0.0,0.0,0.0,0.0,0.0,2.2843,0.0,0.0,2.3041,2.3766,2.379,2.4286,2.5912,2.5845,2.5879,2.6623,2.7046,2.7503,2.8129,2.7977,2.8146,2.889,2.8941,2.96,3.1106,2.977,2.9634,3.114,3.0021,2.8841,2.761,2.7625,2.6901,2.56,2.698,2.7625,2.7625,2.7625,2.6782,2.5356,2.5356,2.6187,2.7458,2.5957,2.4469,2.3078,2.3078,2.3078,2.3078,2.3078,2.1428,1.9062,1.7947,1.6529,1.5663,1.6374,1.6553,1.7132,1.8704,1.914,1.9297,1.9297,2.0059,2.0449,2.0059,1.9533,1.9596,2.0559,0.0,0.0,0.0,2.1673,2.2094,2.2129,2.459,2.6699,2.8262,2.9141,3.0039,3.0898,3.0898,3.0547,2.9844,2.9844,2.9844,2.9863,3.0039,3.0391,3.0879,3.0332,3.0019,2.9766,2.8711,2.7871,2.7148,2.6094,2.5586,2.5273,2.3926,2.3065,2.2436,2.1425,2.0742,2.0273,1.9922,2.0018,2.0472,2.1623,2.1163,0.0,0.0,0.0,0.0,0.0,0.0,0.0,0.0,0.0,2.3969,2.318,2.3217,2.3419,2.3419,2.3789,2.407,2.4045,2.4812,2.5554,2.5963,2.6031,2.6505,2.774,2.7351,2.7537,2.8958,2.818,2.8332,3.0176,3.0869,3.119,3.119,3.1732,3.2053,3.2053,2.9171,2.7625,2.7625,2.7625,2.7829,2.8323,2.7254,2.6939,2.7364,2.7364,2.6061,2.3753,2.3265,2.4469,2.6549,2.4564,2.3527,2.3005,2.2372,2.2113,2.2113,2.2113,1.9499,1.5918,0.0,1.7016,1.6388,1.649,1.6566,1.6929,1.79,1.8763,1.9297,1.9297,2.0059,2.0019,1.8457,1.8827,1.9833,2.1416,2.0178,0.0,2.2652,2.2968,2.3025,2.2969,2.5469,2.7305,2.8281,2.9141,3.0039,3.0898,3.0898,3.0859,3.0742,3.0742,3.0742,3.0781,3.1562,3.1523,3.0937,3.1621,3.1465,3.0605,2.8965,2.8242,2.7969,2.6328,2.5215,2.4512,2.4336,2.2769,2.1002,2.2357,2.1289,1.9629,2.1133,2.0566,1.9802,2.2168,2.2172,2.1941,2.4347,2.4044,2.3228,2.4107,2.373,2.3125,0.0,0.0,2.3969,2.318,2.3624,2.4184,2.4184,2.432,2.4842,2.6116,2.6453,2.6775,2.7469,2.7536,2.7723,2.8112,2.8095,2.7774,2.7097,2.9262,2.9719,2.7368,2.9685,3.119,3.119,3.3694,3.5131,3.5131,3.0194,2.7625,2.7625,2.7625,2.8757,3.1004,2.5986,2.4628,2.6588,2.6588,2.6467,2.5975,2.3991,2.3305,2.3731,2.5391,2.4921,2.2811,1.9748,1.8586,1.8586,1.8586,1.8208,1.7725,0.0,1.8604,1.7836,1.7292,1.6458,1.6309,1.7696,1.8234,1.8867,1.9922,2.0371,2.0527,2.0293,2.0566,2.1269,2.2475,2.1034,2.0911,2.2976,2.3153,2.3164,2.3105,2.5605,2.7402,2.8281,2.9141,3.0039,3.0898,3.0898,3.0898,3.0898,3.0898,3.0898,3.0918,3.1289,3.123,3.0918,3.1289,3.123,3.0781,2.9551,2.875,2.8105,2.6367,2.4551,2.3065,2.4019,2.3256,0.0,0.0,2.1051,2.0462,2.0363,2.0061,2.0111,2.2171,2.1689,2.069,2.1563,2.2884,2.3938,2.3691,2.4008,2.4392,2.4392,2.5016,2.5303,2.426,2.4551,2.4927,2.475,2.5161,2.5771,0.0,2.7248,2.7861,2.8418,2.7723,2.7095,2.7002,2.7178,2.7576,2.8214,2.9403,2.9922,2.936,2.9193,2.9785,3.1315,3.11,3.0927,3.0927,2.879,2.8308,2.9864,2.9879,3.0432,3.1467,2.7113,2.5561,2.6533,2.6533,2.6533,2.6483,2.5473,2.4362,2.3286,2.5562,2.4608,2.1512,2.0058,1.9492,1.9375,1.8379,1.8008,1.8154,0.0,1.9538,1.8878,1.817,1.6907,1.6326,1.7389,1.7758,1.8457,2.0039,2.0449,2.084,2.1465,2.1543,2.1894,2.2773,2.1456,2.1093,2.2291,2.2439,2.2422,2.2383,2.4687,2.6465,2.7559,2.8437,2.9316,3.0176,3.0176,3.0176,3.0176,3.0176,3.0312,3.0547,3.0781,3.0898,3.0918,3.1152,3.0976,3.0469,2.959,2.8574,2.7383,2.5664,2.3707,2.2046,2.3409,2.2955,0.0,2.1111,2.1105,2.1144,2.0341,2.0378,2.1024,2.2451,2.199,2.097,2.0788,2.2539,2.4301,2.3787,2.4538,2.5458,2.5676,2.6274,2.6526,2.5641,2.56,2.5672,2.5634,2.5863,2.6267,2.696,2.7927,2.8623,2.877,2.7844,2.6756,2.5716,2.6009,2.6792,2.8063,2.8605,2.9271,3.0149,2.9275,2.919,3.0372,2.931,2.8667,2.8667,2.8667,2.9579,3.1452,3.1482,3.1029,3.0072,2.767,2.6848,2.7381,2.7381,2.6758,2.5507,2.5075,2.4161,2.3211,2.4903,2.3864,2.123,2.0752,2.0566,2.042,1.917,1.7981,1.7104,0.0,0.0,1.9062,1.897,1.8215,1.7401,1.6739,1.7365,1.8242,1.9219,2.0078,2.0605,2.0644,2.0644,2.0996,2.1855,2.1065,2.0525,2.0571,2.0582,2.0586,2.0586,2.2344,2.4082,2.5742,2.6621,2.7519,2.8379,2.8379,2.8379,2.8379,2.8379,2.8828,2.9687,3.0527,3.0898,3.0957,3.1797,3.1172,2.9551,2.8691,2.7305,2.5605,2.3906,2.2669,2.1891,2.2574,0.0,1.9261,2.157,2.1753,2.1164,2.2036,2.2329,0.0,2.3329,2.3934,2.4276,2.3934,2.4025,2.4393,2.5146,2.5366,2.5605,2.6392,2.6881,2.7175,2.7139,2.6631,2.6398,2.7095,2.637,2.6135,2.7778,2.8566,2.8845,2.8388,2.827,2.7258,2.4557,2.4846,2.5226,0.0,2.6669,2.766,2.771,3.0008,3.0328,2.7829,3.0058,3.1362,3.1362,3.1362,3.1392,3.1482,3.1482,2.9889,2.6658,2.6521,2.7595,2.9691,2.9691,2.7279,2.3132,2.144,2.1696,2.3135,2.3163,2.3144,2.2891,2.1221,2.0566,2.0557,2.0508,1.7823,1.4203,0.0,0.0,0.0,1.9166,1.8785,1.8299,1.7516,1.768,1.8015,1.834,1.918,0.0,0.0,0.0,0.0,0.0,2.1036,2.0758,2.1324,2.0783,2.0432,2.043,2.1619,2.2812,2.3945,2.4824,2.5703,2.6562,2.7148,2.7441,2.7441,2.8027,2.8457,2.875,2.9043,2.918,2.9199,2.9492,2.9277,2.8555,2.6523,2.5361,2.4588,2.2197,2.0699,2.0027,0.0,0.0,2.0909,2.169,2.1874,2.1674,2.1027,2.1629,2.2787,2.3712,2.4355,2.4785,2.4886,2.5731,2.6778,2.7585,2.8191,2.865,2.8925,2.8889,2.844,2.7183,2.6535,2.6048,2.5535,2.5142,2.5412,2.7048,2.783,2.8469,2.8954,2.8889,2.8069,2.5952,2.4544,0.0,0.0,0.0,0.0,2.7535,2.8397,2.8517,2.767,3.0088,3.0464,2.8247,3.0329,3.2377,3.4158,3.1624,2.907,2.6477,2.4991,2.4602,2.5378,2.5378,2.4553,2.3105,2.2529,2.2598,2.3135,2.3135,2.3135,2.3076,2.25,2.1934,2.1168,1.8406,1.6472,1.513,0.0,0.0,0.0,0.0,0.0,0.0,0.0,0.0,0.0,0.0,0.0,0.0,0.0,0.0,0.0,0.0,0.0,2.0585,2.0847,2.0268,1.9939,1.9947,2.0812,2.1725,2.2617,2.3184,2.3906,2.4766,2.4727,2.4863,2.5195,2.5742,2.6172,2.6465,2.6777,2.707,2.7344,2.7041,2.672,2.6293,2.4598,2.3501,2.2699,2.0932,1.9849,0.0,0.0,0.0,2.1171,2.1493,2.1935,2.2172,2.1223,2.199,2.3344,2.3871,2.472,2.5514,2.5622,2.7116,2.8778,2.931,2.9824,3.021,3.021,2.9377,2.8174,2.6677,2.5754,2.4979,2.4232,2.3776,2.4046,2.564,2.6128,2.6773,2.8213,2.8077,2.769,2.7302,2.522,2.4003,0.0,0.0,0.0,2.6093,2.7085,2.7468,2.7244,2.8042,2.827,2.7717,2.9781,3.173,3.3422,3.1009,2.8252,2.5275,2.3825,2.3135,2.3135,2.3135,2.3135,2.3135,2.3135,2.3135,2.3135,2.3135,2.3135,2.3047,2.2138,2.0916,1.9476,1.7781,1.6469,1.5471,0.0,0.0,0.0,0.0,0.0,0.0,0.0,0.0,0.0,0.0,0.0,0.0,0.0,0.0,0.0,0.0,0.0,0.0,1.9308,1.9158,0.0,1.9098,1.9883,2.0726,2.1581,2.1699,2.2129,2.291,2.1406,2.1094,2.1894,2.1933,2.2363,2.3144,2.3965,2.4785,2.5506,2.4689,2.3855,2.3087,2.2926,2.1801,2.02,2.0134,0.0,0.0,0.0,1.9505,2.0046,2.1076,2.1944,2.2612,2.2596,2.3318,2.4112,2.3925,2.5175,2.6622,2.6486,2.8372,3.0393,3.0448,3.0411,3.0356,3.0228,2.8446,2.657,2.5709,2.4341,2.3313,0.0,0.0,2.2292,2.3855,2.377,2.4245,2.6414,2.6213,2.6557,0.0,0.0,0.0,0.0,0.0,0.0,2.3674,0.0,2.7244,2.6544,2.4588,2.5305,2.9287,2.9456,2.9456,2.9456,2.9456,2.729,2.3135,2.3135,2.3135,2.3135,2.3135,2.3135,2.3057,2.2862,2.2775,2.2775,2.2862,2.2862,2.2501,2.0494,1.8118,1.6197,1.8488,1.7583,1.517,0.0,0.0,0.0,0.0,0.0,0.0,0.0,0.0,0.0,0.0,0.0,0.0,0.0,0.0,0.0,0.0,0.0,0.0,2.0115,0.0,0.0,0.0,1.9295,1.9265,1.8901,2.018,2.0644,2.0273,2.1133,2.1661,2.1834,2.2543,2.2949,2.3105,2.3322,2.3558,2.3758,2.3471,2.3237,2.2901,0.0,2.0603,2.0022,0.0,0.0,0.0,0.0,1.9488,1.9934,2.1123,2.206,2.2658,2.2554,2.2937,2.3777,2.5397,2.6453,2.7676,3.0246,3.1902,3.3036,3.3642,3.333,3.2412,3.0613,2.8435,2.6392,2.4992,2.3292,2.2059,2.2059,2.1591,0.0,2.3936,2.4575,0.0,2.776,2.8757,0.0,2.8432,0.0,2.7657,2.6674,2.6983,0.0,0.0,2.5897,2.6674,2.6496,2.7536,2.7046,2.4882,2.4808,2.4808,2.4808,2.4808,2.4221,2.3135,2.3135,2.3135,2.3135,2.3135,2.3135,2.2862,1.9214,1.7662,1.784,1.967,1.9306,1.7933,2.1033,2.0314,1.7584,1.6929,1.6872,1.6743,0.0,0.0,0.0,0.0,0.0,0.0,0.0,0.0,0.0,0.0,0.0,0.0,0.0,0.0,0.0,0.0,0.0,0.0,0.0,1.9388,0.0,1.9554,1.9234,1.9042,1.9011,1.9577,1.9686,1.9261,0.0,0.0,2.0121,2.102,2.1405,2.1351,2.1745,2.1933,2.188,2.1462,0.0,0.0,0.0,0.0,0.0,0.0,0.0,0.0,0.0,1.9695,2.0136,2.0998,2.1902,2.2792,2.3557,2.4194,2.5018,2.6655,2.8064,2.9594,3.1957,3.3733,3.4835,3.4541,3.3605,3.221,3.0155,2.764,2.539,2.4182,2.2679,2.1483,2.1171,2.0651,2.0899,0.0,0.0,0.0,2.731,2.8338,2.8907,0.0,2.9007,0.0,2.7591,2.8183,2.7728,0.0,2.7271,2.8187,2.7968,2.7242,2.5714,2.3135,2.3135,2.3135,2.3135,2.3135,2.2041,1.9943,1.9943,1.9943,1.9943,1.9943,1.9943,1.9753,0.0,1.5832,1.592,1.7296,1.7662,1.7576,1.9214,1.8756,1.7124,1.6109,1.5906,1.5778,0.0,0.0,0.0,0.0,0.0,0.0,0.0,0.0,0.0,0.0,1.6777,0.0,0.0,0.0,0.0,0.0,0.0,0.0,0.0,0.0,0.0,1.9946,1.9239,1.9239,2.0054,1.9442,1.9158,1.9211,0.0,0.0,0.0,0.0,0.0,0.0,0.0,0.0,0.0,0.0,0.0,0.0,0.0,0.0,0.0,0.0,0.0,0.0,1.9737,2.0175,2.0587,2.1053,2.1903,2.3037,2.4717,2.586,2.6796,2.7824,2.9677,3.1641,3.2779,3.4743,3.6064,3.4376,3.2742,3.1072,2.9274,2.6459,2.4069,2.3419,2.2275,2.1226,2.0685,1.9955,1.9891,2.1275,0.0,2.2323,2.6183,2.6797,2.7736,3.0042,2.9484,2.8896,2.8794,2.8707,2.8198,2.7061,2.8775,2.9626,2.8978,2.5221,2.3135,2.3135,2.2492,2.2413,2.3047,2.2501,2.0034,1.5832,1.5832,1.5832,1.5832,1.5832,1.5832,1.5832,1.5832,0.0,1.5832,1.5832,1.7117,1.8756,1.5873,1.5045,1.5439,1.5242,1.4459,1.359,0.0,0.0,0.0,0.0,0.0,0.0,0.0,0.0,0.0,0.0,1.7103,1.6699,0.0,0.0,0.0,0.0,0.0,0.0,0.0,0.0,0.0,0.0,1.8095,1.811,1.8321,1.8893,1.9211,1.9272,0.0,0.0,0.0,0.0,0.0,0.0,0.0,0.0,0.0,0.0,0.0,0.0,0.0,0.0,0.0,0.0,0.0,0.0,2.087,2.1158,2.131,0.0,2.3133,2.3611,2.4222,2.5419,2.7016,2.9163,3.054,3.2008,3.4871,3.645,3.689,3.522,3.3587,3.1623,2.8686,2.5674,2.3437,2.3248,2.1606,2.0349,2.0829,2.0226,2.027,2.2169,2.2404,2.352,2.6965,2.7889,2.8773,0.0,2.9891,2.9712,3.0011,2.9356,0.0,0.0,2.7449,2.5672,2.4382,2.3551,2.3135,2.3135,1.9214,1.9031,2.3047,1.9123,1.6655,1.5832,1.5832,1.5832,1.5832,1.5832,1.5832,1.5832,1.5832,0.0,1.5832,1.5832,1.6008,1.5988,1.1249,1.1156,1.3494,1.2032,1.1843,1.2139,0.0,0.0,0.0,0.0,0.0,0.0,0.0,1.7061,1.6902,1.7793,1.7559,1.717,1.6757,1.668,1.6641,0.0,0.0,0.0,0.0,0.0,0.0,0.0,0.0,1.7869,1.7903,1.9196,0.0,0.0,0.0,0.0,0.0,0.0,0.0,0.0,0.0,0.0,0.0,0.0,0.0,0.0,0.0,0.0,0.0,0.0,0.0,0.0,0.0,0.0,2.0925,2.1575,2.2025,2.2581,2.4293,2.564,2.7071,2.9494,3.1072,3.2651,3.5514,3.7184,3.7514,3.5,3.3183,3.1102,2.7679,2.5013,2.3141,2.2712,2.147,2.0512,2.0635,2.0104,2.0124,2.144,2.1665,2.2802,2.6093,2.7141,2.8254,3.0086,3.0714,3.0862,3.0413,3.0186,2.9555,2.8187,2.7139,2.5557,2.3222,2.3135,2.3135,2.3135,2.0854,1.9488,1.9306,1.6922,1.5832,1.5832,1.5832,1.5832,1.5832,1.5832,1.5832,1.5635,1.2904,0.0,1.573,1.437,1.4567,1.5439,1.1551,1.019,1.0574,1.1063,1.1258,1.1161,0.0,0.0,0.0,0.0,0.0,0.0,1.6997,1.6971,1.7246,1.8282,1.8111,1.7663,1.7029,1.6189,1.5586,0.0,0.0,0.0,0.0,0.0,0.0,0.0,0.0,1.7644,1.7632,0.0,0.0,0.0,0.0,0.0,0.0,0.0,0.0,0.0,0.0,0.0,0.0,0.0,0.0,0.0,0.0,0.0,0.0,0.0,0.0,0.0,0.0,0.0,2.0448,2.0651,2.0855,2.1432,2.3915,2.5257,2.6428,2.907,3.0972,3.2792,3.532,3.7074,3.7477,3.4523,3.232,3.0045,2.6825,2.4461,2.2786,2.2228,2.1502,2.0862,2.0382,1.9965,1.9914,2.0602,2.0722,2.1754,2.4762,2.6004,2.7439,2.9638,3.1089,0.0,3.0498,3.0745,0.0,2.7371,2.7139,2.5964,2.3222,2.2775,2.2765,2.3047,2.2041,1.967,1.5825,1.5832,1.5832,1.5832,1.5832,1.5832,1.573,1.4657,1.4172,1.3974,1.0382,0.0,0.0,1.2231,1.2915,1.5439,1.2328,0.9801,0.8237,1.0288,1.0676,1.0186,0.0,0.0,0.0,0.0,0.0,0.0,1.8634,1.8241,1.8326,1.9881,1.8805,1.7869,1.7805,1.7014,1.6191,0.0,0.0,0.0,0.0,0.0,0.0,0.0,0.0,0.0,0.0,0.0,0.0,0.0,0.0,0.0,0.0,0.0,0.0,0.0,0.0,0.0,0.0,0.0,0.0,0.0,0.0,0.0,0.0,0.0,0.0,0.0,0.0,0.0,2.0587,2.1281,2.1271,2.1153,2.2117,2.3004,2.4351,2.7676,2.9797,3.1656,3.4385,3.5826,3.6083,3.4266,3.1494,2.8672,2.6589,2.4027,2.2106,2.2109,2.1502,2.0862,2.0382,1.9965,1.9914,2.0602,2.0722,2.144,2.349,2.5405,2.7047,2.831,0.0,0.0,3.0459,3.0401,3.0225,2.9574,2.7069,2.4904,2.3222,2.1676,2.1578,2.3047,1.8756,1.6292,1.5832,1.5832,1.5832,1.5832,1.5832,1.5832,1.5635,1.0863,0.8722,0.8821,1.0676,0.0,0.0,0.9797,1.1253,1.5337,1.0284,0.8237,0.8038,0.8233,0.8333,0.8233,0.0,0.0,0.0,0.0,0.0,0.0,1.8842,1.8831,1.904,2.0142,1.931,1.8422,1.7908,1.7055,1.6236,1.5468,0.0,0.0,0.0,0.0,0.0,0.0,0.0,0.0,0.0,0.0,0.0,1.9196,0.0,0.0,0.0,0.0,0.0,0.0,0.0,0.0,0.0,0.0,0.0,0.0,0.0,0.0,0.0,0.0,0.0,0.0,0.0,0.0,0.0,1.9361,1.9487,1.9866,2.0597,2.107,2.2056,2.5679,2.8386,3.0631,3.2748,3.4796,3.5661,3.3018,3.1035,2.8918,2.5793,2.3678,2.2186,2.1569,2.0991,2.0465,2.0035,1.9536,1.9294,1.9558,1.9003,1.9343,2.1635,2.2673,2.4309,2.7334,2.9,0.0,0.0,0.0,2.9033,2.693,2.4405,2.262,2.2031,2.0755,1.9579,1.8756,1.6835,1.5832,1.5832,1.5832,1.4172,1.1156,1.1156,1.1156,1.1063,1.0578,1.0092,0.96,0.9505,0.0,0.0,0.9213,0.9209,1.0867,0.8821,0.8038,0.8038,0.8038,0.8038,0.8038,0.0,0.0,0.0,0.0,0.0,1.7003,1.8486,1.8939,1.9393,2.0198,1.9375,1.8575,1.8197,1.6946,1.6024,1.5754,1.5524,0.0,0.0,0.0,0.0,0.0,0.0,0.0,0.0,0.0,1.9524,1.9168,2.0,0.0,0.0,0.0,0.0,0.0,0.0,0.0,0.0,0.0,0.0,0.0,0.0,0.0,0.0,0.0,0.0,0.0,0.0,0.0,0.0,0.0,0.0,1.8718,1.9555,1.9908,2.0679,2.4112,2.6676,2.8757,3.0613,3.2456,3.3332,3.1111,2.9509,2.7743,2.4938,2.3005,2.164,2.11,2.0492,1.9928,1.9507,1.8991,1.8584,1.843,1.7536,1.7611,1.9809,2.0585,2.2186,2.5512,0.0,2.8844,0.0,2.9214,2.7897,2.5031,2.294,2.163,2.1293,1.9464,1.7624,1.5785,1.5812,1.5832,1.5832,1.4268,1.1643,0.8038,0.8038,0.7952,0.8075,0.992,1.0395,0.9809,0.8538,0.0,0.0,0.8726,0.8038,0.8038,0.8038,0.8038,0.8038,0.8038,0.8038,0.8038,0.0,0.0,0.0,0.0,0.0,0.0,1.7687,1.8554,1.9396,2.0196,1.8845,1.812,1.8895,1.6792,1.563,1.6424,1.5825,0.0,0.0,0.0,0.0,0.0,0.0,0.0,0.0,0.0,2.0108,1.9091,1.9967,2.0369,2.0304,2.0087,0.0,0.0,0.0,0.0,0.0,0.0,0.0,0.0,0.0,0.0,0.0,0.0,0.0,0.0,0.0,0.0,0.0,0.0,0.0,0.0,0.0,1.9684,2.0543,0.0,2.4599,2.5717,2.7947,2.8362,2.8246,2.8456,2.648,2.4378,2.4069,2.1885,2.014,2.0844,2.0145,1.9323,1.8964,1.8401,1.7851,1.7288,1.6699,1.6752,1.8028,1.9833,2.1429,0.0,0.0,2.7509,2.7459,2.7853,2.7174,2.4957,2.37,0.0,2.1382,1.7757,1.5712,1.5691,1.5778,1.5832,1.5832,1.0672,0.8038,0.8038,0.8038,0.7979,0.7955,0.7999,0.8072,0.8072,0.0,0.0,0.0,0.8048,0.8038,0.8038,0.8038,0.8038,0.8038,0.8038,0.8038,0.8038,0.0,0.0,0.0,0.0,0.0,0.0,1.7612,1.7965,1.8241,1.8484,1.7587,1.701,1.726,1.6061,1.5349,1.565,1.5465,0.0,0.0,0.0,0.0,0.0,0.0,0.0,0.0,0.0,1.9238,2.005,2.028,2.0369,2.0304,2.0233,2.0079,1.9839,0.0,0.0,0.0,0.0,0.0,0.0,0.0,0.0,0.0,0.0,0.0,0.0,0.0,0.0,0.0,0.0,0.0,0.0,0.0,0.0,0.0,2.1742,2.3549,2.524,2.5447,2.6774,2.7843,2.6772,2.5857,2.4845,2.3432,2.1667,2.0433,2.0909,1.9302,1.7925,1.8242,1.7209,1.6273,1.6083,1.556,1.556,1.6638,1.8374,0.0,2.2493,2.5466,2.687,0.0,0.0,2.5199,2.3714,2.1719,0.0,1.8736,1.5994,1.4893,1.5712,1.401,1.3175,1.3108,0.9702,0.7965,0.8022,0.8022,0.8026,0.7831,0.4232,0.3515,0.0,0.0,0.0,0.0,0.4026,0.2516,0.2516,0.2516,0.2516,0.2516,0.2516,0.2516,0.2516,0.0,0.0,0.0,0.0,0.0,0.0,1.7176,1.7503,1.7702,1.7702,1.7003,1.6619,1.6926,1.5907,1.5465,1.6157,1.5937,0.0,0.0,0.0,0.0,0.0,0.0,0.0,0.0,1.8281,1.9121,2.0508,2.0433,2.0366,2.0304,2.0214,2.0079,1.9869,1.9774,0.0,0.0,0.0,0.0,0.0,0.0,0.0,0.0,0.0,0.0,0.0,0.0,0.0,0.0,0.0,0.0,0.0,0.0,0.0,0.0,0.0,2.1496,2.3289,2.3518,2.4733,2.57,2.4734,2.441,2.3981,2.261,2.1083,1.9958,2.0099,1.8182,1.6529,1.6775,1.5368,1.4267,1.4549,1.3847,1.3684,0.0,0.0,0.0,2.2044,0.0,0.0,0.0,2.387,2.3471,2.1854,0.0,0.0,1.78,1.4561,1.3136,1.4208,1.2721,1.1452,1.0413,0.6816,0.4937,0.4968,0.4964,0.496,0.4954,0.363,0.2815,0.0,0.0,0.0,0.0,0.222,-0.0,-0.0,-0.0,-0.0,-0.0,-0.0,-0.0,-0.0,0.0,0.0,0.0,0.0,0.0,0.0,0.0,1.7042,1.7523,1.7523,1.6869,1.6696,1.7446,1.6138,1.5849,1.7465,1.6946,0.0,0.0,0.0,0.0,0.0,0.0,0.0,1.7908,1.8691,1.9551,2.0508,2.0433,2.0366,2.0304,2.0115,2.0022,2.0003,1.9726,1.9582,0.0,0.0,0.0,0.0,0.0,0.0,0.0,0.0,0.0,0.0,0.0,0.0,0.0,0.0,0.0,0.0,0.0,0.0,0.0,0.0,0.0,0.0,0.0,2.2361,2.2304,2.2556,2.2446,2.218,2.1764,2.0274,0.0,1.8783,1.6891,1.5203,1.4929,1.3123,1.1974,1.2941,1.1824,1.1499,0.0,1.5446,0.0,0.0,2.3352,0.0,2.1226,2.1854,0.0,0.0,0.0,0.0,1.7486,1.2743,1.0327,1.0992,1.1049,1.0048,0.7992,0.2723,-0.0,-0.0,-0.0,-0.0,0.0202,0.475,0.4338,0.0,0.0,0.0,0.0,0.1513,-0.0505,-0.0303,-0.0303,-0.0303,-0.0303,-0.0101,-0.0202,-0.0606,0.0,0.0,0.0,0.0,0.0,0.0,0.0,0.0,0.0,0.0,1.5618,1.558,1.5772,1.5445,1.5638,0.0,0.0,0.0,0.0,0.0,0.0,0.0,0.0,0.0,1.7868,1.8106,1.8965,2.0508,2.0433,2.0385,2.0369,2.0288,2.0152,1.9984,1.9824,1.9411,0.0,0.0,0.0,0.0,0.0,0.0,0.0,0.0,0.0,0.0,1.7992,1.7839,0.0,0.0,0.0,0.0,0.0,0.0,0.0,0.0,1.8491,1.8961,1.967,0.0,2.1777,2.1832,2.2073,2.2282,0.0,2.0508,1.9039,1.9202,1.6532,1.4306,1.4667,1.2456,1.1112,1.2673,1.1995,1.1704,1.2954,0.0,0.0,2.0828,2.1161,2.05,1.8394,1.7451,0.0,0.0,0.0,1.0913,1.0416,0.6587,0.3818,0.283,0.283,0.4441,0.8012,0.2725,-0.0,-0.0,-0.0,-0.0,-0.0101,-0.2924,-0.2722,0.0,0.0,0.0,-0.4338,-0.5562,-0.4945,-0.3015,-0.3015,-0.3019,-0.2823,-0.0707,-0.2629,-0.609,0.0,0.0,0.0,0.0,0.0,0.0,0.0,0.0,0.0,0.0,1.5094,1.5101,1.5101,1.5152,1.5695,0.0,0.0,0.0,0.0,0.0,0.0,0.0,0.0,1.6881,1.7825,1.827,1.9156,2.0508,2.0453,2.0431,2.0408,2.0331,2.0241,2.0143,1.9909,1.9345,0.0,0.0,0.0,0.0,0.0,0.0,0.0,0.0,0.0,0.0,1.79,1.7811,0.0,1.7811,1.8065,1.8335,0.0,0.0,0.0,0.0,1.8,1.833,1.8032,1.9363,2.0849,2.0849,2.1427,2.1816,2.1114,1.9812,1.8509,1.7768,0.0,0.0,1.3563,1.131,0.9885,0.0,1.0577,0.0,0.0,0.0,1.663,1.7573,1.8382,1.8204,0.0,0.0,0.0,0.0,0.0,0.5799,0.4623,0.186,-0.0754,-0.3171,-0.3367,-0.156,0.2415,-0.0402,-0.1811,-0.181,-0.1811,-0.1812,-0.1913,-0.4839,-0.5247,0.0,0.0,0.0,-0.6261,-0.7494,-0.7178,-0.5839,-0.5834,-0.5842,-0.5648,-0.4227,-0.5543,-0.7999,0.0,0.0,0.0,0.0,0.0,0.0,0.0,0.0,0.0,0.0,0.0,0.0,0.0,0.0,0.0,0.0,0.0,0.0,0.0,0.0,0.0,0.0,0.0,1.7735,1.7985,1.8795,1.9634,2.0501,2.064,2.0667,2.0627,2.0685,2.0627,2.0458,1.9998,1.9392,0.0,0.0,0.0,0.0,0.0,0.0,0.0,0.0,0.0,0.0,0.0,0.0,0.0,1.7811,1.7879,1.7963,1.7845,0.0,0.0,0.0,0.0,0.0,1.6954,1.8084,1.9558,1.9842,2.0726,2.1175,1.9924,0.0,0.0,0.0,0.0,0.0,0.0,1.0188,0.0,0.0,0.0,0.0,1.0862,1.2157,1.3194,1.3924,1.4954,0.0,0.0,0.0,0.0,0.0,0.0,0.0276,-0.1291,-0.2693,-0.4591,-0.7305,-0.7879,-0.704,-0.4787,-0.47,-0.46,-0.4595,-0.4612,-0.4622,-0.4622,-0.462,-0.5839,-0.7885,0.0,0.0,-0.4822,-0.7062,-0.7985,-0.7982,-0.7972,-0.7972,-0.7979,-0.8048,-0.8038,-0.8038,0.0,0.0,0.0,0.0,0.0,0.0,0.0,0.0,0.0,0.0,0.0,0.0,0.0,0.0,0.0,0.0,0.0,0.0,0.0,0.0,0.0,1.8813,1.7497,1.7395,1.8864,1.9097,1.9625,2.0495,2.124,2.1601,2.1594,2.2273,2.2092,2.1193,2.0218,1.9543,1.9073,0.0,0.0,0.0,0.0,0.0,0.0,0.0,0.0,0.0,0.0,0.0,0.0,1.7811,1.8217,1.8623,1.8014,0.0,0.0,0.0,0.0,0.0,1.6741,1.6939,1.7562,1.9123,2.0305,2.1023,2.0799,1.9634,0.0,0.0,0.0,0.0,0.0,0.9977,0.8922,0.0,0.0,1.0478,0.0,0.0,1.2813,1.3496,0.0,0.0,0.0,0.0,0.0,0.0,0.0,-0.6802,-0.9754,-0.9556,-0.9186,-0.884,-0.975,-0.9762,-0.8483,-0.7714,-0.741,-0.741,-0.7422,-0.7372,-0.7372,-0.7363,-0.7572,-0.7989,0.0,-0.7359,-0.7463,-0.7872,-0.7965,-0.8048,-0.8045,-0.8045,-0.8045,-0.8041,-0.8038,-0.8038,0.0,0.0,0.0,0.0,0.0,0.0,0.0,0.0,0.0,0.0,0.0,0.0,0.0,0.0,0.0,0.0,0.0,0.0,0.0,0.0,1.6888,1.8953,1.8318,1.8261,1.903,2.003,2.0754,2.1144,2.2053,2.2258,2.1792,2.1653,2.1275,2.0677,2.0116,1.9613,1.9167,1.893,0.0,0.0,0.0,0.0,0.0,0.0,0.0,0.0,0.0,0.0,0.0,0.0,1.8031,1.8251,1.7912,0.0,0.0,0.0,0.0,0.0,1.7014,1.6965,1.7447,1.8275,1.9028,1.9374,1.8485,1.7147,0.0,0.0,0.0,0.0,0.0,0.0,0.8439,0.9589,0.0,0.866,0.8529,0.9728,0.9432,0.0,0.0,0.0,0.0,0.0,0.0,0.0,0.0,0.0,-1.0825,-1.0422,-1.0015,-0.9712,-1.024,-1.0289,-0.9777,-0.957,-0.928,-0.8806,-0.8118,-0.7909,-0.7959,-0.7974,-0.798,-0.7962,0.0,-0.7955,-0.7955,-0.7955,-0.8048,-0.8038,-0.8038,-0.8038,-0.8038,-0.8038,-0.8038,-0.8038,0.0,0.0,0.0,0.0,0.0,0.0,0.0,0.0,0.0,0.0,0.0,0.0,0.0,0.0,0.0,0.0,0.0,0.0,0.0,0.0,1.6996,1.8915,1.8857,1.8953,1.9319,2.0886,2.1619,2.143,2.2546,2.2752,2.2073,2.114,2.0618,2.0419,2.005,1.9675,1.9317,1.9014,1.8678,0.0,0.0,0.0,0.0,0.0,0.0,0.0,0.0,0.0,0.0,0.0,0.0,0.0,0.0,0.0,0.0,1.7831,1.8447,1.9246,1.773,1.7524,1.7697,1.7697,1.802,1.8036,1.6754,1.5249,0.0,0.0,0.0,0.0,0.0,0.8346,0.0,0.7236,0.7295,0.6658,0.4751,0.0,0.0,0.0,0.0,0.0,0.0,0.0,0.0,0.0,0.0,0.0,-1.126,-1.1237,-1.1134,-1.1161,-1.1413,-1.1413,-1.1166,-1.1348,-1.0826,-0.9772,-0.8839,-0.8562,-0.8702,-0.8571,-0.8508,-0.8375,-0.8375,-0.8202,-0.8038,-0.8038,-0.8038,-0.8038,-0.8038,-0.8038,-0.8038,-0.8038,-0.8038,-0.8038,0.0,0.0,0.0,0.0,0.0,0.0,0.0,0.0,0.0,0.0,0.0,0.0,0.0,0.0,0.0,0.0,0.0,0.0,0.0,0.0,1.6275,1.8895,1.8222,1.8581,2.0254,2.1216,2.1339,2.0585,2.2277,2.3076,2.2982,2.2051,2.156,2.1451,2.0304,1.979,1.9719,1.8961,1.8622,1.8528,0.0,0.0,0.0,0.0,0.0,0.0,0.0,0.0,0.0,0.0,0.0,0.0,0.0,0.0,1.8539,1.9061,1.8802,1.847,1.9059,1.8461,1.7697,1.7697,1.7973,1.8143,1.7832,1.6244,0.0,1.3504,0.0,0.0,0.0,0.8152,0.7633,0.5849,0.7037,0.6291,0.1182,0.0,0.0,0.0,0.0,0.0,0.0,0.0,0.0,0.0,0.0,0.0,-1.4358,-1.5088,-1.505,-1.4023,-1.4996,-1.5073,-1.4023,-1.3434,-1.2312,-1.0731,-1.0817,-1.0828,-1.0857,-1.0842,-1.03,-0.936,-0.936,-0.8874,-0.8038,-0.8038,-0.8038,-0.8038,-0.8038,-0.8038,-0.8038,-0.8038,-0.8038,-0.8038,0.0,0.0,0.0,0.0,0.0,0.0,0.0,0.0,0.0,0.0,0.0,0.0,0.0,0.0,0.0,0.0,0.0,0.0,0.0,1.7166,1.7246,1.8805,1.8682,1.9123,2.0312,2.1183,2.1519,2.1317,2.197,2.2491,2.2884,2.145,2.0948,2.1228,2.0161,1.9684,1.9643,1.9081,1.8752,1.8566,1.8187,0.0,0.0,0.0,0.0,0.0,0.0,0.0,0.0,0.0,1.7126,1.732,1.7439,1.7741,1.8022,1.7834,1.8327,1.8856,1.8446,1.8341,1.8328,1.8328,1.7729,0.0,0.0,1.4666,1.2367,1.127,0.8896,0.0,0.0,0.0,0.3451,0.3788,0.3563,0.1624,0.0,0.0,0.0,0.0,0.0,0.0,0.0,0.0,0.0,0.0,0.0,0.0,-1.5209,-1.5397,-1.5357,-1.5103,-1.5509,-1.5509,-1.5111,-1.4996,-1.4655,-1.4001,-1.1871,-1.0915,-1.1079,-1.095,-1.0736,-1.0478,-1.0698,-1.0036,-0.8968,-0.917,-0.8726,-0.8038,-0.8038,-0.8038,-0.8137,-0.9209,-0.892,-0.8428,0.0,0.0,0.0,0.0,0.0,0.0,0.0,0.0,0.0,0.0,0.0,0.0,0.0,0.0,0.0,0.0,0.0,0.0,1.8109,1.7454,1.7338,1.7973,1.8179,1.8789,1.9892,2.0482,2.0824,2.0943,2.0952,2.1301,2.1943,2.074,2.0476,2.1017,2.0033,1.9697,1.9818,1.9158,1.8715,1.845,1.8187,1.7971,0.0,0.0,0.0,0.0,0.0,0.0,0.0,0.0,1.6799,1.6986,1.7101,1.7326,1.7498,1.7241,1.7619,1.8082,1.794,1.7981,1.8018,1.789,0.0,0.0,1.5443,1.3244,1.1049,0.935,0.6313,0.0,0.0,0.0,0.0,0.0,-0.0926,0.0,0.0,0.0,0.0,0.0,0.0,0.0,0.0,0.0,0.0,0.0,0.0,0.0,0.0,-1.6333,-1.6596,-1.6786,-1.6795,-1.6661,-1.6329,-1.6334,-1.6288,-1.6296,-1.3709,-1.2443,-1.2357,-1.2353,-1.2104,-1.1535,-1.1789,-1.1155,-1.0013,-1.0245,-0.9854,-0.9135,-0.9193,-0.9213,-0.941,-1.0578,-1.0288,-0.9702,0.0,0.0,0.0,0.0,0.0,0.0,0.0,0.0,0.0,0.0,0.0,0.0,0.0,0.0,0.0,0.0,0.0,0.0,1.7356,1.6554,1.6186,1.6334,1.6457,1.7336,1.9081,1.9035,1.9035,1.91,1.9105,1.9484,2.0221,2.0139,2.0421,2.0954,2.0017,1.9893,2.0319,1.9111,1.845,1.8166,1.7905,1.7811,0.0,0.0,0.0,0.0,0.0,0.0,0.0,0.0,1.6301,1.6355,1.6686,0.0,1.6933,1.7658,1.6648,1.5743,1.7807,1.7545,1.6578,0.0,0.0,0.0,1.3621,1.2236,1.1179,0.8239,0.0,0.1617,-0.1075,0.0,0.0,0.0,0.0,0.0,0.0,0.0,0.0,0.0,0.0,0.0,0.0,0.0,0.0,0.0,0.0,0.0,0.0,-1.8537,-1.9288,-1.9288,-1.9288,-1.8911,-1.8008,-1.7346,-1.7027,-1.7045,-1.6809,-1.615,-1.5152,-1.5554,-1.4599,-1.2633,-1.2633,-1.2059,-1.1079,-1.1084,-1.1306,-1.1522,-1.1753,-1.1945,-1.1945,-1.1945,-1.1945,-1.1945,0.0,0.0,0.0,0.0,0.0,0.0,0.0,0.0,0.0,0.0,0.0,0.0,0.0,0.0,0.0,0.0,0.0,0.0,1.7879,1.72,1.7382,1.8712,1.7801,1.811,1.9911,1.8774,1.873,1.9931,1.9994,2.0338,2.0967,2.0225,2.0245,2.0807,1.9837,1.9479,1.9586,1.8878,1.8547,1.845,1.7992,1.7811,0.0,0.0,0.0,0.0,0.0,0.0,0.0,0.0,0.0,0.0,1.6436,0.0,1.5769,1.6545,1.6144,1.5556,1.6157,1.56,0.0,1.3077,0.0,0.0,0.0,1.0302,0.0,0.0,-0.0471,-0.3421,-0.4782,0.0,0.0,0.0,0.0,0.0,0.0,0.0,0.0,0.0,0.0,0.0,0.0,0.0,0.0,0.0,0.0,0.0,0.0,-1.8765,-1.92,-1.9539,-1.9613,-1.9661,-1.9814,-1.9014,-1.8612,-1.8622,-1.8204,-1.742,-1.6237,-1.6597,-1.6072,-1.4754,-1.497,-1.398,-1.2132,-1.1389,-1.1124,-1.1189,-1.1351,-1.1572,-1.1925,-1.2284,-1.3389,-1.4663,0.0,0.0,0.0,0.0,0.0,0.0,0.0,0.0,0.0,0.0,0.0,0.0,0.0,0.0,0.0,0.0,0.0,0.0,0.0,1.7293,1.7606,1.8771,1.7786,1.7756,1.8919,1.8851,1.9132,1.9821,1.9526,1.9694,2.0335,1.9971,2.0183,2.0835,1.9775,1.9455,1.9696,1.9039,1.8641,1.8445,1.8409,1.8155,1.7822,0.0,0.0,0.0,0.0,0.0,0.0,0.0,0.0,0.0,1.608,0.0,1.5389,1.5467,1.4768,1.398,1.4052,1.3588,0.0,0.9425,0.598,0.2741,0.0541,0.0,0.0,0.0,0.0,-0.6615,-0.862,-0.9721,0.0,0.0,0.0,0.0,0.0,0.0,0.0,0.0,0.0,0.0,0.0,0.0,0.0,0.0,0.0,0.0,0.0,-1.9342,-1.9593,-1.989,-1.9901,-1.9928,-1.9923,-1.9369,-1.9276,-1.9469,-1.9028,-1.8479,-1.7997,-1.7813,-1.7111,-1.6071,-1.5794,-1.5021,-1.3793,-1.2839,-1.2412,-1.2423,-1.2609,-1.2876,-1.3277,-1.3543,-1.4633,-1.5832,0.0,0.0,0.0,0.0,0.0,0.0,0.0,0.0,0.0,0.0,0.0,0.0,0.0,0.0,0.0,0.0,0.0,0.0,0.0,0.0,1.7079,1.729,1.6905,1.6818,1.7093,1.9054,1.9747,1.9107,1.8379,1.8371,1.9035,1.958,2.0198,2.0853,1.9792,1.9706,2.026,1.9374,1.8715,1.8281,1.8953,1.8618,1.7788,1.8162,0.0,0.0,0.0,0.0,0.0,0.0,0.0,0.0,1.5799,1.5741,1.5491,1.463,1.3048,1.1668,1.1918,1.1347,0.0,0.5167,0.0657,0.0,-0.9197,-0.7206,-0.5494,-1.006,0.0,-0.8784,-1.2377,-1.303,0.0,0.0,0.0,0.0,0.0,0.0,0.0,0.0,0.0,0.0,0.0,0.0,0.0,0.0,0.0,0.0,0.0,-1.9889,-2.0094,-2.0141,-2.0201,-1.9878,-1.9149,-1.903,-1.9253,-1.9761,-1.9276,-1.9358,-1.9939,-1.8898,-1.7828,-1.6723,-1.5674,-1.5463,-1.5764,-1.4935,-1.4649,-1.4589,-1.4865,-1.499,-1.5137,-1.5137,-1.5431,-1.5832,0.0,0.0,0.0,0.0,0.0,0.0,0.0,0.0,0.0,0.0,0.0,0.0,0.0,0.0,0.0,0.0,0.0,0.0,0.0,0.0,1.6361,1.7188,1.7321,1.7753,1.853,1.8412,1.8588,1.9098,1.953,1.9842,2.0007,1.9974,2.0058,2.02,1.9738,1.962,1.9736,1.9223,1.8807,1.8506,1.8464,1.8007,1.7408,1.7485,1.7615,0.0,0.0,0.0,0.0,0.0,0.0,0.0,1.5799,1.5329,1.4786,1.4902,1.34,1.1633,1.1144,0.7953,0.0,0.0,-0.7077,-1.3207,-1.3825,-1.4479,-1.4904,-1.4593,-1.324,-1.2732,-1.4635,-1.4656,0.0,0.0,0.0,0.0,0.0,0.0,0.0,0.0,0.0,0.0,0.0,0.0,0.0,0.0,0.0,0.0,-1.9094,-1.9218,-1.9465,-1.9874,-2.0374,-2.0686,-2.0937,-2.0284,-1.9983,0.0,-1.9298,-1.9438,-2.0249,-1.9413,-1.8508,-1.7459,-1.6657,-1.6428,-1.6445,-1.5749,-1.5482,-1.5405,-1.4576,-1.4302,-1.4335,-1.4335,-1.497,-1.5832,0.0,0.0,0.0,0.0,0.0,0.0,0.0,0.0,0.0,0.0,0.0,0.0,0.0,0.0,0.0,0.0,0.0,0.0,0.0,1.6151,1.6017,1.6743,1.7319,1.7768,1.7984,1.8246,1.8631,1.9138,1.9929,2.011,1.9731,1.9906,1.9993,2.0003,1.9713,1.9523,1.9387,1.9117,1.877,1.8423,1.8817,1.8299,1.7338,1.7694,1.7507,1.7015,1.6507,0.0,0.0,0.0,0.0,0.0,0.0,0.0,1.4972,1.4254,1.3064,1.171,1.0297,0.0,0.0,-0.8634,0.0,-1.7773,-1.792,-1.845,-1.8577,-1.7437,-1.6157,-1.554,-1.6468,0.0,0.0,0.0,0.0,0.0,0.0,0.0,0.0,0.0,0.0,0.0,0.0,0.0,0.0,0.0,0.0,-1.8329,-1.8618,-1.8631,-1.8882,-1.9409,-1.9723,-2.0137,-2.0677,-2.0219,-2.0177,-2.0446,-1.9562,-1.9313,-1.9658,-1.9619,-1.9206,-1.8387,-1.7327,-1.6978,-1.7081,-1.6173,-1.5849,-1.5792,-1.5486,-1.5248,-1.5144,-1.5144,-1.506,-1.5077,0.0,0.0,0.0,0.0,0.0,0.0,0.0,0.0,0.0,0.0,0.0,0.0,0.0,0.0,0.0,0.0,0.0,0.0,0.0,1.5956,1.5695,1.6036,1.6818,1.7163,1.7042,1.8184,1.8987,1.9405,2.0004,2.0048,1.9569,1.9868,1.9993,2.0003,1.9713,1.9448,1.9201,1.9049,1.8768,1.846,1.9209,1.8676,1.7469,1.7934,1.7384,1.6345,1.6265,1.6116,1.5977,1.6154,0.0,0.0,0.0,0.0,1.5139,1.3356,1.2357,1.1372,0.9029,0.0,-0.5243,-1.6263,-1.9166,0.0,-2.0512,-2.0135,-1.9471,-1.9053,-1.8138,-1.7488,-1.7898,0.0,0.0,0.0,0.0,0.0,0.0,0.0,0.0,0.0,0.0,0.0,0.0,0.0,0.0,0.0,0.0,-1.7953,-1.8053,-1.8066,-1.8279,-1.8731,-1.8783,-1.9133,-1.966,-1.966,-1.9962,-2.0514,-1.9928,-1.9387,-1.9011,-1.9501,-1.9534,-1.9078,-1.7847,-1.7524,-1.7759,-1.6749,-1.6304,-1.6337,-1.6481,-1.6429,-1.6277,-1.6503,-1.5801,-1.4803,0.0,0.0,0.0,0.0,0.0,0.0,0.0,0.0,0.0,0.0,0.0,1.527,1.4579,1.5735,0.0,0.0,0.0,0.0,1.5839,0.0,0.0,1.5085,1.5266,1.6065,1.7561,1.7779,1.8645,2.0242,2.0286,2.0696,0.0,0.0,1.9993,2.0003,1.9713,1.9448,1.9201,1.9049,1.9051,1.9122,1.8612,1.8185,1.7754,1.7221,1.6868,1.6593,1.6052,1.6158,1.6502,1.6036,1.5566,0.0,0.0,0.0,1.3927,1.2815,1.156,0.9838,0.648,0.0,-1.0688,0.0,-1.8616,-1.9381,0.0,0.0,-1.9412,0.0,-1.8622,-1.8145,0.0,0.0,0.0,0.0,0.0,0.0,0.0,0.0,0.0,0.0,0.0,0.0,0.0,0.0,0.0,0.0,-1.6986,-1.6961,-1.7463,-1.7488,-1.7526,-1.7601,-1.8066,-1.8581,-1.912,-1.9133,-1.9397,-1.9924,-2.0307,-2.0122,-1.935,-1.9242,-1.9003,-1.8616,-1.8459,-1.845,-1.8456,-1.7779,-1.7468,-1.7402,-1.6438,-1.6293,-1.673,-1.77,-1.7585,-1.7204,0.0,0.0,0.0,0.0,0.0,0.0,0.0,0.0,0.0,0.0,0.0,1.623,1.5881,1.6487,0.0,0.0,0.0,0.0,1.5068,1.4892,0.0,1.4785,1.5361,1.63,1.7623,1.8094,1.8981,2.035,2.0312,0.0,0.0,2.0903,2.1009,0.0,2.0703,2.0187,1.9735,1.9488,1.9356,1.9324,1.945,1.895,1.8199,1.8257,1.7508,1.6423,1.6083,1.6275,1.6546,1.5442,1.5151,1.5145,1.4324,0.0,0.0,0.0,1.0405,0.8371,0.227,-0.6032,-1.3605,0.0,-1.7893,-1.8979,-1.9355,0.0,-1.9059,-1.878,-1.828,-1.8165,0.0,0.0,0.0,0.0,0.0,0.0,0.0,0.0,0.0,0.0,0.0,0.0,0.0,0.0,0.0,0.0,-1.666,-1.6635,-1.6886,-1.6898,-1.7049,-1.7375,-1.7614,-1.8003,-1.8555,-1.8568,-1.8832,-1.9371,-1.9924,-2.0005,-1.958,-1.8931,-1.8431,-1.8072,-1.7979,-1.7939,-1.7901,-1.7891,-1.7849,-1.7868,-1.756,-1.7596,-1.7879,-1.8609,-1.9044,-1.9274,0.0,0.0,0.0,0.0,0.0,0.0,0.0,0.0,0.0,0.0,0.0,0.0,1.684,0.0,0.0,0.0,0.0,0.0,1.4836,0.0,0.0,0.0,0.0,1.6745,1.7884,1.855,1.9347,2.0331,0.0,0.0,2.0763,2.1297,2.1881,0.0,2.1482,2.0752,0.0,0.0,0.0,1.932,1.9471,1.9072,1.8388,1.8275,1.7404,1.6237,1.5686,1.5779,0.0,0.0,0.0,0.0,0.0,0.0,0.0,0.0,0.0,0.0,0.0,0.0,-1.462,-1.5756,-1.6975,-1.7914,0.0,0.0,-1.805,0.0,-1.7651,0.0,0.0,0.0,0.0,0.0,0.0,0.0,0.0,0.0,0.0,0.0,0.0,0.0,0.0,0.0,0.0,0.0,-1.6795,-1.6752,-1.6909,-1.6637,-1.6753,-1.7359,-1.7238,-1.7438,-1.799,-1.8129,-1.848,-1.8983,-1.9422,-1.9673,-1.9759,-1.8846,-1.8154,-1.7719,-1.741,-1.7285,-1.7402,-1.7715,-1.791,-1.8037,-1.8359,-1.8545,-1.8601,-1.9004,-1.9551,-2.0176,0.0,0.0,0.0,0.0,0.0,0.0,0.0,0.0,0.0,0.0,0.0,0.0,0.0,0.0,0.0,0.0,0.0,0.0,0.0,0.0,0.0,0.0,0.0,0.0,1.8697,1.8969,1.9504,2.0389,0.0,0.0,2.1736,2.1705,2.2051,2.2624,2.1435,2.0751,2.042,0.0,0.0,0.0,0.0,1.7484,1.8159,1.5829,1.5521,1.6077,1.4509,0.0,0.0,0.0,0.0,0.0,1.1912,0.9734,0.6468,0.0,0.0,0.0,0.0,-1.025,0.0,-1.4903,-1.5751,0.0,0.0,0.0,0.0,0.0,-1.6862,0.0,0.0,0.0,0.0,0.0,0.0,0.0,0.0,0.0,0.0,0.0,0.0,0.0,0.0,0.0,0.0,0.0,-1.7544,-1.7463,-1.7987,-1.7034,-1.6765,-1.7282,-1.6803,-1.6835,-1.7426,-1.794,-1.848,-1.8983,-1.9008,-1.9334,-1.9747,-1.9016,-1.8278,-1.759,-1.6982,-1.7002,-1.7383,-1.7402,-1.7656,-1.8008,-1.8037,-1.8281,-1.8562,-1.8662,-1.8799,-1.9121,0.0,0.0,0.0,0.0,0.0,0.0,0.0,0.0,0.0,0.0,0.0,0.0,0.0,1.8128,1.7896,1.689,1.6378,0.0,0.0,0.0,0.0,0.0,0.0,0.0,0.0,1.9488,1.9997,0.0,0.0,2.0646,2.0989,2.1563,2.1904,2.2022,2.1464,2.1044,2.0737,2.064,0.0,0.0,0.0,1.9167,1.7757,1.7678,1.6812,1.5584,0.0,0.0,0.0,0.0,0.0,0.0,0.6671,0.458,0.202,0.0204,-0.3267,-0.681,0.0,0.0,0.0,-1.3645,-1.4233,-1.4568,-1.4559,-1.5225,-1.5826,-1.5765,-1.6128,0.0,0.0,0.0,0.0,0.0,0.0,0.0,0.0,0.0,0.0,0.0,0.0,0.0,0.0,0.0,0.0,0.0,0.0,-1.7907,-1.8106,-1.7435,-1.7118,-1.7312,-1.6795,-1.6622,-1.6823,-1.7388,-1.7777,-1.7978,-1.8694,-1.912,-1.9258,-1.8899,-1.8286,-1.7545,-1.6896,-1.6718,-1.6963,-1.6963,-1.7383,-1.7978,-1.7715,-1.7861,-1.8232,-1.8232,-1.8506,-1.8887,0.0,0.0,0.0,0.0,0.0,0.0,0.0,0.0,0.0,1.8508,0.0,0.0,0.0,0.0,1.7766,1.6975,1.6849,1.6837,1.6897,1.7304,0.0,0.0,0.0,0.0,0.0,1.9964,2.0331,0.0,0.0,0.0,0.0,2.107,2.1318,2.121,2.1031,2.0956,0.0,0.0,0.0,1.9497,0.0,0.0,1.7462,1.7066,1.5988,1.453,0.0,0.0,0.0,0.0,0.0,0.0,0.2003,-0.0645,-0.3283,-0.4378,-0.6901,-0.9482,-0.9993,0.0,0.0,0.0,0.0,-1.3895,-1.4031,0.0,-1.4908,-1.5023,-1.4993,-1.5073,0.0,0.0,0.0,0.0,0.0,0.0,0.0,0.0,0.0,0.0,0.0,0.0,0.0,0.0,0.0,0.0,0.0,0.0,-1.8612,-1.7947,-1.7504,-1.7312,-1.6951,-1.668,-1.6522,-1.6898,-1.7187,-1.7388,-1.8129,-1.8668,-1.8983,-1.8633,-1.8283,-1.7895,-1.6922,-1.6555,-1.6719,-1.6572,-1.71,-1.7969,-1.7549,-1.7637,-1.8008,-1.8008,-1.8252,-1.8535,0.0,0.0,0.0,0.0,0.0,0.0,0.0,0.0,1.8489,1.8229,0.0,0.0,0.0,0.0,0.0,1.6003,1.6851,1.7506,1.7707,1.7921,0.0,0.0,0.0,0.0,0.0,2.04,2.0464,2.039,2.0408,2.0359,2.0311,2.0286,2.0292,2.0271,2.0142,2.044,2.0972,0.0,1.9372,1.8805,0.0,1.6713,1.7221,0.0,0.0,0.0,0.8851,0.6336,0.0,0.3254,0.0,0.0,0.0,-0.5579,-0.9174,-0.9259,-1.0349,-1.1772,0.0,0.0,0.0,0.0,0.0,0.0,-1.2991,0.0,-1.3321,-1.368,-1.3521,-1.3592,0.0,0.0,0.0,0.0,0.0,0.0,0.0,0.0,0.0,0.0,0.0,0.0,0.0,0.0,0.0,0.0,-1.8841,-1.9169,-1.969,-1.8688,-1.7854,-1.7327,-1.7299,-1.7034,-1.6522,-1.6522,-1.6798,-1.735,-1.7375,-1.794,-1.8933,-1.8234,-1.8191,-1.8561,-1.7169,-1.6593,-1.666,-1.6221,-1.6816,-1.7949,-1.7529,-1.7627,-1.8008,-1.8008,-1.8008,-1.8008,0.0,0.0,0.0,0.0,0.0,1.8249,1.8057,1.8187,1.8208,0.0,0.0,0.0,1.7927,1.7718,1.741,1.6954,1.7573,1.8078,1.8341,1.877,1.9258,1.9796,1.9918,2.0121,2.0416,2.0468,2.0495,2.0479,2.0337,2.026,2.0221,2.0122,2.0056,2.0003,1.9776,1.9549,1.9402,1.9957,0.0,1.843,1.8653,1.7333,0.0,0.0,0.0,0.0,0.0,0.2179,0.0074,0.0,-0.2514,-0.5449,0.0,0.0,-1.0421,-1.0809,-1.2048,-1.3363,-1.3918,0.0,0.0,0.0,0.0,0.0,0.0,0.0,0.0,-1.3034,-1.3168,-1.3394,0.0,0.0,0.0,0.0,0.0,0.0,0.0,0.0,0.0,0.0,0.0,0.0,0.0,0.0,0.0,0.0,-1.9194,-1.953,-1.969,-1.9043,-1.8208,-1.7202,-1.725,-1.7229,-1.7076,-1.668,-1.6597,-1.676,-1.7187,-1.7539,-1.7852,-1.8039,-1.7676,-1.69,-1.7317,-1.6851,-1.5771,-1.5644,-1.6367,-1.751,-1.708,-1.7363,-1.8008,-1.8008,-1.8008,-1.8008,0.0,0.0,0.0,1.7004,1.7429,1.7783,1.7618,1.7844,1.7927,0.0,0.0,0.0,1.7612,1.7595,1.7526,1.732,1.7738,1.8187,1.8584,1.9,1.9452,1.9913,2.021,2.041,2.05,2.048,2.043,2.0427,2.0139,2.0028,2.011,1.9751,1.9548,1.9472,1.9141,1.8592,1.7951,1.8741,1.8621,0.0,1.7855,0.0,0.0,1.327,0.9724,0.0,0.0,0.0,-0.4645,-0.4538,-0.5994,0.0,0.0,-1.0563,-1.1507,-1.2282,-1.3651,-1.4927,-1.5181,-1.4979,0.0,0.0,0.0,0.0,-1.2464,-1.2463,0.0,0.0,-1.2375,-1.2575,-1.2999,-1.2567,0.0,0.0,0.0,0.0,0.0,0.0,0.0,0.0,0.0,0.0,0.0,-1.7249,-1.7861,-1.7861,-1.8493,-1.8867,-1.8867,-1.911,-1.8679,-1.7483,-1.7788,-1.7747,-1.7312,-1.6993,-1.671,-1.6522,-1.6861,-1.7149,-1.7388,-1.7424,-1.7135,-1.665,-1.6735,-1.6288,-1.5572,-1.5261,-1.5918,-1.709,-1.6836,-1.7148,-1.7773,-1.7949,-1.8008,-1.8008,0.0,0.0,1.7183,1.7248,1.7248,1.7264,1.7346,1.7552,1.7639,0.0,1.7799,1.7823,1.7453,1.7429,1.742,1.7314,1.7642,1.8039,1.8528,1.8833,1.9295,1.996,2.0184,2.0353,2.0485,2.0398,2.0326,2.0218,1.9828,1.9731,1.9855,1.924,1.8901,1.8799,1.8288,1.7534,1.6636,1.6816,1.697,1.6984,1.5611,1.5363,0.0,0.0,0.4821,0.2902,-0.4073,-0.7748,-0.9245,-0.9062,-0.8709,0.0,0.0,-1.124,-1.2491,-1.3474,-1.4947,0.0,-1.6324,-1.6313,0.0,0.0,0.0,0.0,-1.3139,-1.2381,-1.1783,0.0,0.0,-1.148,-1.2423,-1.1802,0.0,0.0,0.0,0.0,0.0,0.0,0.0,0.0,0.0,0.0,-1.5784,-1.6338,-1.6712,-1.6712,-1.7324,-1.7652,-1.7578,-1.8867,-1.9078,-1.7906,-1.8533,-1.8419,-1.7394,-1.7353,-1.7034,-1.6522,-1.6522,-1.6785,-1.7287,-1.6614,-1.6622,-1.7051,-1.5886,-1.5531,-1.5785,-1.5219,-1.5595,-1.666,-1.666,-1.6924,-1.7363,-1.7783,-1.791,-1.7871,0.0,1.6686,1.6581,1.6866,1.6917,1.7085,1.762,1.7297,1.7474,1.8815,1.9042,1.8811,1.8102,1.8292,1.8187,1.738,1.7844,1.8188,1.8197,1.8695,1.9295,1.996,2.0184,2.0312,2.0326,2.0215,1.9988,1.9667,1.9423,1.921,1.9029,1.8788,1.8535,1.82,1.7166,1.6287,1.5564,1.5067,1.4771,1.461,1.4788,0.0,1.0056,0.6636,0.1323,-0.5033,-1.0618,-1.2722,-1.2729,-1.1868,-1.0702,-0.9701,0.0,-1.1723,-1.3481,-1.3544,-1.4921,-1.6489,-1.6664,0.0,0.0,0.0,0.0,0.0,-1.2667,-1.2076,-1.1659,0.0,-1.1173,-1.1281,-1.1274,-1.1097,-1.1038,0.0,0.0,0.0,0.0,0.0,0.0,0.0,0.0,0.0,-1.5754,-1.6338,-1.6712,-1.6712,-1.7324,-1.7458,-1.6936,-1.8179,-1.8563,-1.7759,-1.8484,-1.8574,-1.7947,-1.7504,-1.7034,-1.6522,-1.6522,-1.6572,-1.6685,-1.6542,-1.6272,-1.5966,-1.6662,-1.6373,-1.5444,-1.58,-1.6053,-1.6191,-1.6191,-1.6465,-1.6914,-1.7344,-1.7285,-1.7031,1.6181,1.5905,1.5707,1.5862,1.589,1.6011,1.6346,1.6452,1.6743,1.7432,1.8015,1.8197,1.7788,1.8203,1.8385,1.8113,1.8718,1.9046,1.8912,1.9464,1.9862,1.9979,2.0184,2.0277,2.0249,2.0024,1.975,1.9452,1.8851,1.8645,1.8785,1.8045,1.7759,1.7761,1.5983,1.4252,1.2645,1.3337,1.3357,1.3031,1.4041,0.0,0.7123,0.3781,-0.1127,-0.6984,-1.2835,-1.4788,-1.4397,-1.3052,-1.1902,0.0,0.0,-1.1664,-1.3918,0.0,-1.5409,-1.7365,-1.7432,0.0,0.0,-1.5918,0.0,0.0,0.0,-1.2214,-1.2089,-1.3118,-1.224,-1.1279,-1.1347,0.0,-1.1907,0.0,0.0,0.0,0.0,0.0,0.0,0.0,0.0,0.0,-1.5244,-1.5702,-1.6034,-1.6234,-1.6831,-1.7055,-1.6726,-1.7637,-1.8208,-1.8208,-1.8579,-1.8687,-1.8496,-1.7987,-1.7422,-1.6909,-1.6637,-1.6522,-1.6522,-1.6522,-1.6194,-1.5644,-1.6256,-1.6043,-1.5293,-1.5301,-1.5615,-1.6011,-1.585,-1.6006,-1.6445,-1.6894,-1.6924,-1.6758,1.5198,1.4886,1.4567,1.4491,1.446,1.4533,1.4752,1.533,1.5721,1.5698,1.6769,1.751,1.7465,1.7838,1.8253,1.8658,1.917,1.9542,1.9659,2.0091,2.0326,2.0323,2.0301,2.0262,2.0176,1.9823,1.9488,1.9144,1.8284,1.8049,1.8391,1.7228,1.6821,1.7001,1.4935,1.2514,1.0014,0.0,0.0,1.1952,0.0,1.0575,0.4841,0.0541,-0.3601,-0.7837,-1.3467,-1.5366,-1.5021,-1.3774,-1.2901,-1.2065,-1.0464,-1.1976,0.0,0.0,0.0,0.0,0.0,0.0,0.0,0.0,0.0,-1.4483,0.0,0.0,0.0,-1.4971,0.0,0.0,0.0,0.0,0.0,0.0,0.0,0.0,0.0,0.0,0.0,0.0,0.0,0.0,-1.489,-1.5298,-1.5591,-1.5782,-1.6308,-1.6638,-1.6712,-1.7339,-1.7996,-1.8687,-1.8837,-1.8838,-1.8765,-1.8419,-1.7867,-1.7146,-1.6795,-1.6595,-1.6522,-1.6522,-1.6238,-1.5764,-1.5764,-1.569,-1.547,-1.4886,-1.5121,-1.5807,-1.5346,-1.5488,-1.6049,-1.6309,-1.6475,-1.6494,1.3756,1.3526,1.3019,1.2589,1.2521,1.2852,1.3873,1.4067,1.4548,1.5869,1.7348,1.8237,1.8099,1.7896,1.7807,1.792,1.7975,0.0,1.9527,1.9408,1.9931,2.1434,2.0733,2.0243,2.0119,1.9657,1.9054,1.8233,1.7881,1.7472,1.7019,1.6528,1.5897,1.5168,1.4245,0.0,0.0,0.0,1.0132,0.0,1.333,0.9431,0.0,-0.2293,-0.7174,-1.2043,-1.4329,-1.5042,-1.4863,0.0,-1.42,-1.3063,0.0,-1.3619,-1.506,-1.5045,0.0,0.0,0.0,0.0,0.0,0.0,-1.6744,0.0,0.0,0.0,-1.4022,-1.4031,0.0,0.0,0.0,0.0,0.0,0.0,0.0,0.0,0.0,0.0,0.0,0.0,0.0,0.0,0.0,-1.6219,-1.6396,-1.5841,-1.6128,-1.6462,-1.6682,-1.7339,-1.7996,-1.8687,-1.9271,-1.9133,-1.8224,-1.8612,-1.8066,-1.6595,-1.6993,-1.6951,-1.6522,-1.6522,-1.6466,-1.638,-1.638,-1.6374,-1.6337,-1.5727,-1.5429,-1.5306,-1.4548,-1.4859,-1.5745,-1.5575,-1.5566,-1.5615,1.2341,1.1612,1.0735,1.0561,1.0524,1.0772,1.1568,1.2879,1.4195,1.5261,1.6916,1.8007,0.0,0.0,0.0,0.0,0.0,2.0065,0.0,0.0,2.1375,2.2192,2.1393,2.0871,2.0684,1.9604,1.8732,1.8087,1.7489,1.6928,1.6438,1.5562,1.4843,1.4211,1.2789,0.0,0.7916,0.0,0.8412,0.0,0.0,0.0,0.0,-0.2859,-0.9262,-1.5674,-1.6748,-1.7084,-1.7,0.0,-1.6263,0.0,0.0,0.0,0.0,0.0,0.0,0.0,0.0,0.0,0.0,0.0,0.0,0.0,-1.6795,0.0,-1.4187,0.0,0.0,0.0,0.0,0.0,0.0,0.0,-1.2938,0.0,0.0,0.0,0.0,0.0,0.0,0.0,0.0,0.0,0.0,0.0,-1.6219,-1.6427,-1.6682,-1.698,-1.7593,-1.8672,-1.8972,-1.9108,-1.9043,-1.8612,-1.8106,-1.7435,-1.7034,-1.671,-1.6522,-1.6522,-1.6522,-1.6522,-1.6522,-1.6522,-1.6466,-1.5864,-1.5527,-1.5372,-1.4321,-1.4255,-1.477,-1.4995,-1.5049,-1.5107,1.0532,0.0,0.8771,0.8494,0.8456,0.8876,0.9992,1.2106,1.3887,1.4582,1.6646,0.0,1.8228,1.9201,0.0,0.0,2.0247,2.0521,0.0,0.0,2.2569,2.3354,2.2321,2.1316,2.0445,1.9482,1.8494,1.7468,1.669,1.594,1.5315,1.4169,1.3494,1.3178,1.1729,0.9498,0.693,0.0,0.8135,0.8256,0.9953,0.7753,0.2579,-0.5197,-1.1995,-1.7424,-1.7986,-1.8257,-1.8356,-1.8375,-1.7616,0.0,-1.622,0.0,0.0,0.0,0.0,0.0,-1.9585,0.0,0.0,0.0,0.0,0.0,0.0,0.0,0.0,0.0,0.0,0.0,0.0,0.0,0.0,-1.3288,0.0,-1.3325,0.0,0.0,0.0,0.0,0.0,0.0,0.0,0.0,0.0,0.0,0.0,-1.6427,-1.6682,-1.6712,-1.7234,-1.8403,-1.8433,-1.8609,-1.898,-1.8356,-1.7901,-1.7666,-1.7034,-1.6637,-1.6522,-1.6522,-1.6522,-1.6522,-1.6522,-1.6522,-1.6466,-1.6008,-1.5644,-1.5276,-1.4365,-1.3944,-1.3848,-1.4277,-1.4502,-1.4668,0.8034,0.784,0.7409,0.6397,0.632,0.7291,0.9871,1.1901,1.3344,1.4052,0.0,0.0,0.0,0.0,0.0,0.0,0.0,1.8447,2.0225,0.0,2.2882,2.5309,2.3581,2.1344,0.0,1.9192,1.8275,1.5869,1.5267,1.4315,1.3061,1.2142,1.1714,1.1757,1.1435,1.0079,0.819,1.0291,0.9964,0.8311,1.0757,0.844,0.2074,0.0,-1.618,-1.6581,-1.6999,0.0,0.0,-1.8413,-1.7759,0.0,0.0,0.0,0.0,0.0,0.0,0.0,0.0,0.0,0.0,-1.9564,0.0,0.0,0.0,0.0,-1.6147,0.0,0.0,0.0,0.0,0.0,-1.3242,-1.3188,-1.3103,0.0,0.0,0.0,0.0,0.0,0.0,0.0,0.0,0.0,0.0,0.0,-1.6123,0.0,-1.6682,-1.6712,-1.7025,-1.7697,-1.7727,-1.7559,-1.7184,-1.7681,-1.7449,-1.6552,-1.7034,-1.6993,-1.6522,-1.6522,-1.6522,-1.6522,-1.6522,-1.6522,-1.6522,-1.6466,-1.5788,-1.4744,-1.4709,-1.3941,-1.2969,-1.3389,-1.3809,-1.4165,0.0,0.0,0.5545,0.4574,0.4839,0.6395,0.9779,1.2842,1.5134,0.0,0.0,0.0,0.0,1.9781,1.9462,0.0,0.0,1.9446,2.0496,2.1589,0.0,0.0,2.3251,2.1954,0.0,1.8629,1.7374,1.5859,1.46,1.3439,1.2452,1.1752,1.0946,1.0176,0.0,0.9552,0.0,0.0,0.0,0.0,0.0,0.05,-0.944,0.0,0.0,-1.77,-1.7735,-1.8176,0.0,-1.8996,-1.887,-1.867,-1.8989,-1.8963,-1.89,-1.9307,-1.9613,0.0,0.0,0.0,-1.9953,-1.9786,0.0,0.0,0.0,0.0,0.0,0.0,0.0,0.0,0.0,0.0,-1.4174,-1.4144,-1.3493,-1.3067,0.0,0.0,0.0,0.0,0.0,0.0,0.0,0.0,0.0,0.0,-1.627,0.0,0.0,-1.6473,-1.6677,-1.6647,-1.7777,-1.8001,-1.7232,-1.7748,-1.7702,-1.7034,-1.6837,-1.668,-1.6522,-1.6522,-1.6522,-1.6522,-1.6522,-1.6522,-1.6522,-1.6522,-1.6008,-1.5276,-1.5276,-1.4549,-1.3519,-1.3491,-1.3603,-1.3779,0.7075,0.5523,0.0,0.0,0.0,0.6121,1.1007,1.2856,0.0,0.0,1.8446,0.0,2.0662,0.0,1.9866,0.0,1.9752,1.9882,2.0477,2.1488,0.0,2.2193,2.2223,0.0,0.0,1.7745,1.6401,1.4574,1.3937,1.2935,1.1633,1.0931,1.0334,0.0,0.0,0.928,0.8595,0.98,0.959,0.0,0.0,-0.2465,0.0,0.0,-1.1087,-1.7793,0.0,-1.8574,-1.891,-1.9209,-1.9423,-1.9623,-1.9762,-1.9824,-1.9901,-2.006,-2.0106,-2.0106,-2.0106,-2.0152,0.0,-1.9877,-1.9563,0.0,-1.8604,0.0,0.0,0.0,0.0,0.0,0.0,0.0,-1.4419,-1.4137,-1.3707,-1.3667,0.0,-1.5297,0.0,0.0,0.0,0.0,0.0,0.0,-1.6485,-1.6136,-1.616,0.0,0.0,0.0,-1.6003,-1.5739,-1.6695,-1.7013,-1.6654,-1.6998,-1.713,-1.6993,-1.668,-1.6522,-1.6522,-1.6522,-1.6522,-1.6522,-1.6522,-1.6522,-1.6522,-1.6522,-1.6139,-1.5588,-1.5588,-1.5005,-1.4093,-1.3736,-1.3561,-1.3574,0.6949,0.4918,0.0,0.0,0.3792,0.0,0.0,0.0,1.2363,0.0,1.9212,2.053,2.0593,1.9931,1.966,2.0114,1.9664,1.955,2.0068,2.0869,0.0,0.0,2.0648,1.9003,1.5945,1.6639,1.5532,1.2416,1.335,1.275,1.0651,0.9804,0.0,0.0,0.9375,0.0,1.0196,1.0098,0.9932,0.9805,1.0022,-0.0239,-1.5826,-1.7278,-1.7358,-1.691,-1.8287,-1.8516,-1.8266,-1.9028,-1.9423,-1.9604,-1.9762,-1.9901,-2.0041,-2.0241,-2.0312,-2.0312,-2.0312,-2.0152,-1.9973,-1.9836,0.0,0.0,0.0,0.0,-1.706,0.0,0.0,0.0,0.0,0.0,0.0,-1.3434,-1.3811,-1.4771,-1.6454,0.0,0.0,0.0,0.0,0.0,0.0,-1.6011,-1.5799,-1.5799,-1.5799,0.0,0.0,0.0,-1.5134,-1.5104,-1.4808,-1.4937,-1.5533,-1.5649,-1.5971,-1.6552,-1.6552,-1.6522,-1.6522,-1.6522,-1.6522,-1.6522,-1.6522,-1.6522,-1.6522,-1.6522,-1.6151,-1.5632,-1.5632,-1.5287,-1.4652,-1.405,-1.3685,-1.3576,0.5922,0.3562,0.1591,0.0,0.3251,0.6696,0.0,0.0,0.0,0.0,1.8731,1.9229,1.9149,1.7514,1.6805,1.7764,1.7399,0.0,0.0,0.0,0.0,1.919,1.9705,1.9031,1.6958,1.6604,1.6034,1.5254,1.3639,1.2362,1.1427,1.0922,0.0,0.0,0.0,1.0444,0.9011,0.7195,0.498,0.2947,0.6461,0.2988,-0.5225,0.0,-1.7564,-1.7379,-1.8426,-1.8644,-1.855,-1.9113,-1.9368,-1.9492,-1.9724,-1.9982,-2.0233,-2.0285,-2.0312,-2.0312,-2.0312,-2.0152,-1.9973,-1.9836,-1.9503,-1.9099,0.0,0.0,0.0,0.0,0.0,0.0,0.0,0.0,0.0,-1.513,-1.5157,-1.5553,0.0,0.0,0.0,-1.7571,0.0,0.0,0.0,-1.6011,-1.5799,-1.5799,-1.5799,0.0,0.0,0.0,0.0,-1.5104,-1.6279,-1.6623,-1.6118,-1.7381,-1.771,-1.7076,-1.7076,-1.6879,-1.6522,-1.6522,-1.6522,-1.6522,-1.6522,-1.6522,-1.6522,-1.6522,-1.6423,-1.6281,-1.6281,-1.592,-1.5231,-1.4179,-1.3757,-1.369,0.5104,0.0,0.0,0.0167,0.0,0.0,0.7418,1.3749,0.0,1.7423,1.8654,0.0,1.8664,1.7374,1.6291,1.5606,1.5204,0.0,1.6447,0.0,0.0,1.5582,1.5959,1.565,1.4517,1.4675,0.0,1.437,0.0,1.3192,1.2142,1.1295,0.0,0.0,0.0,1.0813,1.0128,0.5031,0.1761,0.0234,0.2868,0.2365,0.0,-1.3261,-1.7714,-1.7636,-1.8186,-1.8393,-1.8508,-1.8999,-1.9276,-1.9449,-1.9724,-2.0021,-2.0312,-2.0312,-2.0312,-2.0277,-2.0197,-2.0041,-1.985,-1.9594,-1.9306,-1.903,-1.8716,-1.841,-1.8045,0.0,0.0,0.0,0.0,0.0,0.0,-1.5956,-1.5923,0.0,0.0,0.0,0.0,0.0,-1.6897,0.0,0.0,0.0,-1.5799,-1.5799,0.0,0.0,0.0,0.0,0.0,-1.5538,-1.634,-1.6727,-1.672,-1.7712,-1.8037,-1.7666,-1.7666,-1.7504,-1.7188,-1.6951,-1.6837,-1.6837,-1.6595,-1.6522,-1.6522,-1.6522,-1.6522,-1.6522,-1.6522,-1.6281,-1.5864,-1.4903,-1.4272,-1.3752,0.3954,0.0,0.0,0.0,0.0,0.0,0.0,0.7227,0.0,1.4596,0.0,1.7163,1.6648,1.6595,1.5591,1.3065,0.0,1.2824,1.3301,1.2293,1.1657,1.1595,1.1455,1.1222,1.0914,1.2251,1.2527,0.0,1.4002,1.4253,1.2522,1.0981,0.0,0.0,0.0,0.0,0.0,0.4502,0.0708,0.0,0.0,-0.0824,-0.3119,-1.2824,-1.6987,-1.7618,-1.7658,-1.7883,-1.8229,-1.877,-1.9123,-1.9383,-1.9669,-1.9982,-2.0269,-2.0269,-2.0269,-2.0225,-2.0041,-1.985,-1.9638,-1.9287,-1.9046,-1.877,-1.831,-1.8166,-1.8082,-1.7856,-1.7572,-1.7344,0.0,0.0,0.0,0.0,0.0,0.0,0.0,0.0,0.0,0.0,0.0,0.0,0.0,0.0,0.0,0.0,0.0,0.0,0.0,0.0,0.0,-1.6152,-1.5915,-1.634,-1.7455,0.0,-1.781,-1.8224,-1.8224,-1.8185,-1.8066,-1.7626,-1.7394,-1.7271,-1.6795,-1.6552,-1.6522,-1.6522,-1.6522,-1.6522,-1.6522,-1.6522,-1.6423,-1.582,-1.4949,-1.3973,0.1162,0.0,0.0,0.0,0.0,-0.5667,-0.9496,-1.2372,-0.8957,0.5434,0.3076,0.1555,0.5479,0.7184,0.8098,0.8229,0.8721,0.0,0.0,0.0,0.0,1.0473,1.0623,1.0767,1.097,1.2369,1.237,0.0,1.3184,1.3279,1.1368,1.0196,0.0,0.0,0.0,0.0,1.4049,0.9258,0.0,0.0,0.0,-0.5231,-1.2779,-1.0499,-1.2558,-1.6674,-1.6901,-1.7361,-1.7949,-1.8489,-1.8753,-1.8966,-1.9355,-1.9738,-2.0041,-2.0041,-2.0041,-2.0012,-1.9869,-1.9582,-1.9287,-1.9213,-1.8771,-1.831,-1.8229,-1.8035,-1.7856,-1.7811,-1.7766,-1.7635,-1.7344,0.0,0.0,0.0,0.0,0.0,0.0,0.0,0.0,0.0,0.0,-1.7085,0.0,0.0,0.0,0.0,0.0,0.0,0.0,0.0,0.0,0.0,-1.706,0.0,0.0,0.0,-1.909,-1.8765,-1.8765,-1.8535,-1.8106,-1.7987,-1.7706,-1.7312,-1.7188,-1.6909,-1.6522,-1.6522,-1.6522,-1.6522,-1.6522,-1.6522,-1.6423,-1.582,-1.5454,-1.5141,0.0,0.0,0.0,0.0,0.0,0.0,0.0,-1.8211,0.0,-0.8207,-0.772,-0.7076,-0.4111,-0.3015,-0.0893,0.3072,0.3713,0.469,0.6553,0.6732,0.6773,0.6773,0.744,0.7873,0.8047,0.9881,1.0654,1.0254,1.0965,1.118,1.0905,1.038,0.8934,0.6693,0.0,0.7966,0.0,0.0,0.0,-0.1941,-0.3485,-0.6882,-1.1082,-1.1748,-1.3667,-1.6056,-1.6454,-1.6885,-1.7368,-1.7945,-1.8423,-1.8853,-1.9188,-1.957,-1.9901,-1.9901,-1.9901,-1.9869,-1.9726,-1.9453,-1.9136,-1.8927,-1.8532,-1.8166,-1.8035,-1.7883,-1.7811,-1.7811,-1.7905,-1.7997,-1.7984,-1.7854,0.0,0.0,0.0,0.0,0.0,0.0,0.0,0.0,0.0,0.0,0.0,0.0,0.0,0.0,0.0,0.0,0.0,0.0,0.0,0.0,0.0,0.0,0.0,0.0,0.0,-1.9332,-1.9332,-1.9169,-1.893,-1.865,-1.8224,-1.7706,-1.7435,-1.6993,-1.6522,-1.6522,-1.6522,-1.6522,-1.6522,-1.6522,-1.6466,-1.6194,-1.5864,-1.5443,0.0,-0.2389,0.0,0.0,-1.3382,0.0,-1.6931,-1.8602,-1.9136,-1.8118,-1.4819,-1.2056,-1.0761,-1.0415,-0.7816,-0.164,-0.0436,0.142,0.4726,0.4096,0.3581,0.3581,0.4561,0.511,0.511,0.689,0.8265,0.0,0.8535,0.0,0.0,0.918,0.7379,0.0,0.0,0.0,0.0,0.0,-0.2497,-0.5774,-0.8299,-0.8855,-0.873,-1.3581,-1.5404,-1.5418,-1.5834,-1.6235,-1.6612,-1.7085,-1.7851,-1.8628,-1.8921,-1.9308,-1.9676,-1.975,-1.9762,-1.9713,-1.9509,-1.9268,-1.8977,-1.8605,-1.831,-1.8057,-1.7856,-1.7811,-1.7811,-1.7861,-1.8082,-1.8351,-1.8566,-1.843,0.0,0.0,0.0,0.0,0.0,0.0,0.0,0.0,0.0,0.0,-1.6349,0.0,0.0,0.0,0.0,0.0,-1.5799,-1.6473,-1.7089,0.0,0.0,-1.912,-1.9675,0.0,-1.969,-1.969,-1.969,-1.969,-1.969,-1.9244,-1.8727,-1.8066,-1.7666,-1.7118,-1.6522,-1.6522,-1.6522,-1.6522,-1.6522,-1.6522,-1.6522,-1.6522,-1.6194,-1.5632,0.0,0.0,0.0,0.0,0.0,0.0,-1.5109,-1.7164,-1.8111,-1.6227,-1.544,-1.4185,-1.19,-1.0855,-0.8772,-0.4964,-0.1794,0.0625,0.2093,0.3081,0.3581,0.3581,0.418,0.4474,0.4474,0.487,0.5632,0.0,0.0,0.593,0.0,0.4058,0.0,0.0,0.0,0.0,0.0,-0.1878,-0.5839,-1.2387,-1.3458,-1.3703,-1.3449,-1.4038,-1.4406,-1.4613,-1.4676,-1.5108,-1.5719,-1.5788,-1.6674,-1.786,-1.8263,-1.8799,-1.9306,-1.955,-1.9609,-1.9541,-1.915,-1.8861,-1.8604,-1.831,-1.8035,-1.7833,-1.7811,-1.7811,-1.7861,-1.8103,-1.8371,-1.8566,-1.8603,-1.8566,-1.8566,0.0,0.0,0.0,0.0,0.0,-1.7535,-1.6842,0.0,0.0,0.0,0.0,0.0,0.0,0.0,0.0,-1.5799,-1.6765,-1.7469,-1.77,0.0,-1.9446,-1.9711,-1.969,-1.969,-1.969,-1.969,-1.969,-1.969,-1.9639,-1.908,-1.8106,-1.8066,-1.7422,-1.6522,-1.6522,-1.6522,-1.6522,-1.6522,-1.6522,-1.6522,-1.6522,-1.6466,-1.6337,0.0,0.0,0.0,0.0,0.0,0.0,0.0,-1.805,-1.8714,-1.7914,-1.6149,-1.4302,-1.2489,-1.1101,-0.8915,-0.5391,-0.1977,0.0186,0.0674,0.2506,0.3588,0.3581,0.3792,0.3924,0.3924,0.4012,0.4549,0.0,0.0,0.3727,0.3579,0.0731,0.0,0.0,0.0,-0.4236,-0.5769,-0.653,-0.8827,-1.1976,-1.3171,-1.3424,-1.3119,-1.3703,-1.3624,-1.3276,-1.3506,-1.3982,-1.4502,-1.4502,-1.5929,-1.772,-1.7889,-1.8348,-1.8859,-1.8963,-1.8998,-1.8964,-1.8789,-1.8566,-1.833,-1.8229,-1.7992,-1.7811,-1.7811,-1.7811,-1.7878,-1.8146,-1.8607,-1.9012,-1.9178,-1.9136,-1.9052,0.0,0.0,0.0,0.0,0.0,0.0,-1.6753,0.0,-1.6891,0.0,0.0,0.0,0.0,0.0,0.0,0.0,-1.6925,0.0,-1.7715,0.0,-1.9632,-1.969,-1.969,-1.969,-1.969,-1.969,-1.969,-1.969,-1.9369,-1.8612,-1.7585,-1.7271,-1.6909,-1.6522,-1.6522,-1.6522,-1.6522,-1.6522,-1.6522,-1.6522,-1.6522,-1.6522,-1.6466,-1.4906,0.0,-1.6394,0.0,-1.4788,-1.4637,-1.7969,-1.8727,-1.8989,-1.9163,-1.6475,-1.3933,-1.2381,-1.1089,-0.8891,-0.5384,-0.0365,0.1832,0.0093,0.2587,0.4035,0.3928,0.3711,0.0,0.41,0.3924,0.4155,0.4861,0.3343,0.2734,0.2842,0.0,0.0,0.0,-0.6441,-0.6266,-0.8143,-0.9125,-0.9993,-1.084,-1.1845,-1.2224,-1.2295,-1.297,-1.2798,-1.2259,-1.2553,-1.3069,-1.3598,-1.3598,-1.5155,-1.7092,-1.7172,-1.7647,-1.82,-1.8281,-1.8378,-1.8434,-1.8356,-1.8194,-1.8027,-1.7958,-1.7715,-1.7542,-1.7635,-1.7658,-1.7777,-1.8229,-1.8841,-1.9387,-1.9569,-1.9543,-1.9473,-1.9335,0.0,0.0,0.0,-1.7611,0.0,0.0,-1.6699,-1.6614,-1.6376,0.0,0.0,0.0,0.0,0.0,0.0,0.0,0.0,0.0,0.0,0.0,0.0,-1.969,-1.969,-1.969,-1.953,-1.9442,-1.9442,-1.8727,-1.8027,-1.7271,-1.671,-1.6522,-1.6522,-1.6522,-1.6522,-1.6522,-1.6522,-1.6522,-1.6522,-1.6522,-1.6522,-1.6522,-1.4869,-1.6866,-1.7789,-1.7789,-1.8571,-1.921,-1.9197,-1.862,-1.845,-1.9104,-1.6225,-1.337,-1.1509,-1.0696,-0.888,-0.5408,0.3367,0.6219,0.0404,0.3318,0.5096,0.0,0.0,0.4144,0.526,0.4696,0.4482,0.4709,0.0,0.0,0.2512,0.0,-0.6053,-0.8313,-0.8385,-0.8736,-0.911,-0.8275,-0.8812,-1.0215,-1.0215,-1.0874,-1.1811,-1.1811,-1.1811,-1.1811,-1.1811,-1.2366,-1.3094,-1.3094,-1.4223,-1.566,-1.5929,-1.655,-1.7259,-1.753,-1.7847,-1.8063,-1.7764,-1.7715,-1.7625,-1.7375,-1.7052,-1.6917,-1.7224,-1.732,-1.7562,-1.8413,-1.913,-1.9601,-1.9614,-1.972,-1.975,-1.9623,0.0,0.0,0.0,0.0,0.0,-1.674,-1.6699,-1.6699,-1.6699,0.0,0.0,0.0,0.0,0.0,0.0,0.0,0.0,-1.7715,-1.94,0.0,-1.9711,-1.969,-1.969,-1.969,-1.9169,-1.8893,-1.8855,-1.7827,-1.7312,-1.7271,-1.671,-1.6522,-1.6522,-1.6522,-1.6522,-1.6522,-1.6522,-1.6522,-1.6522,-1.6522,-1.6522,-1.6522,-1.6686,-1.8063,-1.8327,-1.6725,-1.6703,-1.7661,-1.9829,-1.8886,-1.8012,-1.8217,-1.5467,-1.2761,-1.0829,-1.043,-0.9872,0.0,0.2032,0.8817,0.0,0.5856,0.4416,0.5091,0.513,0.5216,0.5303,0.513,0.5043,0.5091,0.0,0.0,0.0,-0.405,-0.6588,-0.7983,-0.8055,-0.8177,-0.8316,-0.8036,-0.839,-0.9222,-0.9914,-1.0427,-1.0802,-1.1132,-1.1057,-1.0764,-1.0764,-1.142,-1.2211,-1.2211,-1.3221,-1.4446,-1.453,-1.566,-1.6944,-1.7028,-1.7134,-1.7199,-1.7118,-1.7085,-1.706,-1.6977,-1.6892,-1.6892,-1.7224,-1.7749,-1.8255,-1.8547,-1.9219,-1.9738,-1.9738,-1.996,-2.006,-1.9774,-1.9511,0.0,0.0,0.0,0.0,-1.674,-1.6699,-1.6699,0.0,-1.7053,0.0,0.0,0.0,0.0,0.0,0.0,0.0,0.0,-1.9351,0.0,-1.969,-1.969,-1.969,-1.969,-1.9169,-1.8535,-1.7787,-1.7463,-1.7118,-1.6752,-1.6552,-1.6522,-1.6522,-1.6522,-1.6522,-1.6522,-1.6522,-1.6522,-1.6522,-1.6522,-1.6522,-1.6522,-1.8118,-1.8859,-1.8945,-1.779,-1.7595,-1.8273,-2.0295,-1.902,-1.7811,-1.7811,-1.5125,-1.2461,-1.0505,-0.9549,0.0,-1.0235,-0.0609,0.6587,0.9243,0.5757,0.4381,0.618,0.6049,0.5987,0.6133,0.5782,0.0,0.5653,0.3828,0.1309,-0.1885,-0.4843,-0.681,-0.7833,-0.7772,-0.7814,-0.7927,-0.8005,-0.831,-0.8756,-0.9609,-1.0099,-1.0322,-1.0611,-1.0544,-1.0283,-1.0283,-1.0954,-1.1811,-1.1811,-1.2754,-1.3901,-1.3901,-1.485,-1.5948,-1.5948,-1.6031,-1.6126,-1.6126,-1.6126,-1.6126,-1.6126,-1.6142,-1.6336,-1.6977,-1.771,-1.8336,-1.8547,-1.9149,-1.9669,-1.9713,-1.9981,-2.0098,-1.9774,-1.9263,-1.8746,-1.8253,0.0,0.0,0.0,0.0,0.0,0.0,-1.735,-1.7469,0.0,0.0,0.0,0.0,0.0,0.0,-1.8687,-1.9346,0.0,-1.969,-1.969,-1.969,-1.969,-1.8968,-1.8027,-1.6993,-1.6993,-1.6837,-1.6522,-1.6522,-1.6522,-1.6522,-1.6522,-1.6522,-1.6522,-1.6522,-1.6522,-1.6522,-1.6522,-1.6522,-1.6522,-1.8978,-1.9295,-1.9654,0.0,-2.0605,0.0,-2.0605,-1.902,-1.7811,-1.7811,-1.5125,-1.2496,-1.0697,-0.8399,-0.7833,-0.9873,0.0,0.0,0.0,0.3581,0.483,0.76,0.6675,0.6536,0.7468,0.6656,0.6134,0.5927,0.1947,-0.0823,-0.2442,-0.5,-0.6787,-0.779,-0.7584,-0.76,-0.7881,-0.8164,-0.8439,-0.8756,-0.9279,-0.9843,-1.0283,-1.0283,-1.0283,-1.0283,-1.0283,-1.0954,-1.1811,-1.1811,-1.2719,-1.3835,-1.3835,-1.4117,-1.4406,-1.447,-1.471,-1.4973,-1.4973,-1.4973,-1.4973,-1.4973,-1.5016,-1.5374,-1.6496,-1.7223,-1.7847,-1.8471,-1.902,-1.9433,-1.9564,-1.9802,-1.9893,-1.9574,-1.8707,-1.7932,-1.7558,0.0,0.0,0.0,0.0,0.0,0.0,-1.7789,-1.7519,0.0,0.0,0.0,0.0,0.0,-1.8732,-1.8777,-1.9361,-1.969,-1.969,-1.969,-1.9639,-1.9566,-1.8535,-1.7504,-1.6522,-1.6522,-1.6522,-1.6522,-1.6522,-1.6522,-1.6522,-1.6522,-1.6522,-1.6522,-1.6522,-1.6522,-1.6522,-1.6522,-1.6522,-1.6522,0.0,0.0,-2.0369,-2.0566,-2.0605,-2.0605,-2.0605,-1.902,-1.7811,-1.7811,-1.5125,-1.3012,-1.2567,-0.9213,-0.7224,-0.7716,-0.3029,0.103,0.3445,0.3581,0.4313,0.5858,0.7339,0.7928,0.7582,0.6997,0.5436,0.3007,0.0968,-0.1084,-0.3271,-0.5272,-0.6458,-0.6906,-0.7065,-0.7301,-0.7619,-0.7887,-0.8271,-0.8756,-0.9279,-0.9843,-1.0283,-1.0283,-1.0283,-1.0283,-1.0283,-1.0954,-1.1811,-1.1811,-1.2496,-1.3357,-1.3357,-1.3425,-1.3648,-1.431,-1.455,-1.4631,-1.4631,-1.4631,-1.4631,-1.4631,-1.4833,-1.5257,-1.6138,-1.6806,-1.7485,-1.8415,-1.896,-1.9317,-1.9569,-1.9738,-1.9583,-1.8809,-1.8176,-1.7715,-1.7453,-1.6909,0.0,0.0,-1.754,-1.7608,-1.7794,-1.7572,-1.7248,0.0,0.0,0.0,0.0,-1.8343,-1.8927,-1.9435,-1.96,-1.969,-1.969,-1.969,-1.9281,-1.8458,-1.7827,-1.7146,-1.6522,-1.6522,-1.6522,-1.6522,-1.6522,-1.6522,-1.6522,-1.6522,-1.6522,-1.6522,-1.6522,-1.6522,-1.6522,-1.6522,-1.6522,-1.6522,-1.8243,-1.9314,-2.0136,-2.0524,-2.0605,-2.0605,-2.0605,-1.9728,-1.8768,-1.7907,-1.6339,-1.4418,-1.2128,-0.9847,-0.81,-0.7071,-0.2721,0.103,0.3445,0.388,0.4662,0.6048,0.7282,0.7734,0.7477,0.7266,0.4479,-0.1064,-0.2406,-0.4262,-0.6563,-0.7015,-0.7104,-0.678,-0.7104,-0.7241,-0.7305,-0.8095,-0.8542,-0.8756,-0.9558,-1.004,-1.0283,-1.0283,-1.0283,-1.0283,-1.0283,-1.0954,-1.1811,-1.1811,-1.2425,-1.3198,-1.3198,-1.3198,-1.3301,-1.3769,-1.3901,-1.3901,-1.3901,-1.3901,-1.3967,-1.4181,-1.4505,-1.4957,-1.5747,-1.6465,-1.7235,-1.8183,-1.8717,-1.912,-1.9409,-1.9287,-1.897,-1.8363,-1.7286,-1.6606,-1.6852,-1.6488,0.0,-1.7202,-1.7591,-1.7811,-1.7811,-1.7635,-1.7408,-1.7052,-1.7348,0.0,-1.7896,-1.8428,-1.9016,-1.966,-1.969,-1.969,-1.969,-1.969,-1.9169,-1.8106,-1.7787,-1.7271,-1.6522,-1.6522,-1.6522,-1.6522,-1.6522,-1.6522,-1.6522,-1.6522,-1.6522,-1.6522,-1.6522,-1.6522,-1.6522,-1.6522,-1.6522,-1.6522,-1.9095,-1.9305,-1.9526,-2.0274,-2.0502,-2.0605,-2.0605,-2.0605,-2.0026,-1.843,-1.7861,-1.5741,-1.0847,-1.0312,-0.9146,-0.6208,-0.1984,0.1441,0.3507,0.4117,0.5112,0.6579,0.6672,0.6957,0.7532,0.6624,0.2431,-0.5093,-0.6591,-0.827,-1.0076,-0.9012,-0.8026,-0.7228,-0.7531,-0.7503,-0.7271,-0.8645,-0.909,-0.8918,-0.9922,-1.0283,-1.0283,-1.0283,-1.0283,-1.0322,-1.039,-1.0992,-1.1811,-1.1884,-1.2556,-1.3311,-1.3223,-1.3248,-1.3311,-1.3223,-1.3198,-1.3198,-1.3198,-1.3198,-1.3301,-1.3682,-1.4052,-1.4505,-1.5316,-1.6083,-1.6887,-1.7881,-1.8463,-1.887,-1.9106,-1.8739,-1.8291,-1.7941,-1.6312,-1.5378,-1.6129,0.0,-1.5866,-1.6614,-1.7354,-1.7811,-1.7811,-1.7811,-1.7658,-1.7344,-1.7517,-1.7808,-1.8192,-1.8422,-1.8897,-1.966,-1.969,-1.969,-1.969,-1.9603,-1.908,-1.8106,-1.8027,-1.7463,-1.6522,-1.6522,-1.6522,-1.6522,-1.6522,-1.6522,-1.6522,-1.6522,-1.6522,-1.6522,-1.6522,-1.6522,-1.6522,-1.6522,-1.6522,-1.6522,-1.9095,-1.9305,-1.9343,-1.9473,-2.01,-2.0605,-2.0605,-2.0605,-2.0504,-2.0201,-1.8137,-1.5074,-1.0772,-1.0275,-0.7835,-0.1618,0.144,0.3297,0.3889,0.4036,0.4174,0.4488,0.5475,0.6827,0.8549,0.2486,-0.2674,-0.6805,-0.9155,-1.0076,-0.9511,-0.8808,-0.837,-0.8107,-0.8282,-0.8231,-0.8194,-0.9436,-0.9715,-0.9439,-1.004,-1.0283,-1.0283,-1.0283,-1.0283,-1.0351,-1.0764,-1.1282,-1.1847,-1.2246,-1.3095,-1.3871,-1.3348,-1.3546,-1.3871,-1.3336,-1.3198,-1.3198,-1.3198,-1.3198,-1.3232,-1.3301,-1.3357,-1.3689,-1.4838,-1.5417,-1.6144,-1.7783,-1.8463,-1.8738,-1.8495,-1.8428,-1.8068,-1.7092,-1.5886,-1.5298,-1.5888,0.0,-1.5866,-1.6614,-1.7354,-1.7811,-1.7811,-1.7811,-1.7658,-1.7344,-1.709,-1.7302,-1.8176,-1.7983,-1.8433,-1.9645,-1.969,-1.969,-1.969,-1.9244,-1.8688,-1.8106,-1.7626,-1.7118,-1.6522,-1.6522,-1.6522,-1.6522,-1.6522,-1.6522,-1.6522,-1.6522,-1.6522,-1.6522,-1.6522,-1.6522,-1.6522,-1.6522,-1.6522,-1.6522,-1.8397,-1.8929,-1.9858,-2.162,-2.0816,-2.0676,-2.2985,-2.3359,-2.2695,-2.084,-1.8219,-1.577,-1.3847,-0.832,-0.3479,-0.0272,0.1034,0.2282,0.3681,0.408,0.4469,0.4855,0.5071,0.4438,0.2914,-0.2521,-0.7186,-1.1022,-1.1269,-1.1145,-1.0656,-0.978,-0.9062,-0.8519,-0.8829,-0.8762,-0.8561,-0.963,-0.9871,-0.9558,-1.0079,-1.0283,-1.0283,-1.0283,-1.0283,-1.0322,-1.0534,-1.1142,-1.1811,-1.2066,-1.277,-1.3571,-1.3286,-1.3609,-1.3972,-1.3396,-1.3198,-1.3198,-1.3198,-1.3198,-1.3198,-1.3198,-1.3391,-1.3789,-1.4554,-1.533,-1.6244,-1.7552,-1.8353,-1.8701,-1.8355,-1.7994,-1.7572,-1.7021,-1.5542,0.0,0.0,-1.618,-1.6179,-1.7173,-1.7723,-1.7949,-1.7811,-1.7811,-1.7743,-1.7572,-1.7076,-1.7396,-1.877,-1.813,-1.8413,-1.9989,-1.9803,-1.969,-1.969,-1.9442,-1.893,-1.8106,-1.7867,-1.7312,-1.6522,-1.6522,-1.6522,-1.6522,-1.6522,-1.6337,-1.6008,-1.6008,-1.582,-1.5522,-1.5522,-1.5744,-1.6008,-1.6008,-1.6008,-1.6051,-1.8636,-1.8889,-2.0113,-2.3815,-2.2371,-2.182,-2.5187,-2.5703,-2.4766,-2.2129,-1.8693,-1.6522,-1.6522,-0.8904,-0.281,-0.0227,-0.0,0.103,0.3445,0.4185,0.4772,0.534,0.2568,-0.0312,-0.3301,-0.7032,-1.0591,-1.3859,-1.2524,-1.1797,-1.1591,-1.0584,-0.9683,-0.8903,-0.9436,-0.9384,-0.8943,-1.0109,-1.0324,-0.9903,-1.0312,-1.0467,-1.0467,-1.0361,-1.0361,-1.0467,-1.0582,-1.1217,-1.1993,-1.2102,-1.2698,-1.3421,-1.3421,-1.3709,-1.4009,-1.3546,-1.3298,-1.3198,-1.3198,-1.3198,-1.3198,-1.3198,-1.3547,-1.4032,-1.4406,-1.5374,-1.6465,-1.74,-1.8222,-1.8717,-1.839,-1.7869,-1.7459,-1.7374,0.0,0.0,0.0,-1.68,-1.6669,-1.7518,-1.8021,-1.8166,-1.7833,-1.7856,-1.7878,-1.7811,-1.7264,-1.7552,-1.9061,-1.8247,-1.8497,-2.0135,-1.9889,-1.969,-1.969,-1.969,-1.9207,-1.8302,-1.8185,-1.7585,-1.668,-1.6552,-1.6522,-1.6522,-1.6522,-1.6238,-1.582,-1.582,-1.5454,-1.4926,-1.4926,-1.5096,-1.541,-1.541,-1.541,-1.5499,-2.1195,-1.9772,-1.9458,-2.4357,-2.5022,-2.505,-2.56,-2.5703,-2.5605,-2.5352,-2.0162,-1.6522,-1.6522,-1.5743,-1.1176,-0.0898,-0.0,0.103,0.3445,0.4185,0.4519,0.4581,-0.4285,-0.8454,-0.688,-1.0141,-1.2095,-1.2541,-1.2407,-1.191,-1.1033,-1.0409,-0.9848,-0.9475,-1.0315,-1.0234,-0.9563,-1.1374,-1.1664,-1.0895,-1.0933,-1.0943,-1.0905,-1.0467,-1.0582,-1.1019,-1.1516,-1.2029,-1.2508,-1.2943,-1.3488,-1.4022,-1.4022,-1.4047,-1.4072,-1.4035,-1.3634,-1.3198,-1.3198,-1.3198,-1.3198,-1.3198,-1.3547,-1.4032,-1.4406,-1.5374,-1.6449,-1.7327,-1.8204,-1.8747,-1.8521,-1.839,-1.8267,-1.8142,0.0,0.0,-1.7399,-1.7418,-1.7329,-1.7173,-1.7992,-1.8371,-1.7856,-1.8018,-1.8078,-1.7833,-1.7479,-1.7576,-1.8348,-1.8017,-1.8448,-1.9876,-1.9764,-1.969,-1.969,-1.969,-1.9406,-1.8855,-1.8341,-1.7787,-1.7229,-1.671,-1.6522,-1.6522,-1.6522,-1.6466,-1.6423,-1.6423,-1.6095,-1.5543,-1.5543,-1.5231,-1.4744,-1.4744,-1.4744,-1.4835,-2.0362,-2.0639,-2.159,-2.4755,-2.5303,-2.5391,-2.566,-2.5703,-2.5703,-2.5703,-2.2419,-2.0094,-2.0094,-1.6625,-1.2153,-0.6872,-0.1088,0.2778,0.4093,0.4379,0.0587,-0.8126,-1.0864,-1.1985,-1.1593,-1.285,-1.3288,-1.2902,-1.2611,-1.2139,-1.1479,-1.0917,-1.041,-1.0039,-1.0918,-1.1169,-1.1005,-1.1912,-1.2191,-1.196,-1.1625,-1.1505,-1.1468,-1.1292,-1.133,-1.1505,-1.1737,-1.2102,-1.2544,-1.272,-1.3113,-1.3546,-1.3546,-1.3808,-1.4085,-1.4085,-1.3659,-1.3198,-1.3198,-1.3198,-1.3267,-1.3547,-1.3769,-1.4052,-1.4721,-1.5564,-1.6402,-1.7162,-1.8104,-1.8554,-1.7684,-1.8064,-1.8335,-1.7753,0.0,-1.718,-1.8284,-1.7998,-1.777,-1.7998,-1.8501,-1.8715,-1.833,-1.8229,-1.8146,-1.8057,-1.7579,-1.7706,-1.8609,-1.9197,-1.9612,-1.989,-2.0286,-2.0364,-2.0054,-1.9803,-1.9244,-1.8419,-1.8224,-1.7626,-1.6795,-1.6595,-1.6522,-1.6466,-1.6095,-1.5732,-1.5332,-1.4971,-1.4468,-1.392,-1.392,-1.4014,-1.4143,-1.4143,-1.4143,-1.4236,-2.0413,-2.1799,-2.3396,-2.5027,-2.5303,-2.5391,-2.566,-2.5703,-2.5662,-2.5593,-2.402,-2.291,-2.291,-1.7592,-1.3547,-1.2351,-0.4906,-0.0099,0.0274,0.0688,-0.3406,-1.3098,-1.4044,-1.4649,-1.537,-1.4227,-1.3506,-1.3198,-1.272,-1.2246,-1.1774,-1.1244,-1.0829,-1.0535,-1.1298,-1.1691,-1.1863,-1.2319,-1.2655,-1.2777,-1.2235,-1.2029,-1.1993,-1.1847,-1.1884,-1.2029,-1.2029,-1.2318,-1.272,-1.272,-1.2943,-1.3223,-1.3433,-1.3783,-1.4085,-1.4085,-1.3659,-1.3198,-1.3198,-1.3198,-1.3301,-1.3615,-1.3802,-1.4084,-1.4752,-1.5477,-1.6242,-1.7044,-1.7935,-1.8392,-1.7802,-1.8366,-1.8734,-1.8181,-1.7907,-1.8061,-1.8972,-1.8626,-1.8383,-1.8699,-1.8948,-1.8966,-1.8623,-1.8508,-1.8391,-1.8208,-1.7827,-1.792,-1.8674,-1.9429,-1.9923,-2.0086,-2.0352,-2.051,-2.0516,-2.0104,-1.9376,-1.8341,-1.8185,-1.7626,-1.6752,-1.6595,-1.6522,-1.6479,-1.6051,-1.5555,-1.4971,-1.4549,-1.392,-1.32,-1.32,-1.3324,-1.3505,-1.3505,-1.3505,-1.36,-2.1945,-2.333,-2.4444,-2.5171,-2.5303,-2.5391,-2.566,-2.5703,-2.5601,-2.533,-2.4648,-2.4209,-2.419,-1.9641,-1.6509,-1.6522,-1.1813,-0.8804,-0.8804,-0.7728,-0.7056,-0.7091,-1.3124,-1.6898,-1.7782,-1.4132,-1.2531,-1.3198,-1.272,-1.2258,-1.1822,-1.1282,-1.1019,-1.1023,-1.1424,-1.1743,-1.1954,-1.268,-1.3128,-1.3283,-1.2722,-1.2508,-1.2461,-1.1993,-1.2102,-1.2508,-1.2508,-1.2791,-1.3198,-1.3198,-1.3198,-1.3286,-1.3909,-1.4085,-1.4085,-1.4072,-1.3659,-1.321,-1.3198,-1.3198,-1.3198,-1.3198,-1.3547,-1.4032,-1.4406,-1.5092,-1.5927,-1.6995,-1.7686,-1.837,-1.9216,-1.9503,-1.963,-1.9767,-1.9676,-1.9527,-1.932,-1.9305,-1.923,-1.9018,-1.9182,-1.9132,-1.8642,-1.8861,-1.877,-1.8249,-1.8205,-1.8234,-1.8306,-1.8374,-1.9042,-2.0475,-1.9797,-1.9924,-2.0991,-2.0516,-1.9814,-1.8893,-1.8327,-1.7814,-1.7271,-1.6752,-1.6522,-1.6522,-1.6466,-1.6139,-1.5588,-1.5588,-1.4858,-1.3815,-1.3768,-1.342,-1.2881,-1.2881,-1.2881,-1.2968,-2.1945,-2.333,-2.4266,-2.4493,-2.4975,-2.5391,-2.566,-2.5543,-2.5391,-2.5303,-2.5107,-2.4766,-2.4247,-2.2031,-1.9476,-1.674,-1.3527,-1.166,-1.166,-1.1468,-1.2311,-1.4486,-1.4323,-1.5197,-1.7332,-1.5179,-1.3762,-1.3198,-1.3047,-1.295,-1.2857,-1.2695,-1.2431,-1.2119,-1.2214,-1.2472,-1.2873,-1.2687,-1.3093,-1.3803,-1.3235,-1.2978,-1.2978,-1.2838,-1.2873,-1.2978,-1.2978,-1.3082,-1.3198,-1.3198,-1.3198,-1.3223,-1.3421,-1.3783,-1.4009,-1.3584,-1.3634,-1.3722,-1.3311,-1.3198,-1.3301,-1.3615,-1.3802,-1.4084,-1.4752,-1.5477,-1.6177,-1.6818,-1.7737,-1.8412,-1.8309,-1.9074,-1.9597,-1.9171,-1.9454,-1.9695,-1.9541,-1.938,-1.9274,-1.923,-1.9259,-1.9243,-1.9097,-1.9327,-1.942,-1.926,-1.8901,-1.8941,-1.9462,-1.9034,-1.9437,-2.0931,-2.0788,-2.0757,-2.0991,-1.9798,-1.8897,-1.8327,-1.7702,-1.7183,-1.671,-1.6552,-1.6522,-1.6479,-1.6051,-1.5776,-1.5543,-1.4675,-1.4133,-1.3779,-1.3324,-1.3065,-1.2881,-1.2881,-1.2881,-1.2929,-2.1945,-2.2917,-2.3602,-2.4094,-2.4809,-2.5391,-2.566,-2.5558,-2.5415,-2.5313,-2.5303,-2.5138,-2.4678,-2.3229,-2.1348,-1.9024,-1.604,-1.434,-1.434,-1.4758,-1.6033,-1.8301,-1.6245,-1.5549,-1.6632,-1.536,-1.4369,-1.3702,-1.3649,-1.3654,-1.3703,-1.3634,-1.3356,-1.2873,-1.2803,-1.295,-1.3281,-1.2839,-1.335,-1.4349,-1.3546,-1.3323,-1.3534,-1.3286,-1.3198,-1.3198,-1.3198,-1.3198,-1.3198,-1.3198,-1.3198,-1.3235,-1.3483,-1.3821,-1.4022,-1.3647,-1.3984,-1.4249,-1.3411,-1.3348,-1.3566,-1.3599,-1.3769,-1.4052,-1.4721,-1.5448,-1.615,-1.6811,-1.772,-1.8412,-1.843,-1.9176,-1.9684,-1.9335,-1.9842,-2.0126,-1.9647,-1.9704,-1.9656,-1.9326,-1.9305,-1.9305,-1.9305,-1.9449,-1.9593,-1.9699,-1.932,-1.9334,-1.9921,-1.9287,-1.9578,-2.1069,-2.0722,-2.0668,-2.0991,-1.9219,-1.8243,-1.8092,-1.7408,-1.6903,-1.6522,-1.6522,-1.6522,-1.6466,-1.6095,-1.5688,-1.5186,-1.4468,-1.3873,-1.342,-1.3065,-1.2881,-1.2881,-1.2881,-1.2881,-1.2881,-2.1945,-2.231,-2.2703,-2.3994,-2.4809,-2.5376,-2.5631,-2.5683,-2.5605,-2.5371,-2.5313,-2.5303,-2.5303,-2.3485,-2.231,-2.231,-1.9046,-1.7024,-1.7024,-1.7653,-1.8399,-1.9193,-1.834,-1.7263,-1.5996,-1.5075,-1.455,-1.447,-1.4336,-1.4249,-1.4275,-1.4179,-1.3826,-1.338,-1.3243,-1.3253,-1.3285,-1.3123,-1.37,-1.4676,-1.3599,-1.3534,-1.3959,-1.3421,-1.3198,-1.3198,-1.3267,-1.3267,-1.3267,-1.3267,-1.3232,-1.3286,-1.3858,-1.4047,-1.4085,-1.4085,-1.4475,-1.4651,-1.3611,-1.3747,-1.4035,-1.3509,-1.3663,-1.4053,-1.442,-1.5048,-1.5829,-1.6946,-1.7664,-1.8351,-1.922,-1.9682,-1.996,-2.0117,-2.0687,-2.0822,-1.9953,-2.0277,-2.0317,-1.9522,-1.9415,-1.9396,-1.932,-1.9402,-1.9576,-1.9944,-1.9705,-1.9715,-2.0092,-1.937,-1.9562,-2.0926,-1.9988,-1.9908,-2.0831,-1.8868,-1.7958,-1.8171,-1.7391,-1.685,-1.6552,-1.6522,-1.6522,-1.6522,-1.6522,-1.5888,-1.4835,-1.4744,-1.4071,-1.3065,-1.2929,-1.2881,-1.2881,-1.2881,-1.2881,-1.2881,-2.1945,-2.231,-2.2703,-2.3994,-2.4809,-2.5322,-2.5387,-2.5561,-2.5683,-2.5629,-2.5428,-2.5303,-2.5303,-2.3485,-2.231,-2.231,-2.1532,-2.1037,-2.1037,-2.0227,-1.9455,-1.8789,-1.8502,-1.8029,-1.7292,-1.6022,-1.4988,-1.4181,-1.404,-1.4046,-1.4148,-1.41,-1.4038,-1.3902,-1.3476,-1.3274,-1.3198,-1.2818,-1.2998,-1.3536,-1.3298,-1.3273,-1.3396,-1.3248,-1.3198,-1.3267,-1.3615,-1.3735,-1.3735,-1.3735,-1.348,-1.3223,-1.3336,-1.3709,-1.4085,-1.4085,-1.4475,-1.4865,-1.4614,-1.4639,-1.4702,-1.4538,-1.4539,-1.4525,-1.4516,-1.4819,-1.5461,-1.6648,-1.7524,-1.8294,-1.8968,-2.0049,-2.0907,-2.1128,-2.1646,-2.1953,-2.1738,-2.1606,-2.1265,-2.0552,-2.0338,-2.0049,-1.9569,-2.0101,-2.0919,-2.1986,-2.1293,-2.1082,-2.1735,-2.0179,-1.9727,-2.0652,-2.0092,-1.9767,-1.9765,-1.9276,-1.8921,-1.8727,-1.7089,-1.6617,-1.7118,-1.668,-1.6522,-1.6522,-1.6522,-1.6337,-1.6064,-1.5107,-1.4571,-1.4201,-1.3296,-1.2881,-1.2881,-1.2881,-1.2881,-1.2881,-2.0084,-2.1329,-2.2703,-2.3994,-2.3496,-2.3438,-2.5053,-2.5531,-2.5703,-2.5703,-2.5471,-2.5303,-2.5303,-2.3485,-2.231,-2.231,-2.231,-2.203,-2.1387,-2.1443,-2.0771,-1.9159,-1.88,-1.8411,-1.7915,-1.7035,-1.5897,-1.447,-1.4869,-1.4941,-1.4714,-1.5065,-1.513,-1.4865,-1.4488,-1.4074,-1.3609,-1.3308,-1.3509,-1.3961,-1.3411,-1.3674,-1.4325,-1.3753,-1.3722,-1.4082,-1.4506,-1.45,-1.4305,-1.3994,-1.3581,-1.3232,-1.3459,-1.395,-1.4462,-1.4403,-1.4993,-1.5542,-1.5054,-1.5104,-1.5203,-1.4979,-1.4841,-1.4889,-1.5257,-1.5581,-1.6203,-1.769,-1.8612,-1.9383,-2.0189,-2.1073,-2.1779,-2.2066,-2.2618,-2.288,-2.25,-2.2544,-2.2342,-2.1601,-2.1419,-2.1194,-2.0784,-2.1131,-2.1661,-2.2328,-2.1769,-2.1556,-2.1957,-2.0676,-2.0282,-2.1065,-2.0,-1.9653,-2.0145,-1.9134,-1.8687,-1.8878,-1.7316,-1.6688,-1.6909,-1.6637,-1.6522,-1.6522,-1.6522,-1.6337,-1.6008,-1.5062,-1.4514,-1.419,-1.3238,-1.2881,-1.2881,-1.2881,-1.2881,-1.2881,-1.8785,-2.0296,-2.2133,-2.3175,-2.1658,-2.1419,-2.4784,-2.5531,-2.5703,-2.5703,-2.5471,-2.5303,-2.5303,-2.3804,-2.282,-2.282,-2.2317,-2.1552,-2.0415,-2.1625,-2.1579,-1.9755,-1.9232,-1.8751,-1.8231,-1.792,-1.6865,-1.5015,-1.5813,-1.5817,-1.517,-1.5818,-1.5896,-1.5399,-1.5369,-1.4862,-1.4052,-1.3945,-1.4193,-1.4513,-1.3667,-1.4158,-1.5311,-1.4353,-1.4424,-1.5066,-1.5442,-1.5365,-1.4937,-1.448,-1.3905,-1.3518,-1.4025,-1.4518,-1.4891,-1.4964,-1.5633,-1.6195,-1.5379,-1.5492,-1.5731,-1.5266,-1.5078,-1.5325,-1.6368,-1.6584,-1.7045,-1.8868,-1.974,-2.0495,-2.149,-2.2111,-2.2571,-2.2911,-2.3528,-2.3755,-2.3103,-2.343,-2.3434,-2.266,-2.2407,-2.2279,-2.2227,-2.2149,-2.2109,-2.2187,-2.1939,-2.1761,-2.1718,-2.1006,-2.0803,-2.1294,-1.9851,-1.9529,-2.0606,-1.889,-1.8273,-1.8765,-1.7748,-1.7036,-1.6637,-1.6552,-1.6522,-1.6522,-1.6522,-1.6238,-1.5688,-1.4971,-1.4422,-1.3862,-1.32,-1.2881,-1.2881,-1.2881,-1.2881,-1.2881,-2.1731,-2.0613,-1.9751,-1.9934,-2.0157,-2.1419,-2.4784,-2.5531,-2.5703,-2.5703,-2.5471,-2.5303,-2.5303,-2.5061,-2.4898,-2.4898,-2.2402,-2.0753,-2.0579,-2.0663,-2.0527,-2.0052,-1.9793,-1.9365,-1.8716,-1.827,-1.7193,-1.5505,-1.564,-1.5162,-1.4117,-1.4547,-1.456,-1.4156,-1.4484,-1.437,-1.392,-1.3894,-1.3739,-1.3446,-1.37,-1.3946,-1.4151,-1.4341,-1.4831,-1.5475,-1.5858,-1.5974,-1.5947,-1.5979,-1.5237,-1.4455,-1.5221,-1.5122,-1.4922,-1.5953,-1.6047,-1.5881,-1.6208,-1.6358,-1.6384,-1.6308,-1.5932,-1.5977,-1.7499,-1.7061,-1.6848,-1.8582,-1.9412,-2.0061,-2.1015,-2.2258,-2.3281,-2.3602,-2.422,-2.4661,-2.4662,-2.465,-2.4369,-2.3674,-2.2824,-2.2515,-2.3073,-2.2684,-2.26,-2.3017,-2.2728,-2.2439,-2.2237,-2.1395,-2.0717,-2.0233,-1.9831,-1.9386,-1.8993,-1.9281,-1.9031,-1.8224,-1.8048,-1.7706,-1.7188,-1.671,-1.6522,-1.6522,-1.6522,-1.6466,-1.6281,-1.5152,-1.4652,-1.4468,-1.3334,-1.2881,-1.2881,-1.2881,-1.2881,-1.2881,-2.3236,-2.2652,-2.2042,-2.2042,-2.2615,-2.3592,-2.5072,-2.5531,-2.5703,-2.5703,-2.5471,-2.5303,-2.5303,-2.5303,-2.5303,-2.5303,-2.4036,-2.2485,-2.0722,-2.0536,-2.0391,-2.0104,-2.0009,-1.9658,-1.9036,-1.8664,-1.7938,-1.6781,-1.6322,-1.5706,-1.4962,-1.5249,-1.5305,-1.5154,-1.5282,-1.4966,-1.433,-1.4265,-1.4019,-1.373,-1.3833,-1.4251,-1.4822,-1.5012,-1.5819,-1.6844,-1.7315,-1.7378,-1.7175,-1.685,-1.6227,-1.5742,-1.6306,-1.6316,-1.63,-1.7042,-1.6941,-1.6641,-1.6886,-1.671,-1.6522,-1.6522,-1.6333,-1.6488,-1.7799,-1.7691,-1.7819,-1.9688,-2.0537,-2.1249,-2.2264,-2.3272,-2.4067,-2.4325,-2.4601,-2.4842,-2.4986,-2.4949,-2.4847,-2.4662,-2.4075,-2.3799,-2.4122,-2.3547,-2.3185,-2.3194,-2.2898,-2.2573,-2.2293,-2.1295,-2.0768,-2.0896,-1.9577,-1.9101,-1.9577,-1.8995,-1.8496,-1.8106,-1.7787,-1.7394,-1.6837,-1.6595,-1.6522,-1.6522,-1.6522,-1.6522,-1.6423,-1.5555,-1.5005,-1.4606,-1.3742,-1.32,-1.2881,-1.2881,-1.2881,-1.2881]},{"header":{"parameterUnit":"m.s-1","parameterCategory":1,"la1":30.6,"la2":28.766,"lo1":-90.7593,"lo2":-88.6598,"dy":0.0162,"dx":0.0183,"nx":116,"ny":114,"refTime":"2024-05-15T06:00:00:Z","depth":0,"parameterNumber":3,"parameterNumberName":"V-component_of_WINDS"},"data":[0.0,0.0,0.0,0.0,0.0,0.0,0.0,0.0,0.0,0.0,0.0,0.0,0.0,0.0,0.0,0.0,0.0,0.0,0.0,0.0,0.0,0.0,0.0,0.0,0.0,0.0,0.0,0.0,0.0,0.0,0.0,0.0,0.0,0.0,0.0,0.0,0.0,0.0,0.0,0.0,0.0,0.0,0.0,0.0,0.0,0.0,0.0,0.0,0.0,0.0,0.0,0.0,0.0,0.0,0.0,0.0,0.0,0.0,0.0,0.0,0.0,0.0,0.0,0.0,0.0,0.0,0.0,0.0,0.0,0.0,0.0,0.0,0.0,0.0,0.0,0.0,0.0,0.0,0.0,0.0,0.0,0.0,0.0,0.0,0.0,0.0,0.0,0.0,0.0,0.0,0.0,0.0,0.0,0.0,0.0,0.0,0.0,0.0,0.0,0.0,0.0,0.0,0.0,0.0,0.0,0.0,0.0,0.0,0.0,0.0,0.0,0.0,0.0,0.0,0.0,0.0,0.0,0.0,0.0,0.0,0.0,0.0,0.0,0.0,0.0,0.0,0.0,0.0,0.0,0.0,0.0,0.0,0.0,0.0,0.0,0.0,0.0,0.0,0.0,0.0,0.0,0.0,0.0,0.0,0.0,0.0,0.0,0.0,0.0,0.0,0.0,0.0,0.0,0.0,0.0,0.0,0.0,0.0,0.0,0.0,0.0,0.0,0.0,0.0,0.0,0.0,0.0,0.0,0.0,0.0,0.0,0.0,0.0,0.0,0.0,0.0,0.0,0.0,0.0,0.0,0.0,0.0,0.0,0.0,0.0,0.0,0.0,0.0,0.0,0.0,0.0,0.0,0.0,0.0,0.0,0.0,0.0,0.0,0.0,0.0,0.0,0.0,0.0,0.0,0.0,0.0,0.0,0.0,0.0,0.0,0.0,0.0,0.0,0.0,0.0,0.0,0.0,0.0,0.0,0.0,0.0,0.0,0.0,0.0,0.0,0.0,0.0,0.0,0.0,0.0,0.0,0.0,0.0,0.0,0.0,0.0,0.0,0.0,0.0,0.0,0.0,0.0,0.0,0.0,0.0,0.0,0.0,0.0,0.0,0.0,0.0,0.0,0.0,0.0,0.0,0.0,0.0,0.0,0.0,0.0,0.0,0.0,0.0,0.0,0.0,0.0,0.0,0.0,0.0,0.0,0.0,0.0,0.0,0.0,0.0,0.0,0.0,0.0,0.0,0.0,0.0,0.0,0.0,0.0,0.0,0.0,0.0,0.0,0.0,0.0,0.0,0.0,0.0,0.0,0.0,0.0,0.0,0.0,0.0,0.0,0.0,0.0,0.0,0.0,0.0,0.0,0.0,0.0,0.0,0.0,0.0,0.0,0.0,0.0,0.0,0.0,0.0,0.0,0.0,0.0,0.0,0.0,0.0,0.0,0.0,0.0,0.0,0.0,0.0,0.0,0.0,0.0,0.0,0.0,0.0,0.0,0.0,0.0,0.0,0.0,0.0,0.0,0.0,0.0,0.0,0.0,0.0,0.0,0.0,0.0,0.0,0.0,0.0,0.0,0.0,0.0,0.0,0.0,0.0,0.0,0.0,0.0,0.0,0.0,0.0,0.0,0.0,0.0,0.0,0.0,0.0,0.0,0.0,0.0,0.0,0.0,0.0,0.0,0.0,0.0,0.0,0.0,0.0,0.0,0.0,0.0,0.0,0.0,0.0,0.0,0.0,0.0,0.0,0.0,0.0,0.0,0.0,0.0,0.0,0.0,0.0,0.0,0.0,0.0,0.0,0.0,0.0,0.0,0.0,0.0,0.0,0.0,0.0,0.0,0.0,0.0,0.0,0.0,0.0,0.0,0.0,0.0,0.0,0.0,0.0,0.0,0.0,0.0,0.0,0.0,0.0,0.0,0.0,0.0,0.0,0.0,0.0,0.0,0.0,0.0,0.0,0.0,0.0,0.0,0.0,0.0,0.0,0.0,0.0,0.0,0.0,0.0,0.0,0.0,0.0,0.0,0.0,0.0,0.0,0.0,0.0,0.0,0.0,0.0,0.0,0.0,0.0,0.0,0.0,0.0,0.0,0.0,0.0,0.0,0.0,0.0,0.0,0.0,0.0,0.0,0.0,0.0,0.0,0.0,0.0,0.0,0.0,0.0,0.0,0.0,0.0,0.0,0.0,0.0,0.0,0.0,0.0,0.0,0.0,0.0,0.0,0.0,0.0,0.0,0.0,0.0,0.0,0.0,0.0,0.0,0.0,0.0,0.0,0.0,0.0,0.0,0.0,0.0,0.0,0.0,0.0,0.0,0.0,0.0,0.0,0.0,0.0,0.0,0.0,0.0,0.0,0.0,0.0,0.0,0.0,0.0,0.0,0.0,0.0,0.0,0.0,0.0,0.0,0.0,0.0,0.0,0.0,0.0,0.0,0.0,0.0,0.0,0.0,0.0,0.0,0.0,0.0,0.0,0.0,0.0,0.0,0.0,0.0,0.0,0.0,0.0,0.0,0.0,0.0,0.0,0.0,0.0,0.0,0.0,0.0,0.0,0.0,0.0,0.0,0.0,0.0,0.0,0.0,0.0,0.0,0.0,0.0,0.0,0.0,0.0,0.0,0.0,0.0,0.0,0.0,0.0,0.0,0.0,0.0,0.0,0.0,0.0,0.0,0.0,0.0,0.0,0.0,0.0,0.0,0.0,0.0,0.0,0.0,0.0,0.0,0.0,0.0,0.0,0.0,0.0,0.0,0.0,0.0,0.0,0.0,0.0,0.0,0.0,0.0,0.0,0.0,0.0,0.0,0.0,0.0,0.0,0.0,0.0,0.0,0.0,0.0,0.0,0.0,0.0,0.0,0.0,0.0,0.0,0.0,0.0,0.0,0.0,0.0,0.0,0.0,0.0,0.0,0.0,0.0,0.0,0.0,0.0,0.0,0.0,0.0,0.0,0.0,0.0,0.0,0.0,0.0,0.0,0.0,0.0,0.0,0.0,0.0,0.0,0.0,0.0,0.0,0.0,0.0,0.0,0.0,0.0,0.0,0.0,0.0,0.0,0.0,0.0,0.0,0.0,0.0,0.0,0.0,0.0,0.0,0.0,0.0,0.0,0.0,0.0,0.0,0.0,0.0,0.0,0.0,0.0,0.0,0.0,0.0,0.0,0.0,0.0,0.0,0.0,0.0,0.0,0.0,0.0,0.0,0.0,0.0,0.0,0.0,0.0,0.0,0.0,0.0,0.0,0.0,0.0,0.0,0.0,0.0,0.0,0.0,0.0,0.0,0.0,0.0,0.0,0.0,0.0,0.0,0.0,0.0,0.0,0.0,0.0,0.0,0.0,0.0,0.0,0.0,0.0,0.0,0.0,0.0,0.0,0.0,0.0,0.0,0.0,0.0,0.0,0.0,0.0,0.0,0.0,0.0,0.0,0.0,0.0,0.0,0.0,0.0,0.0,0.0,0.0,0.0,0.0,0.0,0.0,0.0,0.0,0.0,0.0,0.0,0.0,0.0,0.0,0.0,0.0,0.0,0.0,0.0,0.0,0.0,0.0,0.0,0.0,0.0,0.0,0.0,0.0,0.0,0.0,0.0,0.0,0.0,0.0,0.0,0.0,0.0,0.0,0.0,0.0,0.0,0.0,0.0,0.0,0.0,0.0,0.0,0.0,0.0,0.0,0.0,0.0,0.0,0.0,0.0,0.0,0.0,0.0,0.0,0.0,0.0,0.0,0.0,0.0,0.0,0.0,0.0,0.0,0.0,0.0,0.0,0.0,0.0,0.0,0.0,0.0,0.0,0.0,0.0,0.0,0.0,0.0,0.0,0.0,0.0,0.0,0.0,0.0,0.0,0.0,0.0,0.0,0.0,0.0,0.0,0.0,0.0,0.0,0.0,0.0,0.0,0.0,0.0,0.0,0.0,0.0,0.0,0.0,0.0,0.0,0.0,0.0,0.0,0.0,0.0,0.0,0.0,0.0,0.0,0.0,0.0,0.0,0.0,0.0,0.0,0.0,0.0,0.0,0.0,0.0,0.0,0.0,0.0,0.0,0.0,0.0,0.0,0.0,0.0,0.0,0.0,0.0,0.0,0.0,0.0,0.0,0.0,0.0,0.0,0.0,0.0,0.0,0.0,0.0,0.0,0.0,0.0,0.0,0.0,0.0,0.0,0.0,0.0,0.0,0.0,0.0,0.0,0.0,0.0,0.0,0.0,0.0,0.0,0.0,0.0,0.0,0.0,0.0,0.0,0.0,0.0,0.0,0.0,0.0,0.0,0.0,0.0,0.0,0.0,0.0,0.0,0.0,0.0,0.0,0.0,0.0,0.0,0.0,0.0,0.0,0.0,0.0,0.0,0.0,0.0,0.0,0.0,0.0,0.0,0.0,0.0,0.0,0.0,0.0,0.0,0.0,0.0,0.0,0.0,0.0,0.0,0.0,0.0,0.0,0.0,0.0,0.0,0.0,0.0,0.0,0.0,0.0,0.0,0.0,0.0,0.0,0.0,0.0,0.0,0.0,0.0,0.0,0.0,0.0,0.0,0.0,0.0,0.0,0.0,0.0,0.0,0.0,0.0,0.0,0.0,0.0,0.0,0.0,0.0,0.0,0.0,0.0,0.0,0.0,0.0,0.0,0.0,0.0,0.0,0.0,0.0,0.0,0.0,0.0,0.0,0.0,0.0,0.0,0.0,0.0,0.0,0.0,0.0,0.0,0.0,0.0,0.0,0.0,0.0,0.0,0.0,0.0,0.0,0.0,0.0,0.0,0.0,0.0,0.0,0.0,0.0,0.0,0.0,0.0,0.0,0.0,0.0,0.0,0.0,0.0,0.0,0.0,0.0,0.0,0.0,0.0,0.0,0.0,0.0,0.0,0.0,0.0,0.0,0.0,0.0,0.0,0.0,0.0,0.0,0.0,0.0,0.0,0.0,0.0,0.0,0.0,0.0,0.0,0.0,0.0,0.0,0.0,0.0,0.0,0.0,0.0,0.0,0.0,0.0,0.0,0.0,0.0,0.0,0.0,0.0,0.0,0.0,0.0,0.0,0.0,0.0,0.0,0.0,0.0,0.0,0.0,0.0,0.0,0.0,0.0,0.0,0.0,0.0,0.0,0.0,0.0,0.0,0.0,0.0,0.0,0.0,0.0,0.0,0.0,0.0,0.0,0.0,0.0,0.0,0.0,0.0,0.0,0.0,0.0,0.0,0.0,0.0,0.0,0.0,0.0,0.0,0.0,0.0,0.0,0.0,0.0,0.0,0.0,0.0,0.0,0.0,0.0,0.0,0.0,0.0,0.0,0.0,0.0,0.0,0.0,0.0,0.0,0.0,0.0,0.0,0.0,0.0,0.0,0.0,0.0,0.0,0.0,0.0,0.0,0.0,0.0,0.0,0.0,0.0,0.0,0.0,0.0,0.0,0.0,0.0,0.0,0.0,0.0,0.0,0.0,0.0,0.0,0.0,0.0,0.0,0.0,0.0,0.0,0.0,0.0,0.0,0.0,0.0,0.0,0.0,0.0,0.0,0.0,0.0,0.0,0.0,0.0,0.0,0.0,0.0,0.0,0.0,0.0,0.0,0.0,0.0,0.0,0.0,0.0,0.0,0.0,0.0,0.0,0.0,0.0,0.0,0.0,0.0,0.0,0.0,0.0,0.0,0.0,0.0,0.0,0.0,0.0,0.0,0.0,0.0,0.0,0.0,0.0,0.0,0.0,0.0,0.0,0.0,0.0,0.0,0.0,0.0,0.0,0.0,0.0,0.0,0.0,0.0,0.0,0.0,0.0,0.0,0.0,0.0,0.0,0.0,0.0,0.0,0.0,0.0,0.0,0.0,0.0,0.0,0.0,0.0,0.0,0.0,0.0,0.0,0.0,0.0,0.0,0.0,0.0,0.0,0.0,0.0,0.0,0.0,0.0,0.0,0.0,0.0,0.0,0.0,0.0,0.0,0.0,0.0,0.0,0.0,0.0,0.0,0.0,0.0,0.0,0.0,0.0,0.0,0.0,0.0,0.0,0.0,0.0,0.0,0.0,0.0,0.0,0.0,0.0,0.0,0.0,0.0,0.0,0.0,0.0,0.0,0.0,0.0,0.0,0.0,0.0,0.0,0.0,-1.1436,0.0,0.0,0.0,0.0,0.0,0.0,0.0,0.0,0.0,0.0,0.0,0.0,0.0,0.0,0.0,0.0,0.0,0.0,0.0,0.0,0.0,0.0,0.0,0.0,0.0,0.0,0.0,0.0,-0.0269,-0.0893,0.0,0.0,0.0,0.0,0.0,-0.3827,-0.3967,-0.3994,-0.3949,-0.4211,-0.389,-0.3095,-0.331,-0.3809,-0.4483,0.0,0.0,0.0,0.0,0.0,0.0,0.0,0.0,0.0,0.0,0.0,0.0,0.0,0.0,0.0,0.0,0.0,0.0,0.0,0.0,0.0,0.0,0.0,0.0,0.0,0.0,0.0,0.0,0.0,0.0,0.0,0.0,0.0,0.0,0.0,0.0,0.0,0.0,0.0,0.0,0.0,0.0,0.0,0.0,0.0,0.0,0.0,0.0,0.0,0.0,0.0,0.0,0.0,0.0,0.0,0.0,0.0,0.0,0.0,0.0,0.0,0.0,0.0,0.0,0.0,0.0,0.0,0.0,0.0,0.0,0.0,-1.0791,0.0,0.0,0.0,0.0,0.0,0.0,0.0,0.0,0.0,0.0,0.0,0.0,0.0,0.0,0.0,0.0,0.0,0.0,0.0,0.0,0.0,0.0,0.0,0.0,0.0,0.0,0.0,0.0,0.0,-0.2059,0.0,0.0,0.0,-0.3605,-0.3656,-0.4129,-0.4248,-0.4034,-0.4228,-0.3754,-0.2599,-0.2319,-0.2863,-0.4115,-0.4088,0.0,0.0,0.0,0.0,0.0,0.0,0.0,0.0,0.0,0.0,0.0,0.0,0.0,0.0,0.0,0.0,0.0,0.0,0.0,0.0,0.0,0.0,0.0,0.0,0.0,0.0,0.0,0.0,0.0,0.0,0.0,0.0,0.0,0.0,0.0,0.0,0.0,0.0,0.0,0.0,0.0,0.0,0.0,0.0,0.0,0.0,0.0,0.0,0.0,0.0,0.0,0.0,0.0,0.0,0.0,0.0,0.0,0.0,0.0,0.0,0.0,0.0,0.0,-1.1416,-1.0732,-1.0732,-1.0732,-1.0732,-1.0773,-1.1195,-1.1155,-1.0881,-1.2762,0.0,0.0,0.0,0.0,0.0,0.0,0.0,0.0,0.0,0.0,0.0,0.0,0.0,0.0,0.0,0.0,0.0,0.0,0.0,0.0,0.0,0.0,0.0,0.0,0.0,0.0,0.0,-0.1295,0.0,0.0,-0.3581,-0.37,-0.3958,-0.3897,-0.4001,-0.4179,-0.3875,-0.3876,-0.4193,-0.2839,-0.2303,-0.2505,-0.2485,-0.3226,-0.4407,0.0,0.0,0.0,0.0,0.0,0.0,0.0,0.0,0.0,0.0,0.0,0.0,0.0,0.0,0.0,0.0,0.0,0.0,0.0,0.0,0.0,0.0,0.0,0.0,0.0,0.0,0.0,0.0,0.0,0.0,0.0,0.0,0.0,0.0,0.0,0.0,0.0,0.0,0.0,0.0,0.0,-0.9673,-1.2067,0.0,0.0,0.0,0.0,0.0,0.0,0.0,0.0,0.0,0.0,0.0,0.0,0.0,-1.0625,-1.0625,-1.2119,-1.2881,-1.2881,-1.2646,-1.2539,-1.2539,-1.2539,-1.2539,-1.2671,-1.476,0.0,-1.2738,-1.5093,0.0,0.0,0.0,0.0,0.0,0.0,0.0,0.0,0.0,0.0,0.0,0.0,0.0,0.0,0.0,0.0,0.0,0.0,0.0,0.0,0.0,0.0,0.0,0.0,0.0,0.0,0.0,-0.0486,-0.1714,-0.3717,-0.3674,-0.3717,-0.4012,-0.387,-0.3565,-0.3081,-0.3776,-0.4247,-0.4467,-0.205,-0.0953,-0.0981,-0.0964,-0.1335,-0.2018,-0.3079,0.0,0.0,0.0,0.0,0.0,0.0,0.0,0.0,0.0,0.0,0.0,0.0,0.0,0.0,0.0,0.0,0.0,0.0,0.0,0.0,0.0,0.0,0.0,0.0,0.0,0.0,0.0,0.0,0.0,0.0,0.0,0.0,0.0,0.0,0.0,0.0,0.0,0.0,0.0,-0.8206,-0.8569,-1.0745,-1.0474,-1.0538,0.0,0.0,0.0,0.0,0.0,0.0,0.0,0.0,0.0,-1.1416,-1.1631,-1.1738,-1.1738,-1.25,-1.2881,-1.2881,-1.2881,-1.2881,-1.2881,-1.2881,-1.3658,-1.4971,-1.6064,-1.5876,-1.5017,-1.6064,-1.6522,-1.6522,0.0,0.0,0.0,0.0,-1.7271,-1.8419,0.0,0.0,0.0,0.0,0.0,0.0,0.0,0.0,0.0,0.0,0.0,0.0,0.0943,0.0628,0.0443,0.0471,0.0175,0.0,0.0,0.0,-0.1217,-0.392,-0.3848,-0.3808,-0.3966,-0.3877,-0.3485,-0.2776,-0.3146,-0.336,-0.3278,-0.1047,0.0,0.0,0.0,0.0,-0.0159,-0.2417,-0.2063,0.0,0.0,0.0,0.0,0.0,0.0,0.0,0.0,0.0,0.0,0.0,0.0,0.0,0.0,0.0,0.0,0.0,0.0,0.0,0.0,0.0,0.0,0.0,0.0,0.0,0.0,0.0,0.0,0.0,0.0,0.0,0.0,0.0,0.0,0.0,0.0,0.0,0.0,-0.7945,-0.7833,-0.8891,-0.8812,-0.9227,0.0,0.0,0.0,0.0,0.0,0.0,-1.2861,-1.2273,-1.1612,-1.0989,-1.2207,-1.2881,-1.2881,-1.2881,-1.2881,-1.2881,-1.2881,-1.2881,-1.2881,-1.2881,-1.4201,-1.6522,-1.6522,-1.6522,-1.6522,-1.6522,-1.6522,-1.6522,-1.6522,-1.6522,-1.6522,-1.6522,-1.7867,-1.969,0.0,0.0,0.0,0.0,0.0,0.0,0.0,0.0,0.0,0.0,0.0,0.3433,0.3433,0.2375,0.1695,0.1692,0.0645,0.0,0.0,0.0,-0.1268,-0.4073,-0.4157,-0.4072,-0.3929,-0.3949,-0.41,-0.4361,-0.1592,-0.0239,-0.0211,-0.0053,0.0,0.0,0.0,0.0,-0.0,-0.0154,-0.0155,0.0,0.0,0.0,0.0,0.0,0.0,0.0,0.0,0.0,0.0,0.0,0.0,0.0,0.0,0.0,0.0,0.0,0.0,0.0,0.0,0.0,0.0,0.0,0.0,0.0,0.0,0.0,0.0,0.0,0.0,0.0,0.0,0.0,0.0,0.0,0.0,0.0,0.0,0.0,0.0,-0.7755,-0.9432,0.0,0.0,0.0,0.0,-1.0577,-1.041,-1.1133,-1.2793,-1.497,-1.5136,-1.284,-1.2832,-1.2881,-1.2881,-1.2881,-1.2881,-1.2881,-1.2881,-1.2881,-1.2881,-1.2881,-1.4201,-1.6522,-1.6522,-1.6522,-1.6522,-1.6522,-1.6522,-1.6522,-1.6522,-1.6522,-1.6522,-1.6522,-1.7867,-1.969,0.0,0.0,0.0,0.0,0.0,0.0,0.0,0.0,0.0,0.0,0.2113,0.3747,0.4137,0.3608,0.3141,0.2965,0.258,0.1984,0.1229,0.0263,-0.0727,-0.1721,-0.2505,-0.3246,-0.388,-0.4156,-0.4215,-0.3919,-0.1278,0.0,0.0,0.0,0.0,0.0,0.0,0.0,0.0,0.0,0.0,0.0,0.0,0.0,0.0,0.0,0.0,0.0,0.0,0.0,0.0,0.0,0.0,0.0,0.0,0.0,0.0,0.0,0.0,0.0,0.0,0.0,0.0,0.0,0.0,0.0,0.0,0.0,0.0,0.0,0.0,0.0,0.0,0.0,0.0,0.0,0.0,0.0,0.0,0.0,0.0,-1.0033,-0.9895,0.0,-1.2095,-1.1824,-1.1655,-1.1957,-1.1953,-1.2227,-1.2852,-1.3705,-1.38,-1.2929,-1.2881,-1.3408,-1.4502,-1.4512,-1.4512,-1.4502,-1.3408,-1.2881,-1.292,-1.4014,-1.5246,-1.6522,-1.6522,-1.6522,-1.6522,-1.6522,-1.6522,-1.6522,-1.6522,-1.6522,-1.6685,-1.8103,-2.0157,-2.2203,0.0,0.0,0.0,0.0,0.0,0.0,0.0,0.0,0.0,0.0,0.1749,0.3342,0.4211,0.4069,0.3868,0.3673,0.3572,0.3167,0.2454,0.1511,0.0582,-0.0246,-0.2001,-0.3329,-0.4073,-0.4341,-0.3789,-0.237,-0.0771,0.0,0.0,0.0,0.0,0.0,0.0,0.0,0.0,0.0,0.0,0.0,0.0,0.0,-0.0106,0.0,0.0,0.0,0.0,0.0,0.0,0.0,0.0,0.0,0.0,0.0,0.0,0.0,0.0,0.0,0.0,0.0,0.0,0.0,0.0,0.0,0.0,0.0,0.0,0.0,0.0,0.0,0.0,0.0,0.0,0.0,0.0,0.0,0.0,0.0,-0.949,-1.0655,-1.0387,-1.0768,-1.2549,-1.2219,-1.2289,-1.325,-1.3574,-1.3486,-1.291,-1.3428,-1.3477,-1.29,-1.3437,-1.4277,-1.54,-1.541,-1.541,-1.54,-1.4268,-1.373,-1.3769,-1.4902,-1.5693,-1.6157,-1.7186,-1.7626,-1.7626,-1.7626,-1.7626,-1.7626,-1.7626,-1.7626,-1.7802,-1.9258,-2.1411,-2.3595,0.0,0.0,0.0,0.0,0.0,0.0,0.0,0.0,0.0,0.0,0.1029,0.2318,0.3816,0.3906,0.3792,0.3792,0.349,0.3407,0.3581,0.3616,0.2516,0.0095,-0.2778,-0.4412,-0.4514,-0.4408,-0.2936,0.0,0.0,0.0,0.0,0.0,0.0,0.0,0.0,0.0,0.0,0.0,0.0,0.0,0.0,0.0,0.0,0.0,0.0,0.0,0.0,0.0,0.0,0.0,0.0,0.0,0.0,0.0,0.0,0.0,0.0,0.0,0.0,0.0,0.0,0.0,0.0,0.0,0.0,0.0,0.0,0.0,0.0,0.0,0.0,0.0,0.0,0.0,0.0,0.0,-0.9492,-0.9545,-0.9657,-0.9533,-1.0934,-1.1911,-1.1983,-1.3277,-1.4063,-1.4116,-1.4941,-1.4697,-1.3047,-1.4521,-1.4658,-1.3018,-1.4661,-1.5459,-1.541,-1.5468,-1.5517,-1.5517,-1.5468,-1.541,-1.541,-1.5469,-1.5517,-1.569,-1.8531,-1.9798,-1.9798,-1.9798,-1.9798,-1.9798,-1.9798,-1.9798,-1.9798,-1.9798,-2.1363,-2.3508,0.0,0.0,0.1025,0.0171,0.0,0.0,0.0,0.0,0.0,0.0,0.0269,0.1378,0.3762,0.3928,0.3849,0.3792,0.3626,0.3463,0.339,0.351,0.2502,0.0099,-0.0783,-0.2261,-0.4435,-0.2353,-0.0808,0.0,0.0,0.0,0.0,0.0,0.0,0.0,0.0,0.0,0.0,0.0,0.0,0.0,0.0,0.0,0.0,0.0,0.0,0.0,0.0,0.0,0.0,0.0,0.0,0.0,0.0,0.0,0.0,0.0,0.0,0.0,0.0,0.0,0.0,0.0,0.0,0.0,0.0,0.0,0.0,0.0,0.0,0.0,0.0,0.0,0.0,0.0,0.0,-1.1165,-1.0757,-1.123,-1.1928,-1.2715,-1.2547,-1.2935,-1.4315,-1.3763,-1.3772,-1.4945,-1.5273,-1.5205,-1.4736,-1.5156,-1.5195,-1.4736,-1.7222,-1.7556,-1.541,-1.7501,-1.8596,-1.8531,-1.6404,-1.541,-1.5449,-1.6719,-1.7737,-1.865,-1.9475,-1.9798,-1.9798,-1.9798,-1.9798,-1.9798,-1.9798,-1.9798,-1.9798,-1.9798,-2.0232,-2.1135,0.0,0.2493,0.2136,0.159,0.0685,0.0,0.0,0.0,0.0,0.0,0.0,0.0774,0.2871,0.3485,0.3756,0.3704,0.3612,0.3446,0.3313,0.3034,0.1993,0.0094,0.0,-0.0813,-0.2579,-0.0885,0.0,0.0,0.0,0.0,0.0,0.0,0.0,0.0,0.0,0.0,0.0,0.0,0.0,0.0,0.0,0.0,0.0,0.0,0.0,-0.0105,-0.0984,-0.1288,-0.1288,-0.1294,0.0,0.0,0.0,0.0,0.0,0.0,0.0,0.0,0.0,0.0,0.0,0.0,0.0,0.0,0.0,0.0,0.0,0.0,0.0,0.0,0.0,0.0,0.0,0.0,-1.0901,-1.159,-1.1884,-1.2157,-1.2742,-1.3876,-1.3535,-1.3788,-1.5091,-1.4483,-1.4529,-1.5877,-1.5625,-1.541,-1.541,-1.6103,-1.6162,-1.543,-1.7058,-1.772,-1.7224,-1.8915,-1.9798,-1.9811,-1.9021,-1.8618,-1.8652,-1.9665,-2.0507,-2.1204,-2.1204,-2.1204,-2.1204,-2.1204,-2.0652,0.0,0.0,0.0,0.0,0.0,-2.2101,-2.3142,0.0,0.284,0.3079,0.3433,0.1668,0.017,0.0,0.0,0.0,0.0,0.0,0.0491,0.1818,0.2885,0.3551,0.3578,0.3464,0.3358,0.0,0.2493,0.1413,0.0043,0.0,0.0,0.0,0.0,0.0,0.0,0.0,0.0,0.0,0.0,0.0,0.0,0.0,0.0,0.0,0.0,0.0,0.0,0.0,0.0,0.0,0.0,0.0,0.0,0.0,0.0,0.0,0.0,0.0,0.0,0.0,0.0,0.0,0.0,0.0,0.0,0.0,0.0,0.0,0.0,0.0,0.0,0.0,0.0,0.0,0.0,0.0,0.0,0.0,0.0,0.0,0.0,-1.1488,-1.1939,-1.3027,-1.2824,-1.2914,-1.3809,-1.4209,-1.4583,-1.4894,-1.5295,-1.584,-1.6533,-1.5859,-1.5498,-1.5693,0.0,0.0,0.0,0.0,-1.7166,-2.0122,-2.0175,-2.0049,-1.9823,-2.2071,-2.3078,-2.3078,-2.3078,-2.3078,-2.3078,-2.3078,-2.3078,-2.3078,-2.3078,-2.2116,-2.0656,-2.0656,-2.1905,-2.3657,-2.3966,-2.554,-2.7235,0.0,0.2805,0.2924,0.288,0.2076,0.1136,0.017,0.0,0.0,0.0,0.0,0.0709,0.2658,0.3077,0.3326,0.3566,0.3426,0.3275,0.0,0.0,0.2259,0.0097,0.0,0.0,0.0,0.0,0.0,0.0,0.0,0.0,0.0,0.0,0.0,0.0,0.0,0.0,0.0,0.0,0.0,0.0,0.0,0.0,0.0,0.0,0.0,0.0,0.0,0.0,0.0,0.0,0.0,-0.0097,-0.0665,0.0,0.0,0.0,0.0,0.0,0.0,0.0,0.0,0.0,0.0,0.0,0.0,0.0,0.0,0.0,0.0,0.0,0.0,0.0,0.0,-1.2041,-1.2423,-1.3152,-1.4717,-1.4586,-1.4378,-1.4598,-1.5283,-1.565,-1.5321,-1.5982,-1.625,-1.5713,-1.5508,-1.6025,-1.7432,-1.6494,-1.6406,-1.7471,-1.751,-1.9126,-2.2426,-2.2426,-2.1581,-1.9823,0.0,0.0,-2.3078,-2.3078,-2.3078,-2.3078,-2.3078,-2.3078,-2.3078,-2.3078,-2.4303,-2.6104,-2.6104,-2.6345,-2.6739,-2.6827,-2.7175,-2.7235,0.2872,0.2828,0.2784,0.2711,0.2468,0.1752,0.025,0.0,0.0,0.0,0.0,0.0401,0.1436,0.2475,0.3166,0.3326,0.3409,0.0,0.0,0.3498,0.2503,0.0098,0.0,0.0,0.0,0.0,0.0,0.0,0.0,0.0,0.0,0.0,0.0,0.0,0.0,0.0,0.0,0.0,0.0,0.0,0.0,0.0,0.0,0.0,0.0,0.0,0.0,0.0,0.0,0.0,0.0,0.0,0.0,-0.0562,-0.1582,0.0,0.0,0.0,0.0,0.0,0.0,0.0,0.0,0.0,0.0,0.0,0.0,0.0,0.0,-1.0111,0.0,0.0,-1.1995,-1.2837,-1.2917,-1.3393,-1.4885,-1.4922,-1.4941,-1.5371,-1.5615,-1.5879,-1.624,-1.6152,-1.625,-1.668,-1.6709,-1.709,-1.7959,-1.7187,-1.7109,-1.7978,-1.9683,-2.1342,-2.3065,-2.3078,-2.2573,-2.1481,-2.2539,-2.3078,-2.3078,-2.3078,-2.3904,-2.5356,-2.5356,-2.4526,-2.3245,-2.4741,-2.624,-2.7625,-2.7625,-2.7625,-2.7625,-2.7625,-2.7426,-2.6971,0.3044,0.2877,0.2727,0.274,0.2733,0.2142,0.049,0.0125,0.0,0.0,0.0,0.0,0.0,0.1494,0.258,0.2752,0.0,0.0,0.0,0.3239,0.203,0.0097,0.0,0.0,0.0,0.0,0.0,0.0,0.0,0.0,0.0,0.0,0.0,0.0,0.0,0.0,0.0,0.0,0.0,0.0,0.0,0.0,0.0,0.0,0.0,0.0,0.0,-0.0201,-0.049,-0.014,0.0,0.0,0.0,-0.0218,-0.0804,-0.2751,-0.3589,0.0,0.0,0.0,0.0,0.0,0.0,0.0,0.0,0.0,-0.8724,-0.8437,-0.9736,-1.092,-1.092,-1.1861,-1.2933,-1.3743,-1.3612,-1.3802,-1.4914,-1.5029,-1.5303,-1.6016,-1.5791,-1.5898,-1.6719,-1.6269,-1.6357,-1.7422,-1.7822,-1.8008,-1.8008,-1.832,-1.8506,-1.8506,-2.1487,-2.3078,-2.3078,-2.3078,-2.3351,-2.3766,-2.3901,-2.4256,-2.4747,-2.4747,-2.6061,-2.8308,-2.785,-2.624,-2.4221,-2.7161,-2.8038,-2.766,-2.8125,-2.8304,-2.8304,-2.8304,-2.7977,-2.7571,0.0,0.3039,0.289,0.2871,0.2772,0.2342,0.133,0.0491,0.0,0.0,0.0,0.0,0.0,0.0205,0.0649,0.1451,0.0837,0.0,0.4249,0.1908,0.0301,0.0,0.0,0.0,0.0,0.0,0.0,0.0,0.0,0.0,0.0,0.0,0.0,0.0,0.0,0.0,0.0,0.0,0.0,0.0,0.0,0.0,0.0,0.0,0.0,0.0,0.0,-0.1044,-0.2161,-0.0537,0.0,0.0,0.0,-0.0898,-0.1994,-0.2281,-0.3067,-0.4116,-0.5231,-0.633,-0.7324,-0.7717,-0.8113,-0.8417,0.0,0.0,-0.8724,-0.8437,-1.0028,-1.1406,-1.1406,-1.2795,-1.4198,-1.5078,-1.5119,-1.5303,-1.5859,-1.5978,-1.6006,-1.623,-1.6221,-1.6035,-1.5644,-1.6894,-1.7158,-1.5801,-1.7139,-1.8008,-1.8008,-1.9453,-2.0283,-2.0283,-2.2139,-2.3078,-2.3078,-2.3078,-2.413,-2.6131,-2.6792,-2.8331,-3.0586,-3.0586,-3.0717,-3.0956,-2.8592,-2.7408,-2.7299,-2.9993,-2.9699,-2.7795,-2.9978,-3.0781,-3.0781,-3.0781,-3.0757,-3.07,0.0,0.3364,0.3225,0.3049,0.2828,0.2401,0.1432,0.0557,0.0,0.0,0.0,0.0,0.0,0.0,0.0139,0.049,0.0229,0.0548,0.1808,0.0707,0.0,0.0,0.0,0.0,0.0,0.0,0.0,0.0,0.0,0.0,0.0,0.0,0.0,0.0,0.0,0.0,0.0,0.0,0.0,0.0,0.0,0.0,0.0,0.0,0.0,-0.0252,-0.1996,-0.4205,0.0,0.0,-0.1334,-0.1028,-0.1067,-0.2153,-0.3591,-0.4059,-0.4858,-0.5641,-0.5929,-0.6779,-0.7605,-0.7984,-0.8502,-0.8878,-0.8878,-0.9105,-0.9398,-0.9556,-1.0739,-1.1889,-1.234,-1.3168,-1.4138,0.0,-1.526,-1.5444,-1.6325,-1.6006,-1.5881,-1.6305,-1.6009,-1.6487,-1.8235,-1.9094,-1.8788,-1.7037,-1.9414,-2.1541,-2.2856,-2.2389,-2.206,-2.206,-2.2696,-2.3753,-2.5059,-2.5071,-2.5536,-2.6521,-2.8822,-3.0462,-3.1482,-3.1482,-3.1482,-3.1422,-3.0357,-3.175,-3.4686,-3.2425,-3.1782,-3.2348,-3.3383,-3.3761,-3.3558,-3.1833,-3.119,-3.1444,0.0,0.3357,0.3499,0.3245,0.2981,0.2549,0.1789,0.0737,0.0,0.0,0.0,0.0,0.0,0.0,0.0,0.0,-0.0609,-0.0921,-0.0778,-0.0294,0.0,0.0,0.0,0.0,0.0,0.0,0.0,0.0,0.0,0.0,0.0,0.0,0.0,0.0,0.0,0.0,0.0,0.0,0.0,0.0,0.0,0.0,0.0,0.0,-0.0414,-0.1397,-0.455,-0.6745,0.0,-0.5264,-0.3579,-0.2643,-0.2904,-0.3869,-0.5047,-0.5859,-0.6566,-0.7067,-0.7057,-0.7487,-0.8131,-0.854,-0.8931,-0.9203,-0.9345,-0.9758,-1.0249,-1.0621,-1.1599,-1.2591,-1.3273,-1.3679,-1.4411,-1.588,-1.6043,-1.636,-1.7458,-1.7063,-1.6557,-1.6304,-1.6095,-1.7233,-2.0389,-2.107,-2.0782,-1.9486,-2.2261,-2.4494,-2.5485,-2.4594,-2.4054,-2.4054,-2.4054,-2.482,-2.6508,-2.6533,-2.6973,-2.792,-3.0329,-3.1855,-3.2632,-3.2632,-3.3044,-3.3848,-3.2975,-3.5485,-3.98,-3.5566,-3.5049,-3.6772,-3.5943,-3.5622,-3.5368,-3.3203,-3.2774,-3.3569,0.0,0.0,0.3576,0.343,0.3212,0.299,0.2689,0.1138,0.0,0.0,0.0,0.0,0.0,0.0,0.0,0.0,-0.2121,-0.3251,-0.2663,-0.0989,0.0,0.0,0.0,0.0,0.0,0.0,0.0,0.0,0.0,0.0,0.0,0.0,0.0,0.0,0.0,0.0,0.0,0.0,0.0,0.0,0.0,0.0,0.0,0.0,-0.1436,-0.3959,-0.7444,0.0,-0.6868,-0.8172,-0.6807,-0.4789,-0.575,-0.6088,0.0,-0.7132,-0.7489,-0.7829,-0.8476,-0.8685,-0.8818,-0.909,-0.917,-0.9256,-0.9606,-1.0521,-1.1256,-1.1241,-1.2489,-1.3669,-1.4105,-1.4467,-1.5472,-1.7612,-1.8374,-1.8912,-1.9694,-1.9795,-1.8822,-1.6331,-1.6917,-1.8412,0.0,-2.218,-2.3005,-2.2944,-2.5069,-2.5448,-2.3351,-2.5222,-2.6433,-2.6433,-2.6433,-2.6458,-2.6533,-2.6533,-2.8117,-3.1351,-3.1467,-3.2886,-3.5385,-3.5385,-3.7034,-3.9665,-3.6764,-3.7202,-4.007,-3.9919,-3.9885,-3.9648,-3.6755,-3.5622,-3.5605,-3.552,-3.6745,-3.8499,0.0,0.0,0.0,0.3552,0.3355,0.3185,0.3128,0.1819,0.0668,0.008,0.0,0.0,0.0,0.0,0.0,0.0,-0.2211,-0.352,-0.333,-0.2368,-0.1518,-0.0892,-0.033,0.0,0.0,0.0,0.0,0.0,0.0,0.0,0.0,0.0,0.0,0.0,0.0,0.0,0.0,0.0,0.0,0.0,0.0,-0.0719,-0.1989,-0.3914,-0.4164,-0.3938,0.0,0.0,-0.7766,-0.7734,-0.78,-0.7835,-0.7498,-0.7553,-0.7791,-0.8223,-0.8864,-0.939,-0.9119,-0.9365,-0.9746,-1.004,-1.0261,-1.0428,-1.0528,-1.1234,-1.1926,-1.2032,-1.2871,-1.3705,-1.4081,-1.4224,-1.5044,-1.7231,-1.8073,-1.8843,-2.018,-2.0511,-2.0114,-1.8942,-1.909,0.0,0.0,0.0,0.0,-2.3002,-2.3828,-2.3929,-2.3115,-2.5247,-2.755,-2.9766,-2.767,-2.7168,-2.8662,-3.1213,-3.2144,-3.1554,-3.5361,-3.7703,-3.8525,-3.8525,-3.9102,-4.002,-3.9022,-3.914,-4.007,-4.007,-4.007,-3.9969,-3.8971,-3.799,-3.7415,-3.9926,-4.1288,-4.157,0.0,0.0,0.0,0.0,0.0,0.0,0.0,0.0,0.0,0.0,0.0,0.0,0.0,0.0,0.0,0.0,0.0,-0.3122,-0.3582,-0.3255,-0.2669,-0.1921,-0.141,-0.0759,-0.0,0.0,0.0,0.0,0.0,0.0,0.0,0.0,0.0,0.0,0.0,0.0,-0.006,-0.0708,-0.0991,-0.0918,-0.0752,-0.1592,-0.3241,-0.5413,-0.5458,0.0,0.0,0.0,-0.8339,-0.7876,-0.8475,-0.9298,-0.8629,-0.8496,-0.867,-0.9044,-0.9613,-1.005,-0.9771,-1.0071,-1.0474,-1.0668,-1.0855,-1.0995,-1.0995,-1.1646,-1.2251,-1.2157,-1.2911,-1.3633,-1.3849,-1.3935,-1.4663,-1.689,-1.7707,-1.8834,-2.0877,-2.1158,-2.1247,-2.1523,-2.1445,-2.1708,0.0,0.0,0.0,-2.1895,-2.2627,-2.3983,-2.5967,-2.9421,-3.1813,-3.2885,-3.0839,-3.0375,-3.1856,-3.4288,-3.5201,-3.4628,-3.8314,-4.007,-4.007,-4.007,-4.007,-4.007,-4.007,-4.007,-4.007,-4.007,-4.007,-4.0121,-4.0563,-4.0394,-4.0155,-4.2145,-4.2904,-4.2506,0.0,0.0,0.0,0.0,0.0,0.0,0.0,0.0,0.0,0.0,0.0,0.0,0.0,0.0,0.0,0.0,0.0,0.0,-0.3535,-0.3594,0.0,-0.3025,-0.306,-0.2178,-0.0188,-0.0047,0.0,0.0,0.0,-0.0046,-0.0191,-0.0048,0.0,-0.0,-0.0105,-0.0162,-0.0278,-0.1943,-0.2665,-0.2681,-0.2157,-0.258,-0.3653,-0.4648,0.0,0.0,0.0,-0.8532,-0.8509,-0.873,-0.9033,-0.9308,-0.9244,-0.9068,-0.9015,-0.9606,-0.979,-0.9887,-1.0567,-1.0891,-1.1062,-1.1082,-1.1069,-1.1049,-1.1002,-1.171,-1.2249,-1.1784,-1.2671,-1.3527,0.0,0.0,-1.4408,-1.6703,-1.7589,-1.9028,-2.1968,-2.1995,-2.2284,0.0,0.0,0.0,0.0,0.0,0.0,-2.0489,0.0,-2.5854,-3.1217,-3.6799,-3.8596,-3.5846,-3.5733,-3.5733,-3.5733,-3.5733,-3.7219,-4.007,-4.007,-4.007,-4.007,-4.007,-4.007,-4.0138,-4.0204,-4.0254,-4.0254,-4.0204,-4.0204,-4.0385,-4.1331,-4.2426,-4.3321,-4.2266,-4.1931,-4.168,0.0,0.0,0.0,0.0,0.0,0.0,0.0,0.0,0.0,0.0,0.0,0.0,0.0,0.0,0.0,0.0,0.0,0.0,-0.3456,0.0,0.0,0.0,-0.3272,-0.2965,-0.2321,-0.0793,0.0,0.0,0.0,-0.0898,-0.2633,-0.0836,0.0,-0.0101,-0.1887,-0.2684,-0.2654,-0.2208,-0.2391,-0.3066,0.0,-0.4145,-0.4347,0.0,0.0,0.0,0.0,-0.8122,-0.9243,-1.0245,-1.0819,-1.0929,-0.9748,-0.9795,-1.0216,-0.9813,-1.0221,-1.0902,-1.1459,-1.1769,-1.2024,-1.2245,-1.2131,-1.1797,-1.1142,-1.1633,-1.2028,-1.1521,-1.2647,-1.3717,-1.3717,-1.4089,0.0,-1.7955,-1.8857,0.0,-2.319,-2.413,0.0,-2.5488,0.0,-2.7778,-2.8108,-2.881,0.0,0.0,-2.851,-3.0017,-3.1437,-3.4773,-3.7397,-3.887,-3.8941,-3.8941,-3.8941,-3.8941,-3.9332,-4.007,-4.007,-4.007,-4.007,-4.007,-4.007,-4.0204,-4.1919,-4.2639,-4.2544,-4.1707,-4.1877,-4.2505,-4.1059,-4.142,-4.2714,-4.2977,-4.2832,-4.2505,0.0,0.0,0.0,0.0,0.0,0.0,0.0,0.0,0.0,0.0,0.0,0.0,0.0,0.0,0.0,0.0,0.0,0.0,0.0,-0.2941,0.0,-0.3492,-0.3392,-0.3358,-0.3309,-0.167,-0.0903,-0.1178,0.0,0.0,-0.2783,-0.1978,-0.1309,-0.0839,-0.219,-0.3082,-0.3563,-0.2778,0.0,0.0,0.0,0.0,0.0,0.0,0.0,0.0,0.0,-0.8872,-1.0039,-1.0412,-1.0564,-1.0507,-0.9578,-0.9775,-1.0235,-0.9966,-1.0493,-1.136,-1.179,-1.2278,-1.2679,-1.2572,-1.2231,-1.1724,-1.0975,-1.1308,-1.1638,-1.1084,-1.2506,-1.3752,-1.3552,-1.4193,-1.5394,0.0,0.0,0.0,-2.2815,-2.3778,-2.4798,0.0,-2.8135,0.0,-3.011,-3.1576,-3.2466,0.0,-3.1649,-3.186,-3.3184,-3.5988,-3.8302,-4.007,-4.007,-4.007,-4.007,-4.007,-4.0594,-4.1578,-4.1578,-4.1578,-4.1578,-4.1578,-4.1578,-4.1647,0.0,-4.3497,-4.3444,-4.281,-4.2639,-4.2696,-4.1919,-4.2126,-4.2921,-4.3375,-4.3408,-4.3351,0.0,0.0,0.0,0.0,0.0,0.0,0.0,0.0,0.0,0.0,0.0073,0.0,0.0,0.0,0.0,0.0,0.0,0.0,0.0,0.0,0.0,-0.3517,-0.3479,-0.3479,-0.3581,-0.256,-0.214,-0.2359,0.0,0.0,0.0,0.0,0.0,0.0,0.0,0.0,0.0,0.0,0.0,0.0,0.0,0.0,0.0,0.0,0.0,0.0,-0.9203,-1.0004,-1.049,-0.9985,-0.958,-0.9249,-0.918,-0.9412,-0.9753,-1.0127,-1.0802,-1.1516,-1.1931,-1.2645,-1.3126,-1.2512,-1.1917,-1.1309,-1.0655,-1.0892,-1.1096,-1.0734,-1.2347,-1.3719,-1.3369,-1.4234,-1.5401,-1.6548,0.0,-1.8731,-2.197,-2.2485,-2.3793,-2.7289,-2.8597,-2.9792,-3.1286,-3.317,-3.4667,-3.5587,-3.3395,-3.3194,-3.5946,-3.8652,-4.007,-4.007,-4.0368,-4.0434,-4.0121,-4.0385,-4.1534,-4.3497,-4.3497,-4.3497,-4.3497,-4.3497,-4.3497,-4.3497,-4.3497,0.0,-4.3497,-4.3497,-4.2903,-4.2126,-4.3316,-4.3693,-4.3597,-4.3646,-4.3849,-4.4106,0.0,0.0,0.0,0.0,0.0,0.0,0.0,0.0,0.0,0.0,0.0448,0.0,0.0,0.0,0.0,0.0,0.0,0.0,0.0,0.0,0.0,0.0,-0.3435,-0.3561,-0.3603,-0.3416,-0.2359,-0.0463,0.0,0.0,0.0,0.0,0.0,0.0,0.0,0.0,0.0,0.0,0.0,0.0,0.0,0.0,0.0,0.0,0.0,0.0,-1.0405,-1.0262,-0.9376,0.0,-1.0179,-0.96,-0.9056,-0.9252,-0.9833,-1.0615,-1.1116,-1.165,-1.2692,-1.3267,-1.3427,-1.2819,-1.2225,-1.151,-1.0441,-1.0438,-1.0742,-1.0779,-1.2537,-1.4116,-1.4383,-1.5381,-1.6709,-1.8275,-1.8634,-1.9736,-2.2527,-2.3401,-2.4683,0.0,-2.8991,-3.0634,-3.2608,-3.377,0.0,0.0,-3.6591,-3.7882,-3.9209,-3.9782,-4.007,-4.007,-4.1919,-4.2003,-4.0121,-4.1961,-4.3105,-4.3497,-4.3497,-4.3497,-4.3497,-4.3497,-4.3497,-4.3497,-4.3497,0.0,-4.3497,-4.3497,-4.3391,-4.3336,-4.47,-4.4743,-4.4136,-4.4516,-4.4587,-4.4527,0.0,0.0,0.0,0.0,0.0,0.0,0.0,0.3008,0.2526,0.1439,0.1652,0.1389,0.0146,0.0,0.0,0.0,0.0,0.0,0.0,0.0,0.0,0.0,0.0,-0.279,-0.3602,-0.3601,0.0,0.0,0.0,0.0,0.0,0.0,0.0,0.0,0.0,0.0,0.0,0.0,0.0,0.0,0.0,0.0,0.0,0.0,0.0,0.0,0.0,0.0,-0.9981,-1.0523,-1.0212,-0.9585,-0.9143,-0.9332,-0.9853,-1.0735,-1.1309,-1.1884,-1.2926,-1.3534,-1.3654,-1.2739,-1.2078,-1.1397,-1.0625,-1.0553,-1.0914,-1.1697,-1.3222,-1.4564,-1.5061,-1.592,-1.6886,-1.799,-1.8179,-1.9133,-2.1895,-2.2774,-2.4238,-2.7328,-2.8893,-3.0594,-3.2901,-3.382,-3.4912,-3.6569,-3.7354,-3.843,-4.002,-4.007,-4.007,-4.007,-4.115,-4.1793,-4.1877,-4.2959,-4.3497,-4.3497,-4.3497,-4.3497,-4.3497,-4.3497,-4.3497,-4.3548,-4.4271,0.0,-4.3513,-4.3899,-4.3855,-4.3597,-4.4663,-4.5033,-4.4905,-4.4787,-4.4738,-4.4762,0.0,0.0,0.0,0.0,0.0,0.0,0.3035,0.3069,0.2731,0.168,0.2626,0.2719,0.0855,0.0283,0.0,0.0,0.0,0.0,0.0,0.0,0.0,0.0,0.0,-0.1582,-0.2793,0.0,0.0,0.0,0.0,0.0,0.0,0.0,0.0,0.0,0.0,0.0,0.0,0.0,0.0,0.0,0.0,0.0,0.0,0.0,0.0,0.0,0.0,0.0,-1.0758,-1.075,-1.0172,-0.9486,-0.942,-0.9632,-1.0013,-1.0869,-1.158,-1.2179,-1.2943,-1.3494,-1.3641,-1.2565,-1.1764,-1.1159,-1.077,-1.07,-1.1113,-1.2512,-1.3831,-1.488,-1.5499,-1.6095,-1.671,-1.7287,-1.7388,-1.8254,-2.0778,-2.182,-2.3539,-2.6921,-2.8488,0.0,-3.2849,-3.3552,0.0,-3.716,-3.7354,-3.8133,-4.002,-4.0254,-4.0237,-4.0121,-4.0594,-4.1707,-4.3479,-4.3497,-4.3497,-4.3497,-4.3497,-4.3497,-4.3513,-4.3804,-4.3943,-4.3986,-4.4969,0.0,0.0,-4.4482,-4.4308,-4.3597,-4.4455,-4.514,-4.555,-4.5011,-4.49,-4.5014,0.0,0.0,0.0,0.0,0.0,0.0,0.3077,0.3175,0.2903,0.2353,0.2601,0.279,0.282,0.1115,0.0,0.0,0.0,0.0,0.0,0.0,0.0,0.0,0.0,0.0,0.0,0.0,0.0,0.0,0.0,0.0,0.0,0.0,0.0,0.0,0.0,0.0,0.0,0.0,0.0,0.0,0.0,0.0,0.0,0.0,0.0,0.0,0.0,0.0,-1.066,-1.1019,-1.0432,-0.9584,-0.9963,-1.0182,-1.0462,-1.1322,-1.1963,-1.247,-1.277,-1.3039,-1.3133,-1.2472,-1.1463,-1.0649,-1.0675,-1.0572,-1.0902,-1.2445,-1.3831,-1.488,-1.5499,-1.6095,-1.671,-1.7287,-1.7388,-1.799,-1.971,-2.1317,-2.3306,-2.5942,0.0,0.0,-3.2806,-3.3177,-3.3864,-3.5559,-3.7429,-3.8903,-4.002,-4.0767,-4.0797,-4.0121,-4.2126,-4.3286,-4.3497,-4.3497,-4.3497,-4.3497,-4.3497,-4.3497,-4.3548,-4.4815,-4.54,-4.5381,-4.49,0.0,0.0,-4.512,-4.4719,-4.3612,-4.4992,-4.555,-4.5586,-4.5531,-4.5513,-4.5531,0.0,0.0,0.0,0.0,0.0,0.0,0.3365,0.332,0.3016,0.2473,0.28,0.3042,0.3037,0.2283,0.1313,0.0101,0.0,0.0,0.0,0.0,0.0,0.0,0.0,0.0,0.0,0.0,0.0,-0.3601,0.0,0.0,0.0,0.0,0.0,0.0,0.0,0.0,0.0,0.0,0.0,0.0,0.0,0.0,0.0,0.0,0.0,0.0,0.0,0.0,0.0,-1.0677,-1.0526,-1.0397,-1.0894,-1.1086,-1.1178,-1.1567,-1.1903,-1.2298,-1.2735,-1.301,-1.2979,-1.2017,-1.1296,-1.0884,-1.1015,-1.1104,-1.1734,-1.3543,-1.463,-1.5421,-1.6008,-1.6612,-1.707,-1.7303,-1.7337,-1.7803,-1.9141,-1.9883,-2.1601,-2.5157,-2.6807,0.0,0.0,0.0,-3.522,-3.7408,-3.9056,-4.0184,-4.0577,-4.1178,-4.175,-4.2126,-4.3014,-4.3497,-4.3497,-4.3497,-4.3943,-4.4743,-4.4743,-4.4743,-4.4787,-4.4924,-4.5055,-4.5163,-4.5203,0.0,0.0,-4.5283,-4.5264,-4.4834,-4.5381,-4.5586,-4.5586,-4.5586,-4.5586,-4.5586,0.0,0.0,0.0,0.0,0.0,0.3113,0.3468,0.3382,0.3158,0.2794,0.3025,0.3192,0.3086,0.2988,0.2323,0.0929,0.0305,0.0,0.0,0.0,0.0,0.0,0.0,0.0,0.0,0.0,-0.1023,-0.3079,-0.3437,0.0,0.0,0.0,0.0,0.0,0.0,0.0,0.0,0.0,0.0,0.0,0.0,0.0,0.0,0.0,0.0,0.0,0.0,0.0,0.0,0.0,0.0,-1.0861,-1.1634,-1.1727,-1.164,-1.1825,-1.2017,-1.2281,-1.2446,-1.2785,-1.2795,-1.171,-1.1254,-1.1209,-1.1497,-1.1595,-1.2243,-1.4299,-1.5025,-1.5639,-1.6587,-1.7175,-1.7558,-1.772,-1.7845,-1.8236,-1.9046,-1.962,-2.1054,-2.4104,0.0,-2.8469,0.0,-3.4356,-3.6521,-3.8728,-3.9935,-4.0681,-4.0903,-4.174,-4.2549,-4.3369,-4.3442,-4.3497,-4.3497,-4.3912,-4.4619,-4.5586,-4.5586,-4.568,-4.5797,-4.5213,-4.5026,-4.5178,-4.5515,0.0,0.0,-4.5419,-4.5586,-4.5586,-4.5586,-4.5586,-4.5586,-4.5586,-4.5586,-4.5586,0.0,0.0,0.0,0.0,0.0,0.0,0.3278,0.3313,0.3376,0.3561,0.3238,0.3073,0.3289,0.2961,0.2686,0.2675,0.1037,0.0,0.0,0.0,0.0,0.0,0.0,0.0,0.0,0.0,-0.0614,-0.1838,-0.3029,-0.3592,-0.3626,-0.4132,0.0,0.0,0.0,0.0,0.0,0.0,0.0,0.0,0.0,0.0,0.0,0.0,0.0,0.0,0.0,0.0,0.0,0.0,0.0,0.0,0.0,-1.2062,-1.1682,0.0,-1.2467,-1.2543,-1.1791,-1.2112,-1.2428,-1.1787,-1.1445,-1.1497,-1.2132,-1.1882,-1.2101,-1.4258,-1.4771,-1.5302,-1.7001,-1.7693,-1.8166,-1.8702,-1.9126,-1.9442,-1.9588,-2.1083,-2.2287,0.0,0.0,-2.7871,-3.0363,-3.4243,-3.7231,-3.8799,-3.9443,0.0,-4.0856,-4.2345,-4.3167,-4.3112,-4.3351,-4.3497,-4.3497,-4.4881,-4.5586,-4.5586,-4.5586,-4.5834,-4.6294,-4.595,-4.5778,-4.5778,0.0,0.0,0.0,-4.5643,-4.5586,-4.5586,-4.5586,-4.5586,-4.5586,-4.5586,-4.5586,-4.5586,0.0,0.0,0.0,0.0,0.0,0.0,0.3145,0.3168,0.3175,0.3259,0.3062,0.2961,0.3005,0.2832,0.2706,0.2689,0.1591,0.0,0.0,0.0,0.0,0.0,0.0,0.0,0.0,0.0,-0.0168,-0.0569,-0.2625,-0.3592,-0.3626,-0.3796,-0.4268,-0.5038,0.0,0.0,0.0,0.0,0.0,0.0,0.0,0.0,0.0,0.0,0.0,0.0,0.0,0.0,0.0,0.0,0.0,0.0,0.0,0.0,0.0,-1.2301,-1.2456,-1.2584,-1.2069,-1.2272,-1.2469,-1.185,-1.1648,-1.1651,-1.1875,-1.2196,-1.2892,-1.437,-1.5013,-1.5789,-1.7463,-1.8134,-1.872,-1.9597,-2.0187,-2.0556,-2.0731,-2.1704,0.0,-2.5761,-3.0082,-3.378,0.0,0.0,-3.8619,-3.9662,-4.0634,0.0,-4.1836,-4.3063,-4.356,-4.3167,-4.4097,-4.4476,-4.4252,-4.5161,-4.5757,-4.6084,-4.6084,-4.6103,-4.6177,-4.6056,-4.594,0.0,0.0,0.0,0.0,-4.6016,-4.6084,-4.6084,-4.6084,-4.6084,-4.6084,-4.6084,-4.6084,-4.6084,0.0,0.0,0.0,0.0,0.0,0.0,0.3029,0.3086,0.3082,0.3082,0.2998,0.293,0.2985,0.2805,0.2727,0.2849,0.224,0.0,0.0,0.0,0.0,0.0,0.0,0.0,0.0,0.0,0.0,-0.0,-0.1967,-0.3135,-0.3626,-0.3792,-0.4268,-0.5,-0.5437,0.0,0.0,0.0,0.0,0.0,0.0,0.0,0.0,0.0,0.0,0.0,0.0,0.0,0.0,0.0,0.0,0.0,0.0,0.0,0.0,0.0,-1.2725,-1.2976,-1.2178,-1.2331,-1.2535,-1.193,-1.1971,-1.2219,-1.2469,-1.2731,-1.3336,-1.467,-1.5189,-1.5892,-1.7523,-1.8643,-1.9546,-2.021,-2.1119,-2.1688,0.0,0.0,0.0,-2.8728,0.0,0.0,0.0,-3.8952,-3.9648,-4.0672,0.0,0.0,-4.2709,-4.3836,-4.4345,-4.4055,-4.473,-4.5092,-4.5103,-4.5607,-4.6005,-4.6297,-4.6258,-4.6219,-4.6161,-4.6127,-4.6027,0.0,0.0,0.0,0.0,-4.6216,-4.6308,-4.6308,-4.6308,-4.6308,-4.6308,-4.6308,-4.6308,-4.6308,0.0,0.0,0.0,0.0,0.0,0.0,0.0,0.3005,0.309,0.309,0.2974,0.2944,0.3076,0.2846,0.2795,0.308,0.2874,0.0,0.0,0.0,0.0,0.0,0.0,0.0,0.0274,0.0082,0.0,-0.0,-0.1205,-0.241,-0.3626,-0.4092,-0.4347,-0.4434,-0.561,-0.6221,0.0,0.0,0.0,0.0,0.0,0.0,0.0,0.0,0.0,0.0,0.0,0.0,0.0,0.0,0.0,0.0,0.0,0.0,0.0,0.0,0.0,0.0,0.0,-1.2395,-1.2813,-1.212,-1.2442,-1.3065,-1.36,-1.3355,0.0,-1.5008,-1.5275,-1.5674,-1.7326,-1.9183,-2.0533,-2.061,-2.2005,-2.2813,0.0,-2.448,0.0,0.0,-3.3195,0.0,-3.7517,-3.9024,0.0,0.0,0.0,0.0,-4.3281,-4.4439,-4.5182,-4.5347,-4.5152,-4.5325,-4.5911,-4.617,-4.6308,-4.6308,-4.6172,-4.6172,-4.6308,-4.6162,-4.6105,0.0,0.0,0.0,0.0,-4.6225,-4.6286,-4.6268,-4.6268,-4.6288,-4.6288,-4.6308,-4.6308,-4.6305,0.0,0.0,0.0,0.0,0.0,0.0,0.0,0.0,0.0,0.0,0.2754,0.2747,0.2781,0.2723,0.2757,0.0,0.0,0.0,0.0,0.0,0.0,0.0,0.0,0.0,0.2392,0.083,0.0,-0.0,-0.1205,-0.2413,-0.3592,-0.3714,-0.4008,-0.443,-0.5173,-0.6495,0.0,0.0,0.0,0.0,0.0,0.0,0.0,0.0,0.0,0.0,-0.9922,-1.0196,0.0,0.0,0.0,0.0,0.0,0.0,0.0,0.0,-1.2888,-1.3776,-1.2958,0.0,-1.3542,-1.3379,-1.3132,-1.2929,0.0,-1.3065,-1.3331,-1.4469,-1.4886,-1.5819,-1.8356,-1.9646,-2.068,-2.1731,-2.3041,-2.3997,-2.4236,0.0,0.0,-3.2073,-3.5044,-3.6983,-3.7096,-3.8966,0.0,0.0,0.0,-4.1822,-4.217,-4.2797,-4.3642,-4.4676,-4.4676,-4.5094,-4.6026,-4.6209,-4.6308,-4.6308,-4.6269,-4.6269,-4.6308,-4.6157,-4.615,0.0,0.0,0.0,-4.6105,-4.6131,-4.6083,-4.5995,-4.5995,-4.6053,-4.6164,-4.6264,-4.6293,-4.6261,0.0,0.0,0.0,0.0,0.0,0.0,0.0,0.0,0.0,0.0,0.3105,0.297,0.297,0.2808,0.2768,0.0,0.0,0.0,0.0,0.0,0.0,0.0,0.0,0.2901,0.3063,0.2001,0.0962,-0.0,-0.1744,-0.2962,-0.3598,-0.3585,-0.3751,-0.4052,-0.4918,-0.6567,0.0,0.0,0.0,0.0,0.0,0.0,0.0,0.0,0.0,0.0,-1.0127,-1.0283,0.0,-1.0283,-1.043,-1.0586,0.0,0.0,0.0,0.0,-1.2839,-1.3938,-1.3588,-1.3685,-1.3865,-1.3865,-1.3585,-1.3369,-1.3712,-1.3553,-1.3634,-1.4647,0.0,0.0,-1.8246,-1.9789,-2.1078,0.0,-2.3618,0.0,0.0,0.0,-3.1946,-3.4119,-3.6469,-3.8166,0.0,0.0,0.0,0.0,0.0,-4.1925,-4.2208,-4.2596,-4.3177,-4.3968,-4.4012,-4.468,-4.6089,-4.6111,-4.6097,-4.6078,-4.6097,-4.6117,-4.6113,-4.6035,-4.605,0.0,0.0,0.0,-4.6002,-4.6015,-4.5966,-4.5899,-4.5861,-4.5919,-4.6002,-4.5998,-4.5976,-4.595,0.0,0.0,0.0,0.0,0.0,0.0,0.0,0.0,0.0,0.0,0.0,0.0,0.0,0.0,0.0,0.0,0.0,0.0,0.0,0.0,0.0,0.0,0.0,0.3008,0.305,0.3061,0.228,0.0537,-0.1851,-0.3227,-0.3591,-0.3601,-0.3591,-0.3653,-0.4801,-0.6489,0.0,0.0,0.0,0.0,0.0,0.0,0.0,0.0,0.0,0.0,0.0,0.0,0.0,-1.0283,-1.0322,-1.0371,-1.0303,0.0,0.0,0.0,0.0,0.0,-1.41,-1.4002,-1.395,-1.4023,-1.398,-1.4082,-1.4676,0.0,0.0,0.0,0.0,0.0,0.0,-1.9995,0.0,0.0,0.0,0.0,-2.9843,-3.0666,-3.2249,-3.5806,-3.7247,0.0,0.0,0.0,0.0,0.0,0.0,-4.2128,-4.2246,-4.2512,-4.2782,-4.3076,-4.3035,-4.3833,-4.555,-4.5677,-4.5687,-4.5629,-4.5803,-4.5901,-4.5901,-4.5881,-4.5899,-4.589,0.0,0.0,-4.588,-4.5885,-4.5873,-4.5853,-4.5796,-4.5796,-4.5834,-4.5643,-4.5586,-4.5586,0.0,0.0,0.0,0.0,0.0,0.0,0.0,0.0,0.0,0.0,0.0,0.0,0.0,0.0,0.0,0.0,0.0,0.0,0.0,0.0,0.0,0.319,0.3007,0.3028,0.3241,0.3153,0.3064,0.3063,0.0649,-0.1605,-0.3614,-0.3578,-0.3598,-0.3642,-0.4807,-0.6021,-0.7321,0.0,0.0,0.0,0.0,0.0,0.0,0.0,0.0,0.0,0.0,0.0,0.0,-1.0283,-1.0518,-1.0752,-1.04,0.0,0.0,0.0,0.0,0.0,-1.411,-1.4088,-1.4158,-1.4541,-1.4618,-1.4584,-1.4699,-1.4998,0.0,0.0,0.0,0.0,0.0,-2.1035,-2.2221,0.0,0.0,-2.8402,0.0,0.0,-3.3597,-3.4043,0.0,0.0,0.0,0.0,0.0,0.0,0.0,-4.0111,-4.0241,-4.0188,-4.0595,-4.159,-4.1407,-4.1865,-4.3139,-4.4314,-4.4881,-4.4881,-4.5571,-4.5896,-4.5896,-4.5838,-4.5863,-4.5892,0.0,-4.5819,-4.5822,-4.5813,-4.5757,-4.5643,-4.5624,-4.5624,-4.5624,-4.5605,-4.5586,-4.5586,0.0,0.0,0.0,0.0,0.0,0.0,0.0,0.0,0.0,0.0,0.0,0.0,0.0,0.0,0.0,0.0,0.0,0.0,0.0,0.0,0.2978,0.3299,0.3189,0.3179,0.3313,0.2726,0.2456,0.2643,0.0866,-0.0583,-0.1667,-0.2324,-0.299,-0.3646,-0.4552,-0.5717,-0.7071,-0.7889,0.0,0.0,0.0,0.0,0.0,0.0,0.0,0.0,0.0,0.0,0.0,0.0,-1.041,-1.0537,-1.0342,0.0,0.0,0.0,0.0,0.0,-1.4088,-1.4299,-1.4575,-1.4799,-1.4601,-1.4533,-1.5374,-1.592,0.0,0.0,0.0,0.0,0.0,0.0,-2.3346,-2.4981,0.0,-3.0453,-3.2977,-3.3377,-3.3725,0.0,0.0,0.0,0.0,0.0,0.0,0.0,0.0,0.0,-3.9034,-3.8558,-3.8726,-3.9688,-3.9596,-3.9785,-4.0336,-4.1869,-4.3194,-4.4269,-4.4341,-4.4855,-4.5719,-4.522,-4.5259,-4.5738,0.0,-4.5699,-4.5699,-4.5699,-4.5643,-4.5586,-4.5586,-4.5586,-4.5586,-4.5586,-4.5586,-4.5586,0.0,0.0,0.0,0.0,0.0,0.0,0.0,0.0,0.0,0.0,0.0,0.0,0.0,0.0,0.0,0.0,0.0,0.0,0.0,0.0,0.315,0.3293,0.3283,0.3299,0.3363,0.2657,0.2272,0.2205,0.0738,-0.0298,-0.0867,-0.1478,-0.244,-0.3646,-0.4491,-0.5503,-0.6651,-0.7682,-0.8561,0.0,0.0,0.0,0.0,0.0,0.0,0.0,0.0,0.0,0.0,0.0,0.0,0.0,0.0,0.0,0.0,-1.1914,-1.2917,-1.3983,-1.423,-1.4575,-1.4916,-1.4916,-1.4462,-1.4411,-1.5968,-1.6862,0.0,0.0,0.0,0.0,0.0,-2.2777,0.0,-2.849,-3.0386,-3.201,-3.3808,0.0,0.0,0.0,0.0,0.0,0.0,0.0,0.0,0.0,0.0,0.0,-3.771,-3.7044,-3.6994,-3.7679,-3.7623,-3.7623,-3.7697,-3.9252,-4.1118,-4.3185,-4.2967,-4.3541,-4.4767,-4.4096,-4.4288,-4.5187,-4.5187,-4.5358,-4.5586,-4.5586,-4.5586,-4.5586,-4.5586,-4.5586,-4.5586,-4.5586,-4.5586,-4.5586,0.0,0.0,0.0,0.0,0.0,0.0,0.0,0.0,0.0,0.0,0.0,0.0,0.0,0.0,0.0,0.0,0.0,0.0,0.0,0.0,0.3274,0.3289,0.3172,0.3276,0.3571,0.3741,0.3715,0.3491,0.1119,-0.1159,-0.3332,-0.2269,-0.2456,-0.3638,-0.4781,-0.5303,-0.5561,-0.7709,-0.8683,-0.8837,0.0,0.0,0.0,0.0,0.0,0.0,0.0,0.0,0.0,0.0,0.0,0.0,0.0,0.0,-1.1867,-1.2319,-1.3227,-1.4173,-1.4625,-1.4817,-1.4916,-1.4916,-1.4489,-1.4496,-1.6127,-1.7805,0.0,-2.0597,0.0,0.0,0.0,-2.3344,-2.5361,-2.9743,-3.0788,-3.2363,-3.6113,0.0,0.0,0.0,0.0,0.0,0.0,0.0,0.0,0.0,0.0,0.0,-3.576,-3.5331,-3.5241,-3.5599,-3.5328,-3.5295,-3.5599,-3.6909,-3.8755,-4.1123,-4.1827,-4.2248,-4.2361,-4.2304,-4.2902,-4.4036,-4.4036,-4.4614,-4.5586,-4.5586,-4.5586,-4.5586,-4.5586,-4.5586,-4.5586,-4.5586,-4.5586,-4.5586,0.0,0.0,0.0,0.0,0.0,0.0,0.0,0.0,0.0,0.0,0.0,0.0,0.0,0.0,0.0,0.0,0.0,0.0,0.0,0.3963,0.3784,0.3869,0.3589,0.3458,0.3581,0.3213,0.3216,0.3615,-0.0336,-0.3814,-0.6779,-0.4854,-0.45,-0.5441,-0.6068,-0.6159,-0.5959,-0.7516,-0.8398,-0.8756,-0.9518,0.0,0.0,0.0,0.0,0.0,0.0,0.0,0.0,0.0,-1.1282,-1.0981,-1.0791,-1.1411,-1.2156,-1.2086,-1.3254,-1.46,-1.4805,-1.5119,-1.5379,-1.5379,-1.5209,0.0,0.0,-1.9027,-2.0891,-2.2118,-2.4114,0.0,0.0,0.0,-2.7125,-2.9268,-3.0673,-3.2342,0.0,0.0,0.0,0.0,0.0,0.0,0.0,0.0,0.0,0.0,0.0,0.0,-3.4363,-3.3786,-3.3697,-3.4324,-3.4228,-3.4228,-3.4342,-3.5328,-3.6272,-3.7199,-3.9444,-4.1095,-4.2082,-4.159,-4.1888,-4.2819,-4.3308,-4.3907,-4.4576,-4.5073,-4.5419,-4.5586,-4.5586,-4.5586,-4.5568,-4.5264,-4.5362,-4.5475,0.0,0.0,0.0,0.0,0.0,0.0,0.0,0.0,0.0,0.0,0.0,0.0,0.0,0.0,0.0,0.0,0.0,0.0,0.4937,0.4433,0.4083,0.4026,0.3616,0.344,0.3597,0.3015,0.2973,0.3599,-0.0457,-0.4237,-0.7663,-0.5898,-0.5534,-0.6275,-0.6606,-0.6686,-0.6631,-0.7692,-0.848,-0.8999,-0.9518,-0.9961,0.0,0.0,0.0,0.0,0.0,0.0,0.0,0.0,-1.1763,-1.1457,-1.1319,-1.1686,-1.2195,-1.2016,-1.3097,-1.4383,-1.4592,-1.5155,-1.5801,-1.6179,0.0,0.0,-1.8985,-2.0788,-2.2404,-2.3585,-2.5319,0.0,0.0,0.0,0.0,0.0,-3.0298,0.0,0.0,0.0,0.0,0.0,0.0,0.0,0.0,0.0,0.0,0.0,0.0,0.0,0.0,-3.2055,-3.2052,-3.2591,-3.2609,-3.2699,-3.2931,-3.3864,-3.4341,-3.4358,-3.7161,-3.9165,-4.0419,-4.0093,-4.0536,-4.1594,-4.2152,-4.2748,-4.3371,-4.3938,-4.4448,-4.49,-4.5187,-4.5283,-4.5243,-4.4924,-4.5011,-4.5161,0.0,0.0,0.0,0.0,0.0,0.0,0.0,0.0,0.0,0.0,0.0,0.0,0.0,0.0,0.0,0.0,0.0,0.0,0.4651,0.4474,0.4186,0.3658,0.3162,0.3135,0.358,0.3399,0.3399,0.3583,0.1169,-0.1833,-0.5277,-0.4882,-0.5044,-0.5713,-0.6072,-0.6656,-0.7446,-0.831,-0.8999,-0.9558,-1.0079,-1.0283,0.0,0.0,0.0,0.0,0.0,0.0,0.0,0.0,-1.2508,-1.2437,-1.1957,0.0,-1.1912,-1.2307,-1.289,-1.3505,-1.3912,-1.4853,-1.601,0.0,0.0,0.0,-2.2119,-2.3135,-2.3837,-2.4985,0.0,-2.6435,-2.5915,0.0,0.0,0.0,0.0,0.0,0.0,0.0,0.0,0.0,0.0,0.0,0.0,0.0,0.0,0.0,0.0,0.0,0.0,-3.0102,-3.0276,-3.0276,-3.0276,-3.0559,-3.119,-3.2452,-3.306,-3.3095,-3.5044,-3.6274,-3.6808,-3.7551,-3.8789,-4.0374,-4.0374,-4.1038,-4.2082,-4.21,-4.2567,-4.3379,-4.4247,-4.458,-4.458,-4.458,-4.458,-4.458,0.0,0.0,0.0,0.0,0.0,0.0,0.0,0.0,0.0,0.0,0.0,0.0,0.0,0.0,0.0,0.0,0.0,0.0,0.6026,0.5464,0.5066,0.4796,0.3987,0.3561,0.3601,0.3522,0.2716,0.1088,-0.048,-0.2632,-0.5276,-0.5184,-0.5567,-0.6361,-0.6637,-0.6898,-0.7177,-0.8258,-0.8797,-0.8999,-0.9922,-1.0283,0.0,0.0,0.0,0.0,0.0,0.0,0.0,0.0,0.0,0.0,-1.233,0.0,-1.3173,-1.2639,-1.3546,-1.4762,-1.4805,-1.5805,0.0,-1.8333,0.0,0.0,0.0,-2.4123,0.0,0.0,-2.6968,-2.6893,-2.6446,0.0,0.0,0.0,0.0,0.0,0.0,0.0,0.0,0.0,0.0,0.0,0.0,0.0,0.0,0.0,0.0,0.0,0.0,-2.8217,-2.8466,-2.8968,-2.8941,-2.9286,-2.9935,-3.0726,-3.113,-3.1146,-3.2673,-3.4373,-3.6257,-3.7059,-3.7863,-3.8688,-3.9254,-4.0031,-4.0956,-4.1776,-4.2252,-4.2497,-4.2737,-4.3567,-4.4504,-4.3555,-4.3453,-4.3823,0.0,0.0,0.0,0.0,0.0,0.0,0.0,0.0,0.0,0.0,0.0,0.0,0.0,0.0,0.0,0.0,0.0,0.0,0.0,0.587,0.5341,0.503,0.4311,0.3734,0.3379,0.3536,0.2519,0.0346,-0.158,-0.3252,-0.4648,-0.5072,-0.5645,-0.6271,-0.6761,-0.7081,-0.7217,-0.8033,-0.8643,-0.9096,-0.9892,-1.0272,-1.0342,0.0,0.0,0.0,0.0,0.0,0.0,0.0,0.0,0.0,-1.2791,0.0,-1.3496,-1.2864,-1.3832,-1.5058,-1.4937,-1.6338,0.0,-1.9111,-2.0351,-2.1545,-2.2552,0.0,0.0,0.0,0.0,-2.6048,-2.595,-2.5829,0.0,0.0,0.0,0.0,0.0,0.0,0.0,0.0,0.0,0.0,0.0,0.0,0.0,0.0,0.0,0.0,0.0,-2.6867,-2.7216,-2.7628,-2.7644,-2.7937,-2.8586,-2.8988,-2.9261,-2.9554,-3.09,-3.2496,-3.4207,-3.5727,-3.6695,-3.7183,-3.7895,-3.8627,-3.9497,-4.0719,-4.1239,-4.1276,-4.1567,-4.2445,-4.3426,-4.2627,-4.2802,-4.3497,0.0,0.0,0.0,0.0,0.0,0.0,0.0,0.0,0.0,0.0,0.0,0.0,0.0,0.0,0.0,0.0,0.0,0.0,0.0,0.0,0.5262,0.4673,0.4293,0.3729,0.3052,0.3403,0.2775,0.1127,-0.1891,-0.3446,-0.3614,-0.4701,-0.5365,-0.5636,-0.6526,-0.7075,-0.7324,-0.773,-0.848,-0.9466,-0.9866,-1.0162,-1.0478,-1.1294,0.0,0.0,0.0,0.0,0.0,0.0,0.0,0.0,-1.3198,-1.3267,-1.3289,-1.3057,-1.387,-1.4801,-1.4652,-1.6588,0.0,-1.9624,-2.0067,0.0,-2.0299,-2.3571,-2.7005,-2.8408,0.0,-2.4467,-2.4689,-2.4505,0.0,0.0,0.0,0.0,0.0,0.0,0.0,0.0,0.0,0.0,0.0,0.0,0.0,0.0,0.0,0.0,0.0,-2.5803,-2.6187,-2.6249,-2.6326,-2.662,-2.7221,-2.7304,-2.7624,-2.8222,-2.9541,-3.0533,-3.1298,-3.3919,-3.537,-3.5863,-3.6482,-3.7102,-3.7823,-3.9163,-3.9708,-3.9813,-4.0565,-4.1185,-4.1589,-4.1589,-4.2396,-4.3497,0.0,0.0,0.0,0.0,0.0,0.0,0.0,0.0,0.0,0.0,0.0,0.0,0.0,0.0,0.0,0.0,0.0,0.0,0.0,0.0,0.5514,0.5173,0.4319,0.3652,0.3226,0.3329,0.3236,0.3025,-0.017,-0.2348,-0.3618,-0.4291,-0.4631,-0.471,-0.5847,-0.6422,-0.6508,-0.7475,-0.8275,-0.8926,-0.9408,-1.0136,-1.0878,-1.1086,-1.1604,0.0,0.0,0.0,0.0,0.0,0.0,0.0,-1.3198,-1.3682,-1.4154,-1.3775,-1.437,-1.5298,-1.6064,-1.7152,0.0,0.0,-2.0554,-2.1135,-2.1087,-2.1567,-2.2411,-2.3814,-2.4259,-2.4199,-2.3535,-2.3684,0.0,0.0,0.0,0.0,0.0,0.0,0.0,0.0,0.0,0.0,0.0,0.0,0.0,0.0,0.0,0.0,-2.3266,-2.3417,-2.3719,-2.4217,-2.4716,-2.5319,-2.5971,-2.6435,-2.6761,0.0,-2.7688,-2.8682,-3.002,-3.2631,-3.4088,-3.4638,-3.5721,-3.6257,-3.6506,-3.7787,-3.8319,-3.837,-3.8985,-3.9294,-3.9386,-3.9386,-4.113,-4.3497,0.0,0.0,0.0,0.0,0.0,0.0,0.0,0.0,0.0,0.0,0.0,0.0,0.0,0.0,0.0,0.0,0.0,0.0,0.0,0.5878,0.5554,0.5159,0.4078,0.3373,0.3171,0.3258,0.3327,0.3375,0.0696,-0.1627,-0.3612,-0.414,-0.4387,-0.4434,-0.5653,-0.6343,-0.6628,-0.753,-0.8357,-0.9185,-1.0164,-1.0725,-1.1099,-1.2048,-1.2487,-1.2533,-1.2495,0.0,0.0,0.0,0.0,0.0,0.0,0.0,-1.39,-1.3946,-1.4702,-1.5753,-1.6803,0.0,0.0,-1.8516,0.0,-1.8729,-1.8235,-1.8369,-1.8904,-1.9883,-2.0961,-2.1686,-2.1559,0.0,0.0,0.0,0.0,0.0,0.0,0.0,0.0,0.0,0.0,0.0,0.0,0.0,0.0,0.0,0.0,-2.1844,-2.2188,-2.2203,-2.2503,-2.3131,-2.3505,-2.3999,-2.4642,-2.4969,-2.5253,-2.5589,-2.6197,-2.7201,-2.8603,-3.1246,-3.2934,-3.3865,-3.4376,-3.4811,-3.5217,-3.6114,-3.6449,-3.6538,-3.7156,-3.7739,-3.8201,-3.8201,-3.9491,-4.1423,0.0,0.0,0.0,0.0,0.0,0.0,0.0,0.0,0.0,0.0,0.0,0.0,0.0,0.0,0.0,0.0,0.0,0.0,0.0,0.5729,0.529,0.4865,0.3729,0.3104,0.3005,0.3165,0.322,0.3204,0.118,-0.1095,-0.3627,-0.4132,-0.4387,-0.4434,-0.5653,-0.6507,-0.7036,-0.7648,-0.8553,-0.9712,-1.0868,-1.1277,-1.1399,-1.303,-1.3279,-1.277,-1.2651,-1.2934,-1.3288,-1.2792,0.0,0.0,0.0,0.0,-1.3631,-1.4198,-1.5125,-1.6166,-1.7253,0.0,-1.8591,-1.6768,-1.5869,0.0,-1.4496,-1.5242,-1.6266,-1.6783,-1.7824,-1.8836,-1.9362,0.0,0.0,0.0,0.0,0.0,0.0,0.0,0.0,0.0,0.0,0.0,0.0,0.0,0.0,0.0,0.0,-2.1395,-2.1515,-2.153,-2.1784,-2.2323,-2.2484,-2.2802,-2.343,-2.343,-2.3789,-2.4448,-2.5053,-2.5962,-2.715,-2.9603,-3.1414,-3.2714,-3.287,-3.3308,-3.3934,-3.4531,-3.4765,-3.4836,-3.5545,-3.647,-3.7435,-3.7506,-3.7913,-3.8816,0.0,0.0,0.0,0.0,0.0,0.0,0.0,0.0,0.0,0.0,0.0,0.5558,0.5342,0.5766,0.0,0.0,0.0,0.0,0.5765,0.0,0.0,0.4148,0.3595,0.3232,0.3096,0.3095,0.3246,0.3524,0.1864,-0.0542,0.0,0.0,-0.4387,-0.4434,-0.5653,-0.6507,-0.7036,-0.7648,-0.8732,-1.0007,-0.9844,-1.0765,-1.2202,-1.2114,-1.2827,-1.38,-1.3291,-1.3498,-1.3909,-1.3278,-1.3412,0.0,0.0,0.0,-1.5,-1.5684,-1.5984,-1.6373,-1.7803,0.0,-1.5996,0.0,-1.3587,-1.2828,0.0,0.0,-1.503,0.0,-1.6767,-1.8066,0.0,0.0,0.0,0.0,0.0,0.0,0.0,0.0,0.0,0.0,0.0,0.0,0.0,0.0,0.0,0.0,-2.0243,-2.0213,-2.0812,-2.0842,-2.0887,-2.0976,-2.153,-2.2143,-2.2787,-2.2802,-2.3116,-2.3744,-2.4417,-2.5072,-2.5795,-2.7227,-2.8575,-2.9938,-3.1651,-3.2445,-3.2621,-3.3792,-3.4283,-3.4338,-3.4853,-3.5545,-3.629,-3.6696,-3.7076,-3.7319,0.0,0.0,0.0,0.0,0.0,0.0,0.0,0.0,0.0,0.0,0.0,0.5947,0.582,0.6041,0.0,0.0,0.0,0.0,0.5484,0.4731,0.0,0.4344,0.3866,0.3539,0.3506,0.364,0.3689,0.3588,0.2001,0.0,0.0,-0.252,-0.3894,0.0,-0.5741,-0.651,-0.7774,-0.8423,-0.9232,-1.0167,-1.1116,-1.1727,-1.2103,-1.3083,-1.3374,-1.3299,-1.3858,-1.4085,-1.4069,-1.3965,-1.4252,-1.4626,-1.4704,0.0,0.0,0.0,-1.6897,-1.6974,-1.6958,-1.624,-1.511,0.0,-1.2413,-1.1975,-1.2331,0.0,-1.3974,-1.4346,-1.5407,-1.6428,0.0,0.0,0.0,0.0,0.0,0.0,0.0,0.0,0.0,0.0,0.0,0.0,0.0,0.0,0.0,0.0,-1.9854,-1.9824,-2.0124,-2.0139,-2.0318,-2.0707,-2.0991,-2.1455,-2.2113,-2.2128,-2.2443,-2.3086,-2.3744,-2.416,-2.4506,-2.6056,-2.7454,-2.8781,-3.037,-3.1072,-3.1162,-3.211,-3.2535,-3.2569,-3.3201,-3.3623,-3.3982,-3.4633,-3.5442,-3.6249,0.0,0.0,0.0,0.0,0.0,0.0,0.0,0.0,0.0,0.0,0.0,0.0,0.638,0.0,0.0,0.0,0.0,0.0,0.5437,0.0,0.0,0.0,0.0,0.3789,0.3883,0.3943,0.3848,0.3585,0.0,0.0,0.0861,-0.0697,-0.2881,0.0,-0.5857,-0.6793,0.0,0.0,0.0,-1.0218,-1.1584,-1.1975,-1.1885,-1.3523,-1.3476,-1.2686,-1.4248,-1.4523,0.0,0.0,0.0,0.0,0.0,0.0,0.0,0.0,0.0,0.0,0.0,0.0,-1.4242,-1.2477,-1.1612,-1.1358,0.0,0.0,-1.3235,0.0,-1.4421,0.0,0.0,0.0,0.0,0.0,0.0,0.0,0.0,0.0,0.0,0.0,0.0,0.0,0.0,0.0,0.0,0.0,-1.9406,-1.9442,-1.9281,-1.9566,-1.9878,-2.0235,-2.0363,-2.0782,-2.144,-2.1605,-2.2024,-2.2724,-2.3146,-2.3445,-2.3653,-2.5123,-2.6414,-2.7547,-2.9118,-2.9939,-3.0142,-3.0683,-3.1021,-3.1241,-3.1799,-3.2121,-3.2381,-3.2916,-3.3863,-3.4945,0.0,0.0,0.0,0.0,0.0,0.0,0.0,0.0,0.0,0.0,0.0,0.0,0.0,0.0,0.0,0.0,0.0,0.0,0.0,0.0,0.0,0.0,0.0,0.0,0.4188,0.3644,0.3439,0.3595,0.0,0.0,0.3346,0.0758,-0.13,-0.2928,-0.6096,-0.7399,-0.7281,0.0,0.0,0.0,0.0,-1.0454,-1.1736,-1.2256,-1.2457,-1.2731,-1.4383,0.0,0.0,0.0,0.0,0.0,-1.7171,-1.7561,-1.8015,0.0,0.0,0.0,0.0,-1.4639,0.0,-1.1854,-1.0978,0.0,0.0,0.0,0.0,0.0,-1.4149,0.0,0.0,0.0,0.0,0.0,0.0,0.0,0.0,0.0,0.0,0.0,0.0,0.0,0.0,0.0,0.0,0.0,-1.865,-1.8727,-1.8224,-1.9169,-1.9457,-1.9026,-1.9501,-2.0064,-2.0767,-2.138,-2.2024,-2.2724,-2.2753,-2.3041,-2.3638,-2.423,-2.4815,-2.5474,-2.7985,-2.9448,-3.0108,-3.0142,-3.0581,-3.119,-3.1241,-3.1664,-3.2313,-3.2324,-3.256,-3.3119,0.0,0.0,0.0,0.0,0.0,0.0,0.0,0.0,0.0,0.0,0.0,0.0,0.0,0.8119,0.7921,0.7344,0.6952,0.0,0.0,0.0,0.0,0.0,0.0,0.0,0.0,0.441,0.3887,0.0,0.0,0.3594,0.356,0.26,0.0669,-0.2169,-0.4416,-0.6184,-0.7497,-0.7871,0.0,0.0,0.0,-1.0461,-1.1204,-1.2037,-1.2215,-1.2285,0.0,0.0,0.0,0.0,0.0,0.0,-1.7961,-1.8202,-1.8444,-1.869,-1.8066,-1.707,0.0,0.0,0.0,-1.2019,-1.0774,-0.9872,-1.0194,-1.1011,-1.1711,-1.1826,-1.2887,0.0,0.0,0.0,0.0,0.0,0.0,0.0,0.0,0.0,0.0,0.0,0.0,0.0,0.0,0.0,0.0,0.0,0.0,-1.8302,-1.8106,-1.8779,-1.9095,-1.8893,-1.9406,-1.9809,-2.0049,-2.0722,-2.1186,-2.1425,-2.2278,-2.2787,-2.3053,-2.3974,-2.4712,-2.5291,-2.6521,-2.7961,-2.9381,-2.9381,-3.0108,-3.114,-3.0683,-3.0937,-3.1579,-3.1579,-3.2053,-3.2713,0.0,0.0,0.0,0.0,0.0,0.0,0.0,0.0,0.0,0.8878,0.0,0.0,0.0,0.0,0.8617,0.8279,0.7723,0.7321,0.7129,0.5958,0.0,0.0,0.0,0.0,0.0,0.4426,0.3585,0.0,0.0,0.0,0.0,0.2261,0.1117,-0.1297,-0.3425,-0.5322,0.0,0.0,0.0,-0.8885,0.0,0.0,-1.0753,-1.2061,-1.2718,-1.3256,0.0,0.0,0.0,0.0,0.0,0.0,-1.8289,-1.8465,-1.8619,-1.8412,-1.7518,-1.6424,-1.5611,0.0,0.0,0.0,0.0,-1.0049,-1.0194,0.0,-1.0881,-1.1219,-1.2087,-1.2817,0.0,0.0,0.0,0.0,0.0,0.0,0.0,0.0,0.0,0.0,0.0,0.0,0.0,0.0,0.0,0.0,0.0,0.0,-1.7585,-1.8263,-1.8688,-1.8893,-1.9244,-1.953,-1.969,-2.0139,-2.0483,-2.0722,-2.1605,-2.2248,-2.2724,-2.3636,-2.4373,-2.4973,-2.5689,-2.7147,-2.8958,-2.8704,-2.9617,-3.1123,-3.0395,-3.0548,-3.119,-3.119,-3.1613,-3.2104,0.0,0.0,0.0,0.0,0.0,0.0,0.0,0.0,0.8918,0.9439,0.0,0.0,0.0,0.0,0.0,0.8509,0.831,0.8024,0.7471,0.6834,0.0,0.0,0.0,0.0,0.0,0.3414,0.2241,-0.0089,-0.1293,-0.1692,-0.1287,-0.0531,-0.0177,-0.031,-0.3416,-0.5049,-0.557,0.0,-0.6907,-0.7934,0.0,-0.8839,-1.0399,0.0,0.0,0.0,-1.7279,-1.8144,0.0,-1.7771,0.0,0.0,0.0,-1.8391,-1.8603,-1.7882,-1.6402,-1.5068,0.0,0.0,0.0,0.0,0.0,0.0,-1.0709,0.0,-1.0454,-1.1377,-1.1805,-1.2078,0.0,0.0,0.0,0.0,0.0,0.0,0.0,0.0,0.0,0.0,0.0,0.0,0.0,0.0,0.0,0.0,-1.6669,-1.7034,-1.6522,-1.7504,-1.8327,-1.8826,-1.8878,-1.9169,-1.969,-1.969,-2.0019,-2.0677,-2.0707,-2.138,-2.2664,-2.313,-2.3708,-2.4409,-2.5454,-2.7078,-2.8856,-2.8095,-2.9127,-3.1089,-3.0362,-3.0531,-3.119,-3.119,-3.119,-3.119,0.0,0.0,0.0,0.0,0.0,0.9399,0.9804,0.9518,0.9478,0.0,0.0,0.0,1.004,0.9973,1.0001,1.0237,0.9591,0.8915,0.8359,0.7018,0.6211,0.6194,0.3781,0.2783,0.3554,0.0179,-0.1928,-0.2605,-0.3769,-0.426,-0.416,-0.3957,-0.3989,-0.4343,-0.5717,-0.6636,-0.711,-0.7067,0.0,-0.9039,-0.8847,-0.946,0.0,0.0,0.0,0.0,0.0,-1.6832,-1.6914,0.0,-1.7338,-1.8104,0.0,0.0,-1.7344,-1.6967,-1.5988,-1.5038,-1.4795,0.0,0.0,0.0,0.0,0.0,0.0,0.0,0.0,-1.084,-1.1497,-1.2007,0.0,0.0,0.0,0.0,0.0,0.0,0.0,0.0,0.0,0.0,0.0,0.0,0.0,0.0,0.0,0.0,-1.6321,-1.668,-1.6522,-1.7146,-1.7583,-1.7735,-1.8498,-1.8968,-1.9132,-1.953,-1.9779,-1.9974,-2.0483,-2.0902,-2.1276,-2.1883,-2.2624,-2.3475,-2.3945,-2.5338,-2.7317,-2.7097,-2.8349,-3.0328,-2.9583,-3.0074,-3.119,-3.119,-3.119,-3.119,0.0,0.0,0.0,1.0267,1.0164,1.0215,1.0534,1.0147,1.004,0.0,0.0,0.0,1.0582,1.0572,1.0687,1.0981,1.0293,0.9518,0.8765,0.7293,0.618,0.5663,0.2706,0.0891,0.0582,-0.1657,-0.3099,-0.3602,-0.4882,-0.532,-0.4921,-0.5663,-0.607,-0.6374,-0.7252,-0.8132,-0.895,-0.8889,-0.9183,0.0,-0.9394,0.0,0.0,-1.2375,-1.3384,0.0,0.0,0.0,-1.6892,-1.6091,-1.6358,0.0,0.0,-1.6822,-1.6358,-1.6006,-1.4963,-1.392,-1.3729,-1.3428,0.0,0.0,0.0,0.0,-1.0366,-1.0183,0.0,0.0,-1.0949,-1.1573,-1.2121,-1.1925,0.0,0.0,0.0,0.0,0.0,0.0,0.0,0.0,0.0,0.0,0.0,-1.4538,-1.5054,-1.5054,-1.5517,-1.5831,-1.5831,-1.6539,-1.6967,-1.6957,-1.7788,-1.8458,-1.8893,-1.9207,-1.9479,-1.969,-2.0094,-2.0438,-2.0722,-2.1326,-2.2031,-2.2812,-2.3353,-2.4492,-2.5916,-2.6168,-2.7571,-2.96,-2.9161,-2.9702,-3.0784,-3.1089,-3.119,-3.119,0.0,0.0,1.1159,1.1094,1.1094,1.1105,1.1158,1.0756,1.0651,0.0,1.0801,1.0762,1.128,1.1318,1.1259,1.1244,1.0758,0.9999,0.8837,0.7609,0.6409,0.5348,0.1899,-0.1245,-0.3935,-0.2776,-0.2721,-0.3976,-0.5313,-0.5518,-0.4813,-0.6391,-0.7114,-0.7216,-0.8334,-0.962,-1.0959,-1.1183,-1.102,-1.0561,-0.9993,-1.0509,0.0,0.0,-1.4101,-1.585,-1.6336,-1.6903,-1.7205,-1.5539,-1.5314,0.0,0.0,-1.5685,-1.5494,-1.5096,-1.3697,0.0,-1.2413,-1.2461,0.0,0.0,0.0,0.0,-1.0928,-1.0343,-0.9931,0.0,0.0,-1.0942,-1.2102,-1.1397,0.0,0.0,0.0,0.0,0.0,0.0,0.0,0.0,0.0,0.0,-1.3185,-1.377,-1.4085,-1.4085,-1.4601,-1.4878,-1.4815,-1.5831,-1.6367,-1.6336,-1.6982,-1.7787,-1.8817,-1.8855,-1.9169,-1.969,-1.969,-2.0004,-2.0602,-2.1075,-2.1564,-2.2121,-2.3114,-2.3915,-2.4541,-2.508,-2.6742,-2.8856,-2.8856,-2.9313,-3.0074,-3.0801,-3.1021,-3.0954,0.0,1.1957,1.2102,1.17,1.1627,1.1797,1.2224,1.1832,1.1676,1.216,1.2131,1.2451,1.3395,1.3168,1.2913,1.2861,1.2036,1.0875,0.9372,0.7792,0.6409,0.5348,0.1899,-0.2001,-0.6263,-0.49,-0.4845,-0.6343,-0.6641,-0.6897,-0.7162,-0.7975,-0.8545,-0.8975,-1.0263,-1.1404,-1.2436,-1.3271,-1.3714,-1.3744,-1.2029,0.0,-1.1366,-1.2884,-1.3137,-1.2859,-1.4155,-1.4379,-1.4137,-1.4591,-1.4797,-1.5009,0.0,-1.5278,-1.4268,-1.4716,-1.3376,-1.1761,-1.1886,0.0,0.0,0.0,0.0,0.0,-0.9896,-0.9823,-1.0046,0.0,-1.0556,-1.0612,-1.1127,-1.1,-1.0753,0.0,0.0,0.0,0.0,0.0,0.0,0.0,0.0,0.0,-1.316,-1.377,-1.4085,-1.4085,-1.4601,-1.4714,-1.4274,-1.5254,-1.5646,-1.5235,-1.657,-1.7626,-1.8263,-1.8688,-1.9169,-1.969,-1.969,-1.975,-1.9884,-1.9978,-2.0274,-2.0713,-2.1136,-2.1827,-2.2683,-2.3315,-2.532,-2.8044,-2.8044,-2.8518,-2.9296,-3.004,-2.9939,-2.9499,1.2472,1.2822,1.3064,1.2844,1.281,1.2908,1.3178,1.2567,1.2277,1.2724,1.285,1.31,1.365,1.3717,1.3604,1.3281,1.2272,1.0996,0.9429,0.7716,0.631,0.5353,0.1899,-0.1952,-0.6046,-0.5412,-0.5524,-0.6556,-0.7616,-0.8011,-0.7829,-0.9494,-1.0099,-0.9896,-1.1827,-1.3525,-1.4937,-1.4877,-1.4965,-1.4991,-1.3151,0.0,-1.2463,-1.3078,-1.288,-1.2408,-1.3291,-1.3026,-1.2405,-1.3516,-1.4184,0.0,0.0,-1.5201,-1.3979,0.0,-1.2534,-1.0538,-1.0578,0.0,0.0,-1.0092,0.0,0.0,0.0,-1.0024,-1.0325,-1.176,-1.1216,-1.0472,-1.0398,0.0,-1.0769,0.0,0.0,0.0,0.0,0.0,0.0,0.0,0.0,0.0,-1.2735,-1.2886,-1.3159,-1.3622,-1.4186,-1.4374,-1.4097,-1.4865,-1.5279,-1.5279,-1.6079,-1.69,-1.7706,-1.8224,-1.8765,-1.9281,-1.9566,-1.969,-1.969,-1.969,-1.9909,-2.0296,-2.0436,-2.1097,-2.2147,-2.2685,-2.393,-2.5624,-2.6774,-2.7723,-2.8484,-2.9262,-2.9313,-2.9025,1.3506,1.3821,1.4128,1.4178,1.421,1.4219,1.4246,1.3504,1.3017,1.3348,1.3399,1.3436,1.3462,1.3937,1.3943,1.3125,1.233,1.1113,0.9324,0.7612,0.6263,0.5351,0.191,-0.1684,-0.5218,-0.5404,-0.5865,-0.6732,-0.8575,-0.9147,-0.8625,-1.087,-1.156,-1.0936,-1.3155,-1.5249,-1.7086,0.0,0.0,-1.5298,0.0,-1.3475,-1.3577,-1.3036,-1.2662,-1.2422,-1.2449,-1.1898,-1.1319,-1.2402,-1.3417,-1.4378,-1.5441,-1.4856,0.0,0.0,0.0,0.0,0.0,0.0,0.0,0.0,0.0,-1.0668,0.0,0.0,0.0,-1.2452,0.0,0.0,0.0,0.0,0.0,0.0,0.0,0.0,0.0,0.0,0.0,0.0,0.0,0.0,-1.2058,-1.1952,-1.2181,-1.3126,-1.3563,-1.3899,-1.4085,-1.4614,-1.5167,-1.568,-1.5806,-1.6376,-1.7422,-1.7787,-1.8341,-1.9043,-1.9406,-1.9603,-1.969,-1.969,-1.9874,-2.0177,-2.0177,-2.0727,-2.1688,-2.207,-2.2524,-2.3215,-2.5414,-2.6691,-2.7382,-2.8247,-2.8535,-2.8569,1.4946,1.5023,1.5311,1.5616,1.5671,1.573,1.5889,1.5217,1.4675,1.4541,1.4174,1.3931,1.4014,1.4492,1.4228,1.2782,1.294,0.0,0.9054,0.7645,0.6476,0.5344,0.1905,-0.1682,-0.5203,-0.5776,-0.6982,-0.9041,-0.9759,-1.055,-1.1372,-1.2008,-1.2645,-1.3244,-1.4122,0.0,0.0,0.0,-1.6697,0.0,-1.4805,-1.4182,0.0,-1.2526,-1.1707,-1.0939,-1.0316,-1.0146,-1.0407,0.0,-1.2453,-1.3586,0.0,-1.356,-1.2862,-1.2849,0.0,0.0,0.0,0.0,0.0,0.0,-0.9234,0.0,0.0,0.0,-1.0857,-1.1412,0.0,0.0,0.0,0.0,0.0,0.0,0.0,0.0,0.0,0.0,0.0,0.0,0.0,0.0,0.0,-1.1569,-1.2188,-1.3116,-1.2887,-1.3095,-1.406,-1.4614,-1.5167,-1.568,-1.617,-1.6928,-1.7987,-1.7585,-1.8145,-1.9603,-1.9207,-1.9244,-1.969,-1.969,-1.9711,-1.9782,-1.9782,-1.9863,-1.9995,-2.0404,-2.1237,-2.2375,-2.4093,-2.4976,-2.5444,-2.6573,-2.6962,-2.7046,1.6011,1.6355,1.6851,1.6984,1.7007,1.699,1.691,1.5834,1.4828,1.4419,1.4448,1.4259,0.0,0.0,0.0,0.0,0.0,1.1179,0.0,0.0,0.5727,0.3465,0.0747,-0.2286,-0.5736,-0.6655,-0.7855,-0.9415,-1.056,-1.1472,-1.2164,-1.3116,-1.3781,-1.4211,-1.5377,0.0,-1.747,0.0,-1.7735,0.0,0.0,0.0,0.0,-1.331,-1.1749,-1.0325,-0.9427,-0.918,-0.9375,0.0,-1.0816,0.0,0.0,0.0,0.0,0.0,0.0,0.0,0.0,0.0,0.0,0.0,0.0,0.0,-0.9502,0.0,-1.0642,0.0,0.0,0.0,0.0,0.0,0.0,0.0,-1.0246,0.0,0.0,0.0,0.0,0.0,0.0,0.0,0.0,0.0,0.0,0.0,-1.2615,-1.295,-1.406,-1.4311,-1.4828,-1.5668,-1.5919,-1.6392,-1.7146,-1.7585,-1.8106,-1.8779,-1.9169,-1.9479,-1.969,-1.969,-1.969,-1.969,-1.969,-1.969,-1.9711,-2.0124,-2.0605,-2.1158,-2.2371,-2.3608,-2.4825,-2.5713,-2.6065,-2.6167,1.7186,0.0,1.8083,1.8215,1.8447,1.8401,1.7842,1.6286,1.4957,1.4392,1.4343,0.0,1.3488,1.4143,0.0,0.0,1.1572,1.0231,0.0,0.0,0.4952,0.2197,-0.039,-0.3376,-0.6791,-0.7723,-0.8772,-1.0136,-1.1578,-1.2622,-1.3254,-1.4418,-1.5052,-1.5226,-1.6368,-1.7223,-1.7821,0.0,-1.8164,-1.7506,-1.7415,-1.6254,-1.444,-1.3277,-1.1533,-0.9658,-0.8968,-0.8904,-0.9102,-0.9062,-0.9715,0.0,-0.994,0.0,0.0,0.0,0.0,0.0,-0.6081,0.0,0.0,0.0,0.0,0.0,0.0,0.0,0.0,0.0,0.0,0.0,0.0,0.0,0.0,-1.0242,0.0,-0.9504,0.0,0.0,0.0,0.0,0.0,0.0,0.0,0.0,0.0,0.0,0.0,-1.295,-1.406,-1.4085,-1.4525,-1.5442,-1.5467,-1.5894,-1.6718,-1.7344,-1.7979,-1.8535,-1.9169,-1.9566,-1.969,-1.969,-1.969,-1.969,-1.969,-1.969,-1.9711,-2.0035,-2.0296,-2.055,-2.1197,-2.2424,-2.3985,-2.4729,-2.5118,-2.5406,1.8699,1.8696,1.8808,1.9258,2.0043,2.0168,1.8862,1.6917,1.5418,1.4937,0.0,0.0,0.0,0.0,0.0,0.0,0.0,0.9399,0.7361,0.0,0.4396,0.227,-0.1236,-0.4879,0.0,-0.8847,-0.9974,-1.2012,-1.304,-1.419,-1.5429,-1.6113,-1.6499,-1.6636,-1.6953,-1.7635,-1.8503,-1.7558,-1.7701,-1.8449,-1.7299,-1.4046,-1.0082,0.0,-1.0658,-0.8586,-0.8755,0.0,0.0,-0.903,-0.9492,0.0,0.0,0.0,0.0,0.0,0.0,0.0,0.0,0.0,0.0,-0.6215,0.0,0.0,0.0,0.0,-1.0386,0.0,0.0,0.0,0.0,0.0,-1.0207,-1.0212,-0.9175,0.0,0.0,0.0,0.0,0.0,0.0,0.0,0.0,0.0,0.0,0.0,-1.2768,0.0,-1.406,-1.4085,-1.4349,-1.4916,-1.4941,-1.5672,-1.7259,-1.6779,-1.7602,-1.9639,-1.9169,-1.9207,-1.969,-1.969,-1.969,-1.969,-1.969,-1.969,-1.969,-1.9711,-2.0208,-2.0959,-2.1007,-2.157,-2.2462,-2.319,-2.3917,-2.4659,0.0,0.0,2.0878,2.0011,2.0551,2.0756,1.972,1.7757,1.574,0.0,0.0,0.0,0.0,1.2241,1.2161,0.0,0.0,0.876,0.6759,0.4392,0.0,0.0,-0.3891,-0.6817,0.0,-0.9853,-1.1719,-1.3308,-1.4038,-1.5257,-1.6905,-1.7423,-1.7688,-1.7625,0.0,-1.7593,0.0,0.0,0.0,0.0,0.0,-1.3487,-1.5404,0.0,0.0,-0.897,-0.8988,-0.8621,0.0,-0.7675,-0.7624,-0.7543,-0.6818,-0.6715,-0.66,-0.5719,-0.5209,0.0,0.0,0.0,-0.4652,-0.5394,0.0,0.0,0.0,0.0,0.0,0.0,0.0,0.0,0.0,0.0,-1.0298,-1.0371,-0.923,-0.8205,0.0,0.0,0.0,0.0,0.0,0.0,0.0,0.0,0.0,0.0,-1.2484,0.0,0.0,-1.3883,-1.4306,-1.4728,-1.5183,-1.5997,-1.7157,-1.7441,-1.8093,-1.9169,-1.9369,-1.953,-1.969,-1.969,-1.969,-1.969,-1.969,-1.969,-1.969,-1.969,-2.0035,-2.055,-2.055,-2.107,-2.1953,-2.3017,-2.3562,-2.3866,2.0844,2.155,0.0,0.0,0.0,2.1347,1.9959,1.8275,0.0,0.0,1.2678,0.0,1.0077,0.0,1.176,0.0,0.8794,0.6749,0.4727,0.302,0.0,-0.1212,-0.5489,0.0,0.0,-1.0928,-1.3046,-1.4511,-1.5546,-1.6933,-1.8617,-1.8745,-1.8836,0.0,0.0,-1.7827,-1.7429,-1.768,-1.7662,0.0,0.0,-1.5133,0.0,0.0,-0.6728,-1.085,0.0,-0.8367,-0.7784,-0.7182,-0.6641,-0.6093,-0.548,-0.5173,-0.487,-0.4264,-0.4136,-0.4136,-0.4136,-0.4008,0.0,-0.5048,-0.5888,0.0,-0.7706,0.0,0.0,0.0,0.0,0.0,0.0,0.0,-1.0524,-1.0413,-0.9332,-0.8499,0.0,-0.9011,0.0,0.0,0.0,0.0,0.0,0.0,-1.2198,-1.272,-1.2626,0.0,0.0,0.0,-1.4158,-1.4422,-1.4967,-1.5864,-1.7096,-1.7525,-1.8209,-1.9207,-1.953,-1.969,-1.969,-1.969,-1.969,-1.969,-1.969,-1.969,-1.969,-1.969,-1.9929,-2.0314,-2.0314,-2.0748,-2.1495,-2.2415,-2.3022,-2.3511,2.1708,2.1736,0.0,0.0,2.1782,0.0,0.0,0.0,1.6631,0.0,0.9789,0.783,0.9115,0.9614,1.0071,1.0638,0.6723,0.3403,0.1403,0.1688,0.0,0.0,-0.6214,-0.8411,-1.0158,-1.2089,-1.3924,-1.5679,-1.7477,-1.9082,-2.046,-1.9991,0.0,0.0,-1.9222,0.0,-1.7839,-1.749,-1.7202,-1.6982,-1.7623,-1.8221,-1.8126,-1.2438,-1.1986,-1.3816,-0.9621,-0.8634,-0.9107,-0.7543,-0.6641,-0.6087,-0.548,-0.487,-0.426,-0.3751,-0.3581,-0.3581,-0.3581,-0.4008,-0.4565,-0.513,0.0,0.0,0.0,0.0,-0.8976,0.0,0.0,0.0,0.0,0.0,0.0,-1.0308,-0.9492,-0.9052,-0.9548,0.0,0.0,0.0,0.0,0.0,0.0,-1.2908,-1.3198,-1.3198,-1.3198,0.0,0.0,0.0,-1.3868,-1.3901,-1.43,-1.5333,-1.7026,-1.7078,-1.7972,-1.9639,-1.9639,-1.969,-1.969,-1.969,-1.969,-1.969,-1.969,-1.969,-1.969,-1.969,-1.9945,-2.028,-2.028,-2.0565,-2.1023,-2.143,-2.2332,-2.3397,2.2899,2.3145,2.3481,0.0,2.3132,2.2073,0.0,0.0,0.0,0.0,1.3055,0.8814,0.1087,0.2073,0.1915,-0.1554,-0.1217,0.0,0.0,0.0,0.0,-0.5277,-0.8313,-1.0013,-1.0039,-1.3386,-1.5757,-1.7015,-1.8432,-1.9405,-1.9992,-2.0759,0.0,0.0,0.0,-1.9642,-1.8073,-1.3251,-0.8626,-0.54,-1.5038,-1.3341,-0.5435,0.0,-1.1681,-1.3156,-0.9439,-0.8448,-0.8699,-0.7433,-0.6622,-0.6052,-0.547,-0.4613,-0.3796,-0.3622,-0.3581,-0.3581,-0.3581,-0.4008,-0.4565,-0.513,-0.6149,-0.7141,0.0,0.0,0.0,0.0,0.0,0.0,0.0,0.0,0.0,-1.0842,-0.9796,-0.9116,0.0,0.0,0.0,-1.202,0.0,0.0,0.0,-1.2908,-1.3198,-1.3198,-1.3198,0.0,0.0,0.0,0.0,-1.3901,-1.4466,-1.5366,-1.6473,-1.7006,-1.7866,-1.9132,-1.9132,-1.9332,-1.969,-1.969,-1.969,-1.969,-1.969,-1.969,-1.969,-1.969,-1.9747,-1.9839,-1.9839,-2.0104,-2.0583,-2.1321,-2.1804,-2.2122,2.4014,0.0,0.0,2.5585,0.0,0.0,2.1697,1.9365,0.0,1.0212,0.308,0.0,-0.2168,-0.5023,-0.8122,-1.1183,-0.9317,0.0,-0.9164,0.0,0.0,-1.0216,-1.1226,-1.1847,-1.202,-1.4548,0.0,-1.7667,0.0,-2.0217,-2.082,-2.1468,0.0,0.0,0.0,-2.0662,-1.9455,-0.9314,-0.3065,-0.0642,-0.7935,-0.6497,0.0,-0.7656,-1.1015,-1.1784,-0.9771,-0.907,-0.8878,-0.7773,-0.6826,-0.5993,-0.547,-0.453,-0.3581,-0.3581,-0.3581,-0.3667,-0.388,-0.4351,-0.4995,-0.5851,-0.6742,-0.7592,-0.8431,-0.9079,-0.9494,0.0,0.0,0.0,0.0,0.0,0.0,-1.0712,-1.0047,0.0,0.0,0.0,0.0,0.0,-1.2164,0.0,0.0,0.0,-1.3198,-1.3198,0.0,0.0,0.0,0.0,0.0,-1.4238,-1.4777,-1.5598,-1.6647,-1.7029,-1.7648,-1.8535,-1.8535,-1.8688,-1.9006,-1.9244,-1.9369,-1.9369,-1.9603,-1.969,-1.969,-1.969,-1.969,-1.969,-1.969,-1.9839,-2.0124,-2.0797,-2.1259,-2.1691,2.4962,0.0,0.0,0.0,0.0,0.0,0.0,1.8229,0.0,0.3102,0.0,-1.4337,-0.4112,-1.088,-1.6573,-1.7496,0.0,-1.5626,-1.6797,-1.408,-1.3469,-1.5814,-1.4272,-1.3858,-1.4885,-1.561,-1.6776,0.0,-1.9904,-2.1131,-2.2021,-2.2024,0.0,0.0,0.0,0.0,0.0,-0.8512,-0.1945,0.0,0.0,-0.0689,-0.2319,-0.7743,-1.0106,-1.0534,-1.0505,-1.0118,-0.9439,-0.8357,-0.7245,-0.6204,-0.5594,-0.4613,-0.3711,-0.3711,-0.3711,-0.384,-0.4351,-0.4995,-0.5771,-0.6735,-0.7551,-0.8357,-0.9279,-0.9558,-0.9716,-1.0205,-1.0611,-1.0943,0.0,0.0,0.0,0.0,0.0,0.0,0.0,0.0,0.0,0.0,0.0,0.0,0.0,0.0,0.0,0.0,0.0,0.0,0.0,0.0,0.0,-1.4607,-1.5036,-1.5779,-1.693,0.0,-1.7349,-1.7987,-1.7987,-1.8027,-1.8145,-1.8574,-1.8817,-1.893,-1.9406,-1.9639,-1.969,-1.969,-1.969,-1.969,-1.969,-1.969,-1.9747,-2.0158,-2.0765,-2.162,2.5344,0.0,0.0,0.0,0.0,2.0966,1.6956,0.8989,0.3084,0.2086,-0.2502,-0.7557,-1.2526,-1.2698,-1.3545,-1.6237,-1.6664,0.0,0.0,0.0,0.0,-1.5974,-1.5899,-1.6038,-1.6418,-1.6869,-1.8254,0.0,-2.0895,-2.1251,-2.1606,-2.199,0.0,0.0,0.0,0.0,-2.1126,-2.0314,0.0,0.0,0.0,-0.437,-1.0628,-0.8166,-0.9166,-1.1839,-1.1616,-1.0954,-1.0,-0.8918,-0.8105,-0.7328,-0.6289,-0.5196,-0.426,-0.426,-0.426,-0.4391,-0.5,-0.5893,-0.6735,-0.6945,-0.8113,-0.9279,-0.9439,-0.9843,-1.0205,-1.0283,-1.0361,-1.0544,-1.0943,0.0,0.0,0.0,0.0,0.0,0.0,0.0,0.0,0.0,0.0,-1.1797,0.0,0.0,0.0,0.0,0.0,0.0,0.0,0.0,0.0,0.0,-1.47,0.0,0.0,0.0,-1.6889,-1.7422,-1.7422,-1.7666,-1.8106,-1.8224,-1.8496,-1.8893,-1.9006,-1.9281,-1.969,-1.969,-1.969,-1.969,-1.969,-1.969,-1.9747,-2.0158,-2.0416,-2.0649,0.0,0.0,0.0,0.0,0.0,0.0,0.0,0.5698,0.0,-0.4025,-0.6478,-1.054,-1.7632,-1.6881,-1.6362,-1.7645,-1.8458,-1.8638,-1.8005,-1.8126,-1.8236,-1.8236,-1.8185,-1.8215,-1.8288,-1.8104,-1.8926,-2.0793,-2.2358,-2.2797,-2.2235,-2.3043,-2.2972,-2.2237,0.0,-2.2187,0.0,0.0,0.0,-0.9332,-0.5118,-0.6251,-1.0425,-1.0123,-1.1117,-1.2601,-1.2175,-1.1605,-1.0905,-0.9845,-0.8738,-0.7665,-0.6842,-0.5797,-0.487,-0.487,-0.487,-0.5,-0.561,-0.6368,-0.7155,-0.7743,-0.8691,-0.9558,-0.9843,-1.0118,-1.0283,-1.0283,-1.0079,-0.9873,-0.9815,-1.005,0.0,0.0,0.0,0.0,0.0,0.0,0.0,0.0,0.0,0.0,0.0,0.0,0.0,0.0,0.0,0.0,0.0,0.0,0.0,0.0,0.0,0.0,0.0,0.0,0.0,-1.6879,-1.6879,-1.7034,-1.7271,-1.7544,-1.7987,-1.8496,-1.8779,-1.9207,-1.969,-1.969,-1.969,-1.969,-1.969,-1.969,-1.9711,-1.9909,-2.0124,-2.04,0.0,2.5396,0.0,0.0,1.5462,0.0,0.8673,0.4984,-0.0418,-0.9482,-1.1423,-1.4053,-1.9515,-1.99,-1.9592,-1.9227,-1.9995,-2.0302,-1.9876,-2.0134,-2.0312,-2.0312,-1.9954,-1.976,-1.976,-1.9191,-1.9471,0.0,-2.329,0.0,0.0,-2.4071,-2.3948,0.0,0.0,0.0,0.0,0.0,-1.8051,-1.751,-1.0914,-0.874,-0.9696,-1.2499,-1.3509,-1.3344,-1.2879,-1.2401,-1.1959,-1.1095,-0.9692,-0.8197,-0.7549,-0.6554,-0.5642,-0.5524,-0.548,-0.5653,-0.6386,-0.6965,-0.7619,-0.8626,-0.9279,-0.9804,-1.0205,-1.0283,-1.0283,-1.0157,-0.9716,-0.9199,-0.8756,-0.9039,0.0,0.0,0.0,0.0,0.0,0.0,0.0,0.0,0.0,0.0,-1.1988,0.0,0.0,0.0,0.0,0.0,-1.3198,-1.364,-1.4212,0.0,0.0,-1.5832,-1.6509,0.0,-1.6522,-1.6522,-1.6522,-1.6522,-1.6522,-1.6951,-1.7463,-1.8145,-1.8535,-1.9095,-1.969,-1.969,-1.969,-1.969,-1.969,-1.969,-1.969,-1.969,-1.9909,-2.028,0.0,0.0,0.0,0.0,0.0,0.0,1.1751,0.5577,-0.1824,-0.9511,-0.9789,-1.1283,-1.6606,-1.8427,-1.9248,-1.9193,-1.9998,-2.0459,-2.0342,-2.0314,-2.0312,-2.0312,-2.0097,-1.9974,-1.9974,-1.9901,-2.0308,0.0,0.0,-2.4005,0.0,-2.4253,0.0,0.0,0.0,0.0,0.0,-1.6809,-1.5311,-1.5926,-1.4369,-1.3945,-1.4297,-1.46,-1.4596,-1.436,-1.4296,-1.3723,-1.2958,-1.2842,-1.1567,-0.9798,-0.8711,-0.7643,-0.6742,-0.6258,-0.6136,-0.6349,-0.7447,-0.8152,-0.8675,-0.9279,-0.9843,-1.0244,-1.0283,-1.0283,-1.0157,-0.9677,-0.9159,-0.8756,-0.8724,-0.8756,-0.8756,0.0,0.0,0.0,0.0,0.0,-1.0175,-0.9773,0.0,0.0,0.0,0.0,0.0,0.0,0.0,0.0,-1.3198,-1.3216,-1.371,-1.4852,0.0,-1.5399,-1.6466,-1.6522,-1.6522,-1.6522,-1.6522,-1.6522,-1.6522,-1.6552,-1.7105,-1.8106,-1.8145,-1.8765,-1.969,-1.969,-1.969,-1.969,-1.969,-1.969,-1.969,-1.969,-1.9711,-1.9818,0.0,0.0,0.0,0.0,0.0,0.0,0.0,0.5691,0.0776,-0.6344,-0.9137,-1.2215,-1.6878,-1.894,-1.9676,-1.8955,-2.053,-2.1288,-2.0575,-2.0413,-2.035,-2.0312,-2.0214,-2.0188,-2.0188,-2.0171,-2.0517,0.0,0.0,-2.3871,-2.4308,-2.3915,0.0,0.0,0.0,-1.9306,-2.0979,-1.7701,-1.6343,-1.6334,-1.5489,-1.5374,-1.5635,-1.5152,-1.5197,-1.5476,-1.5198,-1.4734,-1.4251,-1.4251,-1.2445,-1.0128,-0.9663,-0.885,-0.7957,-0.7758,-0.7724,-0.7807,-0.8267,-0.8756,-0.9239,-0.9439,-0.9922,-1.0283,-1.0283,-1.0283,-1.0166,-0.9597,-0.8529,-0.7585,-0.7266,-0.7155,-0.7266,0.0,0.0,0.0,0.0,0.0,0.0,-0.9575,0.0,-0.9999,0.0,0.0,0.0,0.0,0.0,0.0,0.0,-1.3828,0.0,-1.4864,0.0,-1.604,-1.6522,-1.6522,-1.6522,-1.6522,-1.6522,-1.6522,-1.6522,-1.6837,-1.7585,-1.8612,-1.893,-1.9281,-1.969,-1.969,-1.969,-1.969,-1.969,-1.969,-1.969,-1.969,-1.969,-1.9711,1.874,0.0,1.2354,0.0,1.361,1.2724,0.7033,0.5815,0.2965,-0.4161,-0.9274,-1.3632,-1.7198,-1.9014,-1.9623,-1.8775,-2.0915,-2.2053,-2.1406,-2.0698,-2.0286,-2.0208,-2.0269,0.0,-2.0153,-2.0188,-2.0421,-2.0847,-2.2369,-2.31,-2.3146,0.0,0.0,0.0,-1.7817,-1.7817,-2.0029,-1.8605,-1.7662,-1.7016,-1.6453,-1.6296,-1.6316,-1.5734,-1.5874,-1.6343,-1.5994,-1.5575,-1.5168,-1.5168,-1.3349,-1.1047,-1.0887,-1.0137,-0.9323,-0.9164,-0.9013,-0.8941,-0.9102,-0.9421,-0.9737,-0.9903,-1.0331,-1.0697,-1.0544,-1.0505,-1.0264,-0.9439,-0.7949,-0.6628,-0.6264,-0.6021,-0.6047,-0.6658,0.0,0.0,0.0,-0.8973,0.0,0.0,-0.9592,-0.9738,-1.0134,0.0,0.0,0.0,0.0,0.0,0.0,0.0,0.0,0.0,0.0,0.0,0.0,-1.6522,-1.6522,-1.6522,-1.668,-1.6752,-1.6752,-1.7463,-1.8185,-1.893,-1.9479,-1.969,-1.969,-1.969,-1.969,-1.969,-1.969,-1.969,-1.969,-1.969,-1.969,-1.969,1.474,1.17,1.0322,1.0322,0.8561,0.6661,0.5324,0.596,0.3754,-0.4061,-1.0337,-1.4848,-1.6903,-1.8068,-1.8723,-1.8707,-2.0962,-2.2617,-2.3121,-2.1246,-2.0066,0.0,0.0,-2.0144,-1.9802,-1.9943,-2.0012,-2.0,0.0,0.0,-2.1632,0.0,-2.1285,-2.0318,-2.0119,-1.9393,-1.8373,-1.8807,-1.8475,-1.7693,-1.7693,-1.7318,-1.6789,-1.6789,-1.6789,-1.6789,-1.6789,-1.6262,-1.5605,-1.5605,-1.4474,-1.2967,-1.2445,-1.1642,-1.0785,-1.0223,-0.9741,-0.9503,-1.005,-1.0176,-1.033,-1.0857,-1.1394,-1.1627,-1.1132,-1.0981,-1.0552,-0.903,-0.7391,-0.6227,-0.6184,-0.5701,-0.5524,-0.6093,0.0,0.0,0.0,0.0,0.0,-0.952,-0.9592,-0.9592,-0.9592,0.0,0.0,0.0,0.0,0.0,0.0,0.0,0.0,-1.4864,-1.5362,0.0,-1.6466,-1.6522,-1.6522,-1.6522,-1.7034,-1.7312,-1.7353,-1.838,-1.8893,-1.893,-1.9479,-1.969,-1.969,-1.969,-1.969,-1.969,-1.969,-1.969,-1.969,-1.969,-1.969,-1.969,1.1957,0.9503,0.8939,1.1766,1.1696,0.9047,0.2611,-0.211,-0.5809,-0.8302,-1.2525,-1.5829,-1.7415,-1.7884,-1.8087,0.0,-2.2114,-2.406,0.0,-2.1117,-2.0127,-1.9866,-1.9836,-1.9813,-1.979,-1.9836,-1.9858,-1.9866,0.0,0.0,0.0,-2.1079,-2.0429,-1.9272,-1.9326,-1.9147,-1.8789,-1.8931,-1.8734,-1.8296,-1.7885,-1.7614,-1.7455,-1.7224,-1.7272,-1.7479,-1.7479,-1.701,-1.6427,-1.6427,-1.5549,-1.4446,-1.4278,-1.2967,-1.1483,-1.1324,-1.1127,-1.1062,-1.1223,-1.1308,-1.1345,-1.1505,-1.1664,-1.1664,-1.1132,-1.0196,-0.9301,-0.8797,-0.7043,-0.5567,-0.5567,-0.4792,-0.4447,-0.5437,-0.6058,0.0,0.0,0.0,0.0,-0.952,-0.9592,-0.9592,0.0,-1.045,0.0,0.0,0.0,0.0,0.0,0.0,0.0,0.0,-1.5952,0.0,-1.6522,-1.6522,-1.6522,-1.6522,-1.7034,-1.7666,-1.8419,-1.8727,-1.9095,-1.9442,-1.9639,-1.969,-1.969,-1.969,-1.969,-1.969,-1.969,-1.969,-1.969,-1.969,-1.969,-1.969,0.9482,0.7957,0.7272,0.8108,0.8251,0.6381,0.0842,-0.586,-1.0283,-1.0283,-1.35,-1.6313,-1.7658,-1.8149,0.0,-1.7816,-2.1476,-2.3164,-2.1644,-2.0759,-2.0394,-2.0535,-1.9942,-1.9737,-2.006,-1.9838,0.0,-1.9713,-2.0406,-2.0662,-2.0519,-2.037,-1.9778,-1.8911,-1.9357,-1.934,-1.902,-1.9326,-1.9111,-1.8566,-1.8073,-1.7849,-1.7789,-1.7572,-1.7635,-1.7811,-1.7811,-1.7361,-1.6789,-1.6789,-1.6034,-1.5104,-1.5104,-1.403,-1.28,-1.28,-1.2695,-1.2543,-1.2543,-1.2543,-1.2543,-1.2543,-1.2555,-1.2366,-1.1505,-1.0225,-0.9142,-0.8797,-0.7064,-0.5594,-0.5653,-0.4705,-0.4272,-0.5437,-0.5935,-0.6684,-0.8222,0.0,0.0,0.0,0.0,0.0,0.0,-1.0374,-1.1183,0.0,0.0,0.0,0.0,0.0,0.0,-1.568,-1.6233,0.0,-1.6522,-1.6522,-1.6522,-1.6522,-1.7229,-1.8185,-1.9207,-1.9207,-1.9369,-1.969,-1.969,-1.969,-1.969,-1.969,-1.969,-1.969,-1.969,-1.969,-1.969,-1.969,-1.969,-1.969,0.7668,0.6833,0.5129,0.0,0.0,0.0,0.0,-0.586,-1.0283,-1.0283,-1.35,-1.6285,-1.7542,-1.8645,-1.8911,-1.7997,0.0,0.0,0.0,-2.0312,-2.0714,-2.1613,-2.0544,-2.0117,-2.0519,-2.0037,-1.9753,-1.9694,-1.9768,-1.9846,-1.989,-1.9687,-1.9435,-1.9161,-2.0018,-1.9928,-1.9144,-1.9831,-1.9524,-1.8566,-1.831,-1.8035,-1.7811,-1.7811,-1.7811,-1.7811,-1.7811,-1.7361,-1.6789,-1.6789,-1.6062,-1.5165,-1.5165,-1.4876,-1.4596,-1.4533,-1.4205,-1.3841,-1.3841,-1.3841,-1.3841,-1.3841,-1.3881,-1.3542,-1.2151,-1.1025,-0.9943,-0.891,-0.7349,-0.6174,-0.6215,-0.526,-0.4822,-0.5984,-0.6259,-0.6749,-0.7863,0.0,0.0,0.0,0.0,0.0,0.0,-1.0322,-1.0736,0.0,0.0,0.0,0.0,0.0,-1.5718,-1.5756,-1.6245,-1.6522,-1.6522,-1.6522,-1.6552,-1.6637,-1.7666,-1.8688,-1.969,-1.969,-1.969,-1.969,-1.969,-1.969,-1.969,-1.969,-1.969,-1.969,-1.969,-1.969,-1.969,-1.969,-1.969,-1.969,0.0,0.0,0.129,0.0179,0.0,0.0,0.0,-0.586,-1.0283,-1.0283,-1.35,-1.5926,-1.6231,-1.8081,-1.9193,-1.898,-1.9967,-2.0501,-2.0315,-2.0312,-2.0289,-2.0264,-2.2094,-2.2388,-2.0831,-2.122,-2.1209,-2.074,-2.0152,-1.9853,-1.981,-1.9677,-1.9876,-2.0344,-1.9813,-1.979,-2.0109,-1.9522,-1.9022,-1.8566,-1.831,-1.8035,-1.7811,-1.7811,-1.7811,-1.7811,-1.7811,-1.7361,-1.6789,-1.6789,-1.6285,-1.5639,-1.5639,-1.558,-1.5359,-1.469,-1.4424,-1.4315,-1.4315,-1.4315,-1.4315,-1.4315,-1.4076,-1.3557,-1.2495,-1.1443,-1.0299,-0.8981,-0.766,-0.6651,-0.6264,-0.5567,-0.5247,-0.575,-0.6481,-0.7248,-0.8046,-0.8802,0.0,0.0,-1.0127,-1.0166,-1.0273,-1.0611,-1.1094,0.0,0.0,0.0,0.0,-1.5392,-1.5881,-1.6308,-1.6446,-1.6522,-1.6522,-1.6522,-1.6909,-1.7747,-1.838,-1.9043,-1.969,-1.969,-1.969,-1.969,-1.969,-1.969,-1.969,-1.969,-1.969,-1.969,-1.969,-1.969,-1.969,-1.969,-1.969,-1.969,0.9195,0.5767,0.2517,0.0358,0.0,0.0,0.0,-0.3169,-0.6739,-0.9875,-1.2035,-1.4169,-1.6465,-1.7856,-1.8968,-1.9832,-2.0326,-2.0501,-2.0315,-2.1727,-2.2171,-2.1266,-2.275,-2.3115,-2.2027,-2.2036,-2.1771,-2.1184,-2.0327,-1.984,-1.9759,-1.981,-1.9924,-2.0119,-1.9924,-1.9895,-1.9934,-1.9542,-1.9073,-1.8566,-1.8166,-1.7927,-1.7811,-1.7811,-1.7811,-1.7811,-1.7811,-1.7361,-1.6789,-1.6789,-1.634,-1.5799,-1.5799,-1.5799,-1.5712,-1.5225,-1.5104,-1.5104,-1.5104,-1.5104,-1.5043,-1.4814,-1.4442,-1.3887,-1.2923,-1.1962,-1.0822,-0.9315,-0.8139,-0.7196,-0.6683,-0.5989,-0.5619,-0.6055,-0.6635,-0.7264,-0.7858,-0.8721,0.0,-0.9932,-1.0156,-1.0283,-1.0283,-1.0544,-1.0878,-1.1394,-1.2374,0.0,-1.4492,-1.5259,-1.5957,-1.6497,-1.6522,-1.6522,-1.6522,-1.6522,-1.7034,-1.8106,-1.8419,-1.893,-1.969,-1.969,-1.969,-1.969,-1.969,-1.969,-1.969,-1.969,-1.969,-1.969,-1.969,-1.969,-1.969,-1.969,-1.969,-1.969,0.7426,0.6979,0.5738,0.1774,0.0492,0.0,0.0,0.0,-0.2105,-0.7966,-1.0469,-1.3267,-1.7358,-1.8042,-1.8856,-2.0466,-2.0608,-2.0614,-2.0681,-2.3351,-2.4312,-2.2943,-2.3078,-2.33,-2.3531,-2.2543,-2.1759,-2.1214,-2.0284,-1.9723,-1.946,-1.989,-1.9866,-1.9463,-2.0142,-2.0069,-1.9447,-1.9647,-1.9273,-1.8489,-1.7992,-1.7811,-1.7811,-1.7811,-1.7811,-1.7789,-1.7726,-1.7337,-1.6789,-1.6738,-1.6363,-1.5933,-1.5829,-1.5858,-1.5933,-1.5829,-1.5799,-1.5799,-1.5799,-1.5799,-1.5712,-1.5329,-1.4937,-1.4442,-1.3432,-1.2566,-1.1498,-0.9759,-0.8561,-0.7624,-0.6954,-0.6225,-0.5899,-0.6442,-0.6757,-0.7089,-0.765,0.0,-0.916,-0.9544,-1.002,-1.0283,-1.0283,-1.0283,-1.0505,-1.0943,-1.1927,-1.2938,-1.4022,-1.5051,-1.5856,-1.6497,-1.6522,-1.6522,-1.6522,-1.6595,-1.7105,-1.8106,-1.8185,-1.8727,-1.969,-1.969,-1.969,-1.969,-1.969,-1.969,-1.969,-1.969,-1.969,-1.969,-1.969,-1.969,-1.969,-1.969,-1.969,-1.969,0.7426,0.6979,0.6755,0.6047,0.2646,0.0,0.0,0.0,-0.0403,-0.1457,-1.1333,-1.8125,-1.784,-1.9223,-2.0277,-2.0561,-2.0594,-2.1111,-2.234,-2.2889,-2.3083,-2.2825,-2.3953,-2.4618,-2.4653,-2.2696,-2.1396,-2.079,-1.9974,-1.9152,-1.8367,-1.9553,-2.0083,-2.0065,-2.012,-2.012,-2.0029,-1.9562,-1.8965,-1.8229,-1.7927,-1.7811,-1.7811,-1.7811,-1.7811,-1.7749,-1.7479,-1.7126,-1.6763,-1.6474,-1.6462,-1.6458,-1.5978,-1.6144,-1.6458,-1.5963,-1.5799,-1.5799,-1.5799,-1.5799,-1.577,-1.5712,-1.5639,-1.527,-1.3958,-1.3226,-1.2166,-0.9857,-0.8561,-0.7428,-0.6278,-0.5855,-0.5827,-0.6263,-0.6662,-0.7215,-0.8139,0.0,-0.916,-0.9544,-1.002,-1.0283,-1.0283,-1.0283,-1.0505,-1.0943,-1.1582,-1.2571,-1.401,-1.4693,-1.5467,-1.6484,-1.6522,-1.6522,-1.6522,-1.6951,-1.7504,-1.8106,-1.8574,-1.9095,-1.969,-1.969,-1.969,-1.969,-1.969,-1.969,-1.969,-1.969,-1.969,-1.969,-1.969,-1.969,-1.969,-1.969,-1.969,-1.969,0.8973,0.7841,0.7228,0.7869,0.5626,0.2906,0.0401,0.0,0.0,0.0,-1.1496,-1.9474,-1.8885,-2.1534,-2.2605,-2.076,-2.0599,-2.0832,-2.1424,-2.3139,-2.3823,-2.3089,-2.438,-2.4543,-2.3315,-2.1709,-2.0578,-1.9884,-1.9226,-1.8641,-1.8181,-1.9195,-1.9544,-1.9361,-1.9715,-1.968,-1.9342,-1.9314,-1.8862,-1.8166,-1.7905,-1.7811,-1.7811,-1.7811,-1.7811,-1.7789,-1.7618,-1.724,-1.6789,-1.6607,-1.6419,-1.6174,-1.5903,-1.6219,-1.6577,-1.5964,-1.5799,-1.5799,-1.5799,-1.5799,-1.5799,-1.5799,-1.561,-1.518,-1.4365,-1.3385,-1.213,-1.0185,-0.8705,-0.7414,-0.6142,-0.5673,-0.5583,-0.5819,-0.6319,0.0,0.0,-0.8468,-0.8922,-0.9865,-0.9925,-1.0,-1.0283,-1.0283,-1.04,-1.0611,-1.1356,-1.2238,-1.3204,-1.4292,-1.5246,-1.5971,-1.6324,-1.6522,-1.6522,-1.6752,-1.7271,-1.8106,-1.8341,-1.8893,-1.969,-1.969,-1.969,-1.969,-1.969,-1.9818,-2.0035,-2.0035,-2.0158,-2.0413,-2.0413,-2.0243,-2.0035,-2.0035,-2.0035,-2.0,1.0923,0.9213,0.7771,0.7795,0.7054,0.4987,0.066,0.0,0.0,0.0,-1.1511,-1.969,-1.969,-2.246,-2.3308,-2.0819,-2.0605,-2.0501,-2.0315,-2.3438,-2.4839,-2.3843,-2.4436,-2.3826,-2.1763,-2.0569,-1.9608,-1.8901,-1.848,-1.8166,-1.802,-1.8898,-1.9003,-1.8561,-1.9453,-1.9348,-1.8542,-1.9112,-1.8819,-1.7958,-1.7772,-1.7681,-1.7681,-1.7766,-1.7766,-1.7681,-1.7612,-1.7191,-1.6659,-1.6581,-1.6327,-1.5994,-1.5994,-1.6338,-1.6622,-1.6144,-1.5918,-1.5799,-1.5799,-1.5799,-1.5799,-1.5799,-1.5448,-1.4982,-1.4596,-1.3424,-1.1962,-1.0404,-0.8887,-0.7373,-0.5975,-0.5549,-0.5421,-0.5561,0.0,0.0,0.0,-0.8149,-0.8585,-0.9811,-0.9582,-0.9558,-1.0244,-1.0205,-1.0166,-1.0283,-1.1105,-1.1839,-1.2319,-1.3626,-1.4647,-1.5242,-1.6034,-1.6522,-1.6522,-1.6522,-1.6993,-1.7907,-1.8027,-1.8612,-1.953,-1.9639,-1.969,-1.969,-1.969,-1.9874,-2.0158,-2.0158,-2.0416,-2.0829,-2.0829,-2.0682,-2.0449,-2.0449,-2.0449,-2.0382,1.2735,1.1301,0.897,0.5456,0.4751,0.3632,0.0503,0.0,0.0,0.0,-1.1523,-1.969,-1.969,-1.997,-2.0267,-2.0566,-2.0605,-2.0501,-2.0315,-2.3438,-2.5303,-2.5331,-2.3995,-2.2612,-2.1176,-1.969,-1.8624,-1.7994,-1.7969,-1.774,-1.7403,-1.8683,-1.8918,-1.8298,-1.971,-1.9554,-1.8274,-1.9118,-1.8667,-1.7351,-1.7327,-1.7344,-1.7368,-1.7681,-1.7612,-1.7296,-1.6993,-1.6633,-1.6301,-1.5983,-1.6218,-1.6637,-1.6637,-1.6667,-1.6697,-1.6652,-1.6248,-1.5799,-1.5799,-1.5799,-1.5799,-1.5799,-1.5448,-1.4982,-1.4596,-1.3424,-1.1951,-1.0411,-0.8879,-0.7243,-0.5486,-0.5447,-0.5716,-0.5851,0.0,0.0,-0.7883,-0.803,-0.8219,-0.8844,-0.8824,-0.9159,-1.0205,-0.9834,-0.9765,-1.0244,-1.0764,-1.1305,-1.1802,-1.2441,-1.3219,-1.4177,-1.5721,-1.6522,-1.6522,-1.6522,-1.6795,-1.7353,-1.7867,-1.8419,-1.8968,-1.9479,-1.969,-1.969,-1.969,-1.9711,-1.9747,-1.9747,-1.9965,-2.0348,-2.0348,-2.0583,-2.0959,-2.0959,-2.0959,-2.0894,1.5136,1.3403,1.0356,0.5375,0.4519,0.3456,0.0448,0.0,0.0,0.0,-0.9058,-1.5489,-1.5489,-1.8957,-2.0632,-1.9011,-1.9931,-2.1462,-2.3514,-2.4832,-2.4466,-2.2025,-2.0325,-1.918,-1.8643,-1.7606,-1.6932,-1.6589,-1.6811,-1.694,-1.7018,-1.7728,-1.8031,-1.8017,-1.9495,-1.9442,-1.8315,-1.9157,-1.8772,-1.7565,-1.7154,-1.6977,-1.7002,-1.7142,-1.7117,-1.6977,-1.6841,-1.6581,-1.6274,-1.6136,-1.6121,-1.6144,-1.6144,-1.6383,-1.6712,-1.6712,-1.6278,-1.5799,-1.5799,-1.5799,-1.5741,-1.5448,-1.5225,-1.4937,-1.4278,-1.3234,-1.2081,-1.0829,-0.9125,-0.7309,-0.5746,-0.5308,-0.5214,-0.5259,0.0,-0.6638,-0.7761,-0.7686,-0.7819,-0.8633,-0.8432,-0.848,-0.9239,-0.9439,-0.9597,-0.9804,-1.0562,-1.1064,-1.1237,-1.2289,-1.3291,-1.4057,-1.4942,-1.5555,-1.5952,-1.6324,-1.6951,-1.7787,-1.7987,-1.8574,-1.9406,-1.9603,-1.969,-1.9711,-1.9965,-2.0227,-2.0532,-2.0797,-2.115,-2.1538,-2.1538,-2.1477,-2.1368,-2.1368,-2.1368,-2.1306,1.5522,1.3358,1.0112,0.532,0.4519,0.3456,0.0448,0.0,-0.0336,-0.1285,-0.7344,-1.161,-1.161,-1.7515,-2.0662,-1.8573,-2.0435,-2.2734,-2.5077,-2.4268,-2.2458,-1.9695,-1.9153,-1.7691,-1.5039,-1.5732,-1.6025,-1.5799,-1.6136,-1.6474,-1.6815,-1.715,-1.7415,-1.7708,-1.9277,-1.9361,-1.8355,-1.9061,-1.8674,-1.7587,-1.6918,-1.6633,-1.6659,-1.6763,-1.6738,-1.6633,-1.6633,-1.6421,-1.6136,-1.6136,-1.5983,-1.5829,-1.6009,-1.6353,-1.6712,-1.6712,-1.6278,-1.5799,-1.5799,-1.5799,-1.5712,-1.5389,-1.5195,-1.4907,-1.4246,-1.3336,-1.2295,-1.1121,-0.9536,-0.7807,-0.613,-0.5528,-0.5239,-0.5042,-0.556,-0.6396,-0.7473,-0.7337,-0.7474,-0.8325,-0.7946,-0.7904,-0.8635,-0.8878,-0.9119,-0.9478,-1.0137,-1.0714,-1.1165,-1.2141,-1.3,-1.374,-1.4384,-1.4901,-1.532,-1.592,-1.6769,-1.7867,-1.8027,-1.8574,-1.9442,-1.9603,-1.969,-1.9726,-2.0,-2.0364,-2.0797,-2.107,-2.1538,-2.2077,-2.2077,-2.1957,-2.1823,-2.1823,-2.1823,-2.1764,1.3382,1.0694,0.7883,0.5007,0.4519,0.3456,0.0448,0.0,-0.1118,-0.4125,-0.7009,-0.8752,-0.8804,-1.5277,-1.9675,-1.969,-2.2453,-2.419,-2.419,-2.109,-1.9256,-1.9222,-2.1416,-1.8767,-1.0527,-1.4318,-1.6184,-1.5799,-1.6136,-1.649,-1.6805,-1.7126,-1.7296,-1.7386,-1.9202,-1.9352,-1.832,-1.8799,-1.8321,-1.7233,-1.658,-1.6301,-1.6313,-1.6659,-1.6581,-1.6301,-1.6301,-1.608,-1.5799,-1.5799,-1.5799,-1.5903,-1.6502,-1.6712,-1.6712,-1.6697,-1.6278,-1.5814,-1.5799,-1.5799,-1.5799,-1.5799,-1.5448,-1.4982,-1.4596,-1.3769,-1.2669,-1.1196,-1.0108,-0.8713,-0.6523,-0.6149,-0.6002,-0.5389,-0.5782,-0.6392,-0.6937,-0.6979,-0.7238,-0.7829,-0.7363,-0.744,-0.8594,-0.8201,-0.8357,-0.9399,-0.9527,-1.0211,-1.1831,-1.1762,-1.2131,-1.3044,-1.4186,-1.4743,-1.4698,-1.532,-1.6188,-1.7312,-1.7854,-1.8366,-1.893,-1.9442,-1.969,-1.969,-1.9711,-1.9929,-2.0314,-2.0314,-2.083,-2.1582,-2.1612,-2.1899,-2.231,-2.231,-2.231,-2.2237,1.3382,1.0694,0.8533,0.7664,0.5823,0.3456,0.0448,-0.1786,-0.3456,-0.4405,-0.5222,-0.6578,-0.8586,-1.2464,-1.6198,-1.9427,-2.1648,-2.2884,-2.2884,-1.9085,-1.5687,-1.3101,-1.6118,-1.6512,-1.3664,-1.4279,-1.5019,-1.5799,-1.5898,-1.6353,-1.7139,-1.7235,-1.7427,-1.7716,-1.8989,-1.8844,-1.7638,-1.8035,-1.7694,-1.6819,-1.6199,-1.5955,-1.5955,-1.6067,-1.6039,-1.5955,-1.5955,-1.587,-1.5799,-1.5799,-1.5799,-1.5829,-1.5994,-1.6353,-1.6622,-1.6189,-1.6248,-1.6353,-1.5933,-1.5799,-1.5712,-1.5389,-1.5195,-1.4907,-1.4246,-1.3336,-1.2413,-1.1667,-1.0138,-0.8439,-0.68,-0.6014,-0.5343,-0.4647,-0.5122,-0.5787,-0.6349,-0.6768,-0.7063,-0.7238,-0.7105,-0.7147,-0.7474,-0.8353,-0.9004,-0.9342,-1.005,-1.0826,-1.1636,-1.1324,-1.1564,-1.2453,-1.2802,-1.3544,-1.4698,-1.5329,-1.6427,-1.7854,-1.7625,-1.8186,-1.9479,-1.9639,-1.969,-1.9726,-2.0,-2.0193,-2.0348,-2.0959,-2.1352,-2.1628,-2.1957,-2.218,-2.231,-2.231,-2.231,-2.2282,1.3382,1.1551,1.0079,0.9008,0.6416,0.3456,0.0448,-0.1563,-0.3121,-0.4349,-0.4519,-0.5171,-0.6902,-1.0586,-1.3996,-1.6757,-1.9632,-2.126,-2.126,-1.6463,-1.2247,-0.9124,-1.1966,-1.3817,-1.4268,-1.4199,-1.4495,-1.5285,-1.598,-1.6638,-1.7227,-1.7529,-1.7644,-1.7638,-1.8716,-1.8495,-1.7308,-1.759,-1.7477,-1.7025,-1.6144,-1.5948,-1.6129,-1.5903,-1.5799,-1.5799,-1.5799,-1.5799,-1.5799,-1.5799,-1.5799,-1.5844,-1.6069,-1.6398,-1.6637,-1.6263,-1.6592,-1.6906,-1.6053,-1.5978,-1.6025,-1.5507,-1.5225,-1.4937,-1.4278,-1.3369,-1.2448,-1.1608,-1.0128,-0.8439,-0.6754,-0.5817,-0.5091,-0.4375,-0.4947,-0.5629,-0.6147,-0.6785,-0.7154,-0.7034,-0.6979,-0.6979,-0.6979,-0.7858,-0.8621,-0.9238,-1.0709,-1.1848,-1.2569,-1.211,-1.2234,-1.3165,-1.3202,-1.368,-1.4698,-1.5151,-1.6283,-1.8092,-1.756,-1.8127,-1.969,-1.969,-1.969,-1.9711,-1.9965,-2.0261,-2.0616,-2.115,-2.1568,-2.1899,-2.218,-2.231,-2.231,-2.231,-2.231,-2.231,1.3382,1.2881,1.2008,0.9271,0.6416,0.3566,0.0839,0.0168,-0.1006,-0.3735,-0.4349,-0.4519,-0.4519,-0.9548,-1.2881,-1.2881,-1.6703,-1.9074,-1.9074,-1.3182,-0.8924,-0.7224,-0.9044,-1.0998,-1.2896,-1.3875,-1.4424,-1.4533,-1.6133,-1.6982,-1.7088,-1.7746,-1.7776,-1.7281,-1.8311,-1.8158,-1.7157,-1.7257,-1.7378,-1.7413,-1.6278,-1.6129,-1.6562,-1.5994,-1.5799,-1.5799,-1.5741,-1.5741,-1.5741,-1.5741,-1.577,-1.5903,-1.6443,-1.6667,-1.6712,-1.6712,-1.7174,-1.746,-1.6293,-1.6383,-1.6652,-1.6099,-1.558,-1.507,-1.461,-1.3789,-1.2761,-1.127,-1.0147,-0.8753,-0.6571,-0.569,-0.5116,-0.446,-0.511,-0.5823,-0.6148,-0.6982,-0.7395,-0.7009,-0.7018,-0.7012,-0.6937,-0.711,-0.7909,-0.9406,-1.1377,-1.2926,-1.3938,-1.3437,-1.3571,-1.4517,-1.4656,-1.4731,-1.4722,-1.4807,-1.5958,-1.8013,-1.7467,-1.807,-1.9639,-1.969,-1.969,-1.969,-1.969,-2.0154,-2.0894,-2.0959,-2.1462,-2.218,-2.2282,-2.231,-2.231,-2.231,-2.231,-2.231,1.3382,1.2881,1.2008,0.9271,0.6416,0.4294,0.3624,0.1507,-0.0224,-0.0895,-0.301,-0.4519,-0.4519,-0.9548,-1.2881,-1.2881,-1.3784,-1.4391,-1.4391,-0.8534,-0.6041,-0.8218,-0.8383,-0.9186,-1.0805,-1.2518,-1.3854,-1.4814,-1.5322,-1.5946,-1.6786,-1.6954,-1.6954,-1.6864,-1.7404,-1.7067,-1.6153,-1.6407,-1.6414,-1.6203,-1.5918,-1.5888,-1.5964,-1.5858,-1.5799,-1.5741,-1.5389,-1.5255,-1.5255,-1.5255,-1.5507,-1.5829,-1.5963,-1.6338,-1.6712,-1.6712,-1.7174,-1.7637,-1.7339,-1.7369,-1.7443,-1.7326,-1.6579,-1.5644,-1.4707,-1.4063,-1.3264,-1.1875,-1.0426,-0.8873,-0.7045,-0.6034,-0.5116,-0.4107,-0.5047,-0.5985,-0.6029,-0.7072,-0.753,-0.6777,-0.7102,-0.71,-0.6453,-0.8121,-0.981,-1.1142,-1.1864,-1.2543,-1.3125,-1.2855,-1.2872,-1.3348,-1.3938,-1.4428,-1.4759,-1.4791,-1.5736,-1.7463,-1.694,-1.7511,-1.9095,-1.953,-1.969,-1.969,-1.969,-1.9818,-2.0015,-2.0698,-2.1103,-2.1354,-2.202,-2.231,-2.231,-2.231,-2.231,-2.231,1.2307,1.2314,1.2008,0.9271,0.6186,0.4185,0.4474,0.1953,0.0,0.0,-0.2621,-0.4519,-0.4519,-0.9548,-1.2881,-1.2881,-1.2881,-1.1652,-0.8641,-0.5546,-0.4843,-0.7259,-0.7691,-0.8488,-0.9778,-1.1063,-1.2645,-1.4533,-1.5669,-1.6666,-1.7535,-1.7954,-1.7951,-1.7637,-1.7342,-1.6848,-1.6219,-1.5859,-1.6099,-1.6637,-1.6053,-1.6368,-1.7071,-1.5891,-1.5995,-1.6561,-1.5556,-1.5347,-1.5475,-1.5205,-1.5418,-1.577,-1.5551,-1.6262,-1.7083,-1.6568,-1.7477,-1.8523,-1.7861,-1.7921,-1.8119,-1.7772,-1.73,-1.6608,-1.5594,-1.4593,-1.3536,-1.2329,-1.0964,-0.9402,-0.7348,-0.6292,-0.5329,-0.409,-0.4911,-0.5599,-0.5506,-0.6411,-0.6884,-0.6296,-0.6497,-0.6632,-0.6503,-0.8699,-1.039,-1.1071,-1.2253,-1.3081,-1.3324,-1.2983,-1.2984,-1.3355,-1.3554,-1.4019,-1.4771,-1.4815,-1.568,-1.7299,-1.7016,-1.774,-1.9281,-1.9566,-1.969,-1.969,-1.969,-1.9818,-2.0035,-2.0731,-2.1118,-2.1337,-2.2032,-2.231,-2.231,-2.231,-2.231,-2.231,1.1399,1.1366,1.1156,0.8896,0.5803,0.3825,0.4426,0.1953,0.0,0.0,-0.2621,-0.4519,-0.4519,-0.8664,-1.144,-1.144,-1.1005,-0.849,-0.3325,-0.3425,-0.4243,-0.5432,-0.6716,-0.7911,-0.909,-0.973,-1.1322,-1.394,-1.5813,-1.711,-1.784,-1.852,-1.853,-1.803,-1.7069,-1.6579,-1.638,-1.5487,-1.5972,-1.7296,-1.6144,-1.665,-1.7848,-1.5802,-1.5949,-1.7104,-1.5714,-1.5432,-1.574,-1.5392,-1.5443,-1.5551,-1.544,-1.6337,-1.7282,-1.6619,-1.7905,-1.9301,-1.8328,-1.8463,-1.8747,-1.8194,-1.7969,-1.763,-1.6802,-1.5465,-1.4051,-1.2787,-1.1628,-1.0107,-0.7769,-0.6707,-0.5785,-0.4453,-0.4947,-0.5375,-0.5069,-0.5733,-0.6115,-0.5755,-0.5795,-0.6126,-0.6795,-0.8892,-1.031,-1.0464,-1.2349,-1.3532,-1.3637,-1.3447,-1.351,-1.3829,-1.3771,-1.4124,-1.4834,-1.5093,-1.5954,-1.7422,-1.7441,-1.819,-1.9566,-1.9639,-1.969,-1.969,-1.969,-1.9874,-2.0261,-2.0797,-2.1181,-2.1552,-2.2077,-2.231,-2.231,-2.231,-2.231,-2.231,1.2673,0.9998,0.7681,0.7305,0.5213,0.3825,0.4426,0.1953,0.0,0.0,-0.2621,-0.4519,-0.4519,-0.5156,-0.5634,-0.5634,-0.3248,-0.1406,-0.0539,-0.1808,-0.2976,-0.3807,-0.4981,-0.6386,-0.7993,-0.901,-1.0743,-1.3243,-1.3536,-1.4326,-1.5542,-1.5329,-1.5343,-1.5585,-1.5065,-1.5012,-1.5325,-1.5163,-1.5461,-1.6024,-1.5417,-1.5354,-1.5511,-1.485,-1.5027,-1.5543,-1.4983,-1.4831,-1.5002,-1.584,-1.5505,-1.4903,-1.6251,-1.6502,-1.65,-1.7409,-1.8218,-1.8927,-1.9316,-1.9495,-1.9525,-1.9435,-1.8986,-1.846,-1.7963,-1.6913,-1.5438,-1.3501,-1.213,-1.0779,-0.8975,-0.7827,-0.6676,-0.5341,-0.5871,-0.6206,-0.5524,-0.6089,-0.6245,-0.5466,-0.5743,-0.6297,-0.7164,-0.8651,-0.9886,-1.0672,-1.158,-1.2374,-1.2968,-1.3961,-1.4305,-1.3906,-1.5286,-1.5909,-1.5587,-1.6036,-1.6837,-1.7987,-1.797,-1.8335,-1.9006,-1.9479,-1.969,-1.969,-1.969,-1.9711,-1.9839,-2.0665,-2.1023,-2.115,-2.1974,-2.231,-2.231,-2.231,-2.231,-2.231,1.0897,0.921,0.8023,0.8023,0.5849,0.4213,0.4477,0.1953,0.0,0.0,-0.2621,-0.4519,-0.4519,-0.4519,-0.4519,-0.4519,-0.3271,-0.1819,-0.009,-0.0672,-0.1784,-0.3409,-0.4025,-0.5267,-0.7307,-0.8115,-0.9488,-1.148,-1.2925,-1.408,-1.4897,-1.5383,-1.5711,-1.583,-1.5017,-1.5031,-1.5638,-1.5032,-1.5367,-1.6219,-1.543,-1.5552,-1.6035,-1.437,-1.4623,-1.5845,-1.5387,-1.5375,-1.5601,-1.5781,-1.567,-1.5469,-1.5954,-1.6387,-1.6732,-1.7042,-1.793,-1.8892,-1.917,-1.9479,-1.969,-1.969,-1.9465,-1.9051,-1.8271,-1.7691,-1.6689,-1.4502,-1.302,-1.1538,-0.9681,-0.8355,-0.7186,-0.6178,-0.6362,-0.6367,-0.5597,-0.576,-0.5679,-0.4962,-0.5724,-0.6488,-0.686,-0.8571,-0.9961,-1.0754,-1.1416,-1.2129,-1.2871,-1.3501,-1.3811,-1.3831,-1.4685,-1.533,-1.5642,-1.6223,-1.7022,-1.8106,-1.8419,-1.8817,-1.9369,-1.9603,-1.969,-1.969,-1.969,-1.969,-1.9747,-2.0364,-2.0748,-2.1055,-2.1675,-2.2077,-2.231,-2.231,-2.231,-2.231]}]]